Wetterdaten: Sonntag, 24.09.2017
Datum Zeit Temp. A. Pool Temp. Feuchte A. Luftdruck Regen Wind Richtung Richtung Sonnenschein ET UV Solar Taupunkt Windchill Windben Empfang
24.09.2017 00:00 11,5 C 13,3 C 90 % 1019,4 hPa 0,0 l/m 2,3 km/h (1 Bft) S-SW 192 0 min 0,000 mm 0,0 UV-I 0 W/m 9,9 C 11,5 C 3,2 km/h (1 Bft) 100,00 %
24.09.2017 00:02 11,4 C 13,3 C 90 % 1019,4 hPa 0,0 l/m 3,1 km/h (1 Bft) S 187 0 min 0,000 mm 0,0 UV-I 0 W/m 9,8 C 11,4 C 4,8 km/h (1 Bft) 100,00 %
24.09.2017 00:04 11,4 C 13,3 C 89 % 1019,3 hPa 0,0 l/m 3,1 km/h (1 Bft) S 187 0 min 0,000 mm 0,0 UV-I 0 W/m 9,7 C 11,4 C 4,8 km/h (1 Bft) 100,00 %
24.09.2017 00:06 11,4 C 13,3 C 89 % 1019,3 hPa 0,0 l/m 2,2 km/h (1 Bft) S 187 0 min 0,000 mm 0,0 UV-I 0 W/m 9,7 C 11,4 C 4,8 km/h (1 Bft) 100,00 %
24.09.2017 00:08 11,4 C 13,3 C 89 % 1019,3 hPa 0,0 l/m 1,4 km/h (1 Bft) S 187 0 min 0,000 mm 0,0 UV-I 0 W/m 9,7 C 11,4 C 3,2 km/h (1 Bft) 97,87 %
24.09.2017 00:10 11,4 C 13,3 C 89 % 1019,2 hPa 0,0 l/m 0,9 km/h (0 Bft) S 187 0 min 0,000 mm 0,0 UV-I 0 W/m 9,7 C 11,4 C 3,2 km/h (1 Bft) 100,00 %
24.09.2017 00:12 11,4 C 13,3 C 89 % 1019,2 hPa 0,0 l/m 1,9 km/h (1 Bft) S 187 0 min 0,000 mm 0,0 UV-I 0 W/m 9,7 C 11,4 C 3,2 km/h (1 Bft) 100,00 %
24.09.2017 00:14 11,3 C 13,3 C 89 % 1019,2 hPa 0,0 l/m 1,9 km/h (1 Bft) S 187 0 min 0,000 mm 0,0 UV-I 0 W/m 9,6 C 11,3 C 3,2 km/h (1 Bft) 100,00 %
24.09.2017 00:16 11,2 C 13,3 C 89 % 1019,2 hPa 0,0 l/m 1,5 km/h (1 Bft) S 187 0 min 0,000 mm 0,0 UV-I 0 W/m 9,5 C 11,2 C 3,2 km/h (1 Bft) 100,00 %
24.09.2017 00:18 11,2 C 13,3 C 90 % 1019,2 hPa 0,0 l/m 2,4 km/h (1 Bft) S 187 0 min 0,000 mm 0,0 UV-I 0 W/m 9,6 C 11,2 C 4,8 km/h (1 Bft) 100,00 %
24.09.2017 00:20 11,2 C 13,3 C 90 % 1019,2 hPa 0,0 l/m 2,8 km/h (1 Bft) S 187 0 min 0,000 mm 0,0 UV-I 0 W/m 9,6 C 11,2 C 6,4 km/h (2 Bft) 100,00 %
24.09.2017 00:22 11,2 C 13,3 C 90 % 1019,1 hPa 0,0 l/m 3,8 km/h (1 Bft) S 187 0 min 0,000 mm 0,0 UV-I 0 W/m 9,6 C 11,2 C 4,8 km/h (1 Bft) 100,00 %
24.09.2017 00:24 11,2 C 13,3 C 90 % 1019,1 hPa 0,0 l/m 3,9 km/h (1 Bft) S-SO 164 0 min 0,000 mm 0,0 UV-I 0 W/m 9,6 C 11,2 C 8,0 km/h (2 Bft) 98,00 %
24.09.2017 00:26 11,2 C 13,3 C 90 % 1019,1 hPa 0,0 l/m 4,4 km/h (1 Bft) S 174 0 min 0,000 mm 0,0 UV-I 0 W/m 9,6 C 11,2 C 8,0 km/h (2 Bft) 97,87 %
24.09.2017 00:28 11,2 C 13,3 C 90 % 1019,1 hPa 0,0 l/m 4,0 km/h (1 Bft) S 171 0 min 0,000 mm 0,0 UV-I 0 W/m 9,6 C 11,2 C 6,4 km/h (2 Bft) 100,00 %
24.09.2017 00:30 11,2 C 13,3 C 90 % 1019,1 hPa 0,0 l/m 4,7 km/h (1 Bft) S-SW 202 0 min 0,000 mm 0,0 UV-I 0 W/m 9,6 C 11,2 C 8,0 km/h (2 Bft) 100,00 %
24.09.2017 00:32 11,1 C 13,3 C 90 % 1019,1 hPa 0,0 l/m 4,1 km/h (1 Bft) S-SW 202 0 min 0,000 mm 0,0 UV-I 0 W/m 9,5 C 11,1 C 6,4 km/h (2 Bft) 100,00 %
24.09.2017 00:34 11,1 C 13,3 C 90 % 1019,0 hPa 0,0 l/m 3,6 km/h (1 Bft) S-SW 202 0 min 0,000 mm 0,0 UV-I 0 W/m 9,5 C 11,1 C 6,4 km/h (2 Bft) 100,00 %
24.09.2017 00:36 11,1 C 13,3 C 90 % 1019,1 hPa 0,0 l/m 3,9 km/h (1 Bft) S-SW 202 0 min 0,000 mm 0,0 UV-I 0 W/m 9,5 C 11,1 C 6,4 km/h (2 Bft) 100,00 %
24.09.2017 00:38 11,1 C 13,3 C 90 % 1019,1 hPa 0,0 l/m 4,9 km/h (1 Bft) S-SW 203 0 min 0,000 mm 0,0 UV-I 0 W/m 9,5 C 11,1 C 6,4 km/h (2 Bft) 100,00 %
24.09.2017 00:40 11,0 C 13,3 C 90 % 1019,1 hPa 0,0 l/m 5,2 km/h (1 Bft) S-SW 207 0 min 0,000 mm 0,0 UV-I 0 W/m 9,4 C 11,0 C 6,4 km/h (2 Bft) 96,00 %
24.09.2017 00:42 11,0 C 13,3 C 90 % 1019,1 hPa 0,0 l/m 5,4 km/h (1 Bft) S-SW 195 0 min 0,000 mm 0,0 UV-I 0 W/m 9,4 C 11,0 C 6,4 km/h (2 Bft) 100,00 %
24.09.2017 00:44 11,0 C 13,3 C 90 % 1019,1 hPa 0,0 l/m 4,1 km/h (1 Bft) S 186 0 min 0,000 mm 0,0 UV-I 0 W/m 9,4 C 11,0 C 6,4 km/h (2 Bft) 100,00 %
24.09.2017 00:46 10,9 C 13,3 C 90 % 1019,1 hPa 0,0 l/m 3,9 km/h (1 Bft) S 180 0 min 0,000 mm 0,0 UV-I 0 W/m 9,3 C 10,9 C 6,4 km/h (2 Bft) 95,12 %
24.09.2017 00:48 10,9 C 13,3 C 90 % 1019,1 hPa 0,0 l/m 3,0 km/h (1 Bft) S 178 0 min 0,000 mm 0,0 UV-I 0 W/m 9,3 C 10,9 C 6,4 km/h (2 Bft) 97,87 %
24.09.2017 00:50 10,9 C 13,3 C 90 % 1019,1 hPa 0,0 l/m 1,2 km/h (1 Bft) S 178 0 min 0,000 mm 0,0 UV-I 0 W/m 9,3 C 10,9 C 3,2 km/h (1 Bft) 96,23 %
24.09.2017 00:52 10,9 C 13,3 C 90 % 1019,1 hPa 0,0 l/m 1,9 km/h (1 Bft) N-NW 344 0 min 0,000 mm 0,0 UV-I 0 W/m 9,3 C 10,9 C 4,8 km/h (1 Bft) 97,87 %
24.09.2017 00:54 10,8 C 13,3 C 90 % 1019,2 hPa 0,0 l/m 0,8 km/h (0 Bft) N-NO 17 0 min 0,000 mm 0,0 UV-I 0 W/m 9,2 C 10,8 C 3,2 km/h (1 Bft) 97,87 %
24.09.2017 00:56 10,6 C 13,3 C 90 % 1019,2 hPa 0,0 l/m 1,9 km/h (1 Bft) N-NW 331 0 min 0,000 mm 0,0 UV-I 0 W/m 9,0 C 10,6 C 3,2 km/h (1 Bft) 96,00 %
24.09.2017 00:58 10,4 C 13,3 C 90 % 1019,2 hPa 0,0 l/m 3,7 km/h (1 Bft) W-SW 240 0 min 0,000 mm 0,0 UV-I 0 W/m 8,8 C 10,4 C 6,4 km/h (2 Bft) 97,44 %
24.09.2017 01:00 10,4 C 13,3 C 91 % 1019,2 hPa 0,0 l/m 4,4 km/h (1 Bft) SW 232 0 min 0,000 mm 0,0 UV-I 0 W/m 9,0 C 10,4 C 6,4 km/h (2 Bft) 98,18 %
24.09.2017 01:01 10,4 C 13,3 C 91 % 1019,1 hPa 0,0 l/m 2,2 km/h (1 Bft) S 172 0 min 0,000 mm 0,0 UV-I 0 W/m 9,0 C 10,4 C 3,2 km/h (1 Bft) 97,78 %
24.09.2017 01:04 10,4 C 13,3 C 91 % 1019,1 hPa 0,0 l/m 1,1 km/h (1 Bft) S 171 0 min 0,000 mm 0,0 UV-I 0 W/m 9,0 C 10,4 C 3,2 km/h (1 Bft) 97,56 %
24.09.2017 01:06 10,4 C 13,3 C 91 % 1019,2 hPa 0,0 l/m 2,9 km/h (1 Bft) S-SO 154 0 min 0,000 mm 0,0 UV-I 0 W/m 9,0 C 10,4 C 4,8 km/h (1 Bft) 98,11 %
24.09.2017 01:08 10,3 C 13,3 C 91 % 1019,1 hPa 0,0 l/m 0,5 km/h (0 Bft) S-SO 154 0 min 0,000 mm 0,0 UV-I 0 W/m 8,9 C 10,3 C 1,6 km/h (1 Bft) 98,00 %
24.09.2017 01:10 10,3 C 13,3 C 91 % 1019,1 hPa 0,0 l/m 0,1 km/h (0 Bft) S-SO 154 0 min 0,000 mm 0,0 UV-I 0 W/m 8,9 C 10,3 C 1,6 km/h (1 Bft) 94,29 %
24.09.2017 01:12 10,3 C 13,3 C 91 % 1019,1 hPa 0,0 l/m 1,6 km/h (1 Bft) S-SO 154 0 min 0,000 mm 0,0 UV-I 0 W/m 8,9 C 10,3 C 4,8 km/h (1 Bft) 96,43 %
24.09.2017 01:14 10,3 C 13,3 C 91 % 1019,1 hPa 0,0 l/m 3,7 km/h (1 Bft) S-SO 154 0 min 0,000 mm 0,0 UV-I 0 W/m 8,9 C 10,3 C 4,8 km/h (1 Bft) 97,56 %
24.09.2017 01:16 10,3 C 13,3 C 91 % 1019,1 hPa 0,0 l/m 2,5 km/h (1 Bft) S-SO 154 0 min 0,000 mm 0,0 UV-I 0 W/m 8,9 C 10,3 C 3,2 km/h (1 Bft) 98,00 %
24.09.2017 01:18 10,2 C 13,3 C 91 % 1019,1 hPa 0,0 l/m 0,2 km/h (0 Bft) S-SO 154 0 min 0,000 mm 0,0 UV-I 0 W/m 8,8 C 10,2 C 1,6 km/h (1 Bft) 98,11 %
24.09.2017 01:20 10,1 C 13,3 C 91 % 1019,1 hPa 0,0 l/m 0,0 km/h (0 Bft) S-SO 154 0 min 0,000 mm 0,0 UV-I 0 W/m 8,7 C 10,1 C 0,0 km/h (0 Bft) 97,14 %
24.09.2017 01:22 10,1 C 13,3 C 92 % 1019,1 hPa 0,0 l/m 2,0 km/h (1 Bft) S-SO 160 0 min 0,000 mm 0,0 UV-I 0 W/m 8,9 C 10,1 C 8,0 km/h (2 Bft) 95,74 %
24.09.2017 01:24 10,0 C 13,3 C 91 % 1019,1 hPa 0,0 l/m 0,9 km/h (0 Bft) S-SO 160 0 min 0,000 mm 0,0 UV-I 0 W/m 8,6 C 10,0 C 3,2 km/h (1 Bft) 98,21 %
24.09.2017 01:26 9,9 C 13,3 C 92 % 1019,1 hPa 0,0 l/m 0,5 km/h (0 Bft) S-SO 160 0 min 0,000 mm 0,0 UV-I 0 W/m 8,7 C 9,9 C 3,2 km/h (1 Bft) 95,74 %
24.09.2017 01:28 9,9 C 13,3 C 92 % 1019,1 hPa 0,0 l/m 1,2 km/h (1 Bft) S-SO 160 0 min 0,000 mm 0,0 UV-I 0 W/m 8,7 C 9,9 C 3,2 km/h (1 Bft) 97,37 %
24.09.2017 01:30 9,9 C 13,3 C 92 % 1019,1 hPa 0,0 l/m 0,3 km/h (0 Bft) S-SO 160 0 min 0,000 mm 0,0 UV-I 0 W/m 8,7 C 9,9 C 1,6 km/h (1 Bft) 98,21 %
24.09.2017 01:32 9,8 C 13,3 C 92 % 1019,1 hPa 0,0 l/m 0,0 km/h (0 Bft) S-SO 160 0 min 0,000 mm 0,0 UV-I 0 W/m 8,6 C 9,8 C 0,0 km/h (0 Bft) 95,74 %
24.09.2017 01:34 9,8 C 13,3 C 92 % 1019,2 hPa 0,0 l/m 2,4 km/h (1 Bft) W-SW 243 0 min 0,000 mm 0,0 UV-I 0 W/m 8,6 C 9,8 C 3,2 km/h (1 Bft) 97,87 %
24.09.2017 01:36 9,8 C 13,3 C 92 % 1019,2 hPa 0,0 l/m 2,5 km/h (1 Bft) W-SW 244 0 min 0,000 mm 0,0 UV-I 0 W/m 8,6 C 9,8 C 3,2 km/h (1 Bft) 92,59 %
24.09.2017 01:38 9,8 C 13,3 C 92 % 1019,2 hPa 0,0 l/m 2,4 km/h (1 Bft) W-SW 244 0 min 0,000 mm 0,0 UV-I 0 W/m 8,6 C 9,8 C 3,2 km/h (1 Bft) 97,01 %
24.09.2017 01:40 9,8 C 13,3 C 92 % 1019,2 hPa 0,0 l/m 0,4 km/h (0 Bft) W-SW 244 0 min 0,000 mm 0,0 UV-I 0 W/m 8,6 C 9,8 C 1,6 km/h (1 Bft) 97,44 %
24.09.2017 01:42 9,7 C 13,3 C 93 % 1019,2 hPa 0,0 l/m 0,0 km/h (0 Bft) W-SW 244 0 min 0,000 mm 0,0 UV-I 0 W/m 8,6 C 9,7 C 0,0 km/h (0 Bft) 98,00 %
24.09.2017 01:44 9,7 C 13,3 C 93 % 1019,2 hPa 0,0 l/m 0,0 km/h (0 Bft) W-SW 244 0 min 0,000 mm 0,0 UV-I 0 W/m 8,6 C 9,7 C 0,0 km/h (0 Bft) 97,56 %
24.09.2017 01:46 9,6 C 13,3 C 93 % 1019,2 hPa 0,0 l/m 0,0 km/h (0 Bft) W-SW 244 0 min 0,000 mm 0,0 UV-I 0 W/m 8,5 C 9,6 C 0,0 km/h (0 Bft) 97,92 %
24.09.2017 01:48 9,6 C 13,3 C 93 % 1019,2 hPa 0,0 l/m 0,0 km/h (0 Bft) W-SW 244 0 min 0,000 mm 0,0 UV-I 0 W/m 8,5 C 9,6 C 0,0 km/h (0 Bft) 95,74 %
24.09.2017 01:50 9,4 C 13,3 C 93 % 1019,1 hPa 0,0 l/m 0,0 km/h (0 Bft) W-SW 244 0 min 0,000 mm 0,0 UV-I 0 W/m 8,3 C 9,4 C 0,0 km/h (0 Bft) 98,11 %
24.09.2017 01:52 9,4 C 13,3 C 93 % 1019,1 hPa 0,0 l/m 0,0 km/h (0 Bft) W-SW 244 0 min 0,000 mm 0,0 UV-I 0 W/m 8,3 C 9,4 C 1,6 km/h (1 Bft) 97,87 %
24.09.2017 01:54 9,4 C 13,3 C 93 % 1019,1 hPa 0,0 l/m 0,0 km/h (0 Bft) W-SW 244 0 min 0,000 mm 0,0 UV-I 0 W/m 8,3 C 9,4 C 0,0 km/h (0 Bft) 98,00 %
24.09.2017 01:56 9,5 C 13,3 C 93 % 1019,1 hPa 0,0 l/m 0,0 km/h (0 Bft) W-SW 241 0 min 0,000 mm 0,0 UV-I 0 W/m 8,4 C 9,5 C 0,0 km/h (0 Bft) 94,74 %
24.09.2017 01:58 9,5 C 13,3 C 94 % 1019,2 hPa 0,0 l/m 1,2 km/h (1 Bft) W-SW 241 0 min 0,000 mm 0,0 UV-I 0 W/m 8,6 C 9,5 C 3,2 km/h (1 Bft) 98,00 %
24.09.2017 02:00 9,5 C 13,3 C 93 % 1019,1 hPa 0,0 l/m 1,6 km/h (1 Bft) W-SW 241 0 min 0,000 mm 0,0 UV-I 0 W/m 8,4 C 9,5 C 3,2 km/h (1 Bft) 95,74 %
24.09.2017 02:02 9,5 C 13,3 C 93 % 1019,0 hPa 0,0 l/m 0,4 km/h (0 Bft) W-SW 241 0 min 0,000 mm 0,0 UV-I 0 W/m 8,4 C 9,5 C 1,6 km/h (1 Bft) 98,00 %
24.09.2017 02:04 9,5 C 13,3 C 94 % 1019,1 hPa 0,0 l/m 1,1 km/h (1 Bft) W-SW 241 0 min 0,000 mm 0,0 UV-I 0 W/m 8,6 C 9,5 C 3,2 km/h (1 Bft) 97,87 %
24.09.2017 02:06 9,6 C 13,3 C 94 % 1019,1 hPa 0,0 l/m 1,8 km/h (1 Bft) W-SW 241 0 min 0,000 mm 0,0 UV-I 0 W/m 8,7 C 9,6 C 3,2 km/h (1 Bft) 95,74 %
24.09.2017 02:08 9,6 C 13,3 C 94 % 1019,1 hPa 0,0 l/m 1,2 km/h (1 Bft) W-SW 241 0 min 0,000 mm 0,0 UV-I 0 W/m 8,7 C 9,6 C 1,6 km/h (1 Bft) 97,37 %
24.09.2017 02:10 9,6 C 13,3 C 94 % 1019,0 hPa 0,0 l/m 2,9 km/h (1 Bft) S-SW 202 0 min 0,000 mm 0,0 UV-I 0 W/m 8,7 C 9,6 C 4,8 km/h (1 Bft) 98,11 %
24.09.2017 02:12 9,6 C 13,3 C 94 % 1019,0 hPa 0,0 l/m 2,2 km/h (1 Bft) S-SW 202 0 min 0,000 mm 0,0 UV-I 0 W/m 8,7 C 9,6 C 4,8 km/h (1 Bft) 98,04 %
24.09.2017 02:14 9,5 C 13,3 C 94 % 1019,1 hPa 0,0 l/m 0,6 km/h (0 Bft) S-SW 202 0 min 0,000 mm 0,0 UV-I 0 W/m 8,6 C 9,5 C 1,6 km/h (1 Bft) 97,87 %
24.09.2017 02:16 9,5 C 13,3 C 94 % 1019,0 hPa 0,0 l/m 0,8 km/h (0 Bft) S-SW 202 0 min 0,000 mm 0,0 UV-I 0 W/m 8,6 C 9,5 C 3,2 km/h (1 Bft) 97,87 %
24.09.2017 02:18 9,5 C 13,3 C 94 % 1019,0 hPa 0,0 l/m 1,8 km/h (1 Bft) S-SW 202 0 min 0,000 mm 0,0 UV-I 0 W/m 8,6 C 9,5 C 3,2 km/h (1 Bft) 97,44 %
24.09.2017 02:20 9,4 C 13,3 C 94 % 1019,0 hPa 0,0 l/m 2,3 km/h (1 Bft) S-SW 202 0 min 0,000 mm 0,0 UV-I 0 W/m 8,5 C 9,4 C 4,8 km/h (1 Bft) 100,00 %
24.09.2017 02:22 9,4 C 13,3 C 94 % 1019,0 hPa 0,0 l/m 3,4 km/h (1 Bft) S-SW 202 0 min 0,000 mm 0,0 UV-I 0 W/m 8,5 C 9,4 C 4,8 km/h (1 Bft) 100,00 %
24.09.2017 02:24 9,4 C 13,3 C 94 % 1019,0 hPa 0,0 l/m 0,8 km/h (0 Bft) S-SW 202 0 min 0,000 mm 0,0 UV-I 0 W/m 8,5 C 9,4 C 3,2 km/h (1 Bft) 100,00 %
24.09.2017 02:26 9,3 C 13,3 C 94 % 1019,0 hPa 0,0 l/m 0,4 km/h (0 Bft) S-SW 202 0 min 0,000 mm 0,0 UV-I 0 W/m 8,4 C 9,3 C 3,2 km/h (1 Bft) 95,74 %
24.09.2017 02:28 9,3 C 13,3 C 94 % 1019,0 hPa 0,0 l/m 3,4 km/h (1 Bft) S-SW 202 0 min 0,000 mm 0,0 UV-I 0 W/m 8,4 C 9,3 C 6,4 km/h (2 Bft) 100,00 %
24.09.2017 02:30 9,3 C 13,3 C 94 % 1019,0 hPa 0,0 l/m 3,7 km/h (1 Bft) S-SW 202 0 min 0,000 mm 0,0 UV-I 0 W/m 8,4 C 9,3 C 4,8 km/h (1 Bft) 100,00 %
24.09.2017 02:32 9,2 C 13,3 C 93 % 1019,0 hPa 0,0 l/m 3,4 km/h (1 Bft) S-SW 202 0 min 0,000 mm 0,0 UV-I 0 W/m 8,1 C 9,2 C 4,8 km/h (1 Bft) 100,00 %
24.09.2017 02:34 9,1 C 13,3 C 93 % 1019,0 hPa 0,0 l/m 2,1 km/h (1 Bft) S-SW 202 0 min 0,000 mm 0,0 UV-I 0 W/m 8,0 C 9,1 C 3,2 km/h (1 Bft) 98,11 %
24.09.2017 02:36 9,0 C 13,3 C 94 % 1019,0 hPa 0,0 l/m 1,8 km/h (1 Bft) S-SW 202 0 min 0,000 mm 0,0 UV-I 0 W/m 8,1 C 9,0 C 3,2 km/h (1 Bft) 100,00 %
24.09.2017 02:38 9,0 C 13,3 C 94 % 1019,0 hPa 0,0 l/m 1,8 km/h (1 Bft) S-SW 200 0 min 0,000 mm 0,0 UV-I 0 W/m 8,1 C 9,0 C 4,8 km/h (1 Bft) 100,00 %
24.09.2017 02:40 8,9 C 13,3 C 94 % 1019,0 hPa 0,0 l/m 2,2 km/h (1 Bft) S-SW 198 0 min 0,000 mm 0,0 UV-I 0 W/m 8,0 C 8,9 C 3,2 km/h (1 Bft) 100,00 %
24.09.2017 02:42 8,9 C 13,3 C 94 % 1019,0 hPa 0,0 l/m 3,4 km/h (1 Bft) S-SO 160 0 min 0,000 mm 0,0 UV-I 0 W/m 8,0 C 8,9 C 6,4 km/h (2 Bft) 100,00 %
24.09.2017 02:44 9,0 C 13,3 C 94 % 1019,0 hPa 0,0 l/m 2,7 km/h (1 Bft) S-SO 167 0 min 0,000 mm 0,0 UV-I 0 W/m 8,1 C 9,0 C 6,4 km/h (2 Bft) 100,00 %
24.09.2017 02:46 9,1 C 13,3 C 94 % 1019,0 hPa 0,0 l/m 1,3 km/h (1 Bft) S-SO 167 0 min 0,000 mm 0,0 UV-I 0 W/m 8,2 C 9,1 C 4,8 km/h (1 Bft) 100,00 %
24.09.2017 02:48 9,1 C 13,3 C 94 % 1019,0 hPa 0,0 l/m 0,0 km/h (0 Bft) S-SO 167 0 min 0,000 mm 0,0 UV-I 0 W/m 8,2 C 9,1 C 0,0 km/h (0 Bft) 100,00 %
24.09.2017 02:50 9,1 C 13,3 C 94 % 1019,0 hPa 0,0 l/m 0,0 km/h (0 Bft) S-SO 167 0 min 0,000 mm 0,0 UV-I 0 W/m 8,2 C 9,1 C 0,0 km/h (0 Bft) 98,11 %
24.09.2017 02:52 9,1 C 13,3 C 94 % 1018,9 hPa 0,0 l/m 1,8 km/h (1 Bft) S-SO 167 0 min 0,000 mm 0,0 UV-I 0 W/m 8,2 C 9,1 C 6,4 km/h (2 Bft) 97,44 %
24.09.2017 02:54 9,2 C 13,3 C 94 % 1019,0 hPa 0,0 l/m 1,7 km/h (1 Bft) S-SO 167 0 min 0,000 mm 0,0 UV-I 0 W/m 8,3 C 9,2 C 4,8 km/h (1 Bft) 95,74 %
24.09.2017 02:56 9,2 C 13,3 C 94 % 1019,0 hPa 0,0 l/m 2,7 km/h (1 Bft) S-SO 167 0 min 0,000 mm 0,0 UV-I 0 W/m 8,3 C 9,2 C 4,8 km/h (1 Bft) 97,87 %
24.09.2017 02:58 9,2 C 13,3 C 94 % 1019,0 hPa 0,0 l/m 2,3 km/h (1 Bft) S-SO 167 0 min 0,000 mm 0,0 UV-I 0 W/m 8,3 C 9,2 C 4,8 km/h (1 Bft) 96,00 %
24.09.2017 03:00 9,2 C 13,3 C 94 % 1019,1 hPa 0,0 l/m 2,0 km/h (1 Bft) S-SO 167 0 min 0,000 mm 0,0 UV-I 0 W/m 8,3 C 9,2 C 4,8 km/h (1 Bft) 98,00 %
24.09.2017 03:02 9,1 C 13,3 C 94 % 1019,1 hPa 0,0 l/m 0,1 km/h (0 Bft) S-SO 167 0 min 0,000 mm 0,0 UV-I 0 W/m 8,2 C 9,1 C 1,6 km/h (1 Bft) 97,87 %
24.09.2017 03:04 9,1 C 13,3 C 94 % 1019,0 hPa 0,0 l/m 0,0 km/h (0 Bft) S-SO 167 0 min 0,000 mm 0,0 UV-I 0 W/m 8,2 C 9,1 C 0,0 km/h (0 Bft) 98,00 %
24.09.2017 03:06 9,0 C 13,3 C 94 % 1019,0 hPa 0,0 l/m 0,0 km/h (0 Bft) S-SO 167 0 min 0,000 mm 0,0 UV-I 0 W/m 8,1 C 9,0 C 0,0 km/h (0 Bft) 96,15 %
24.09.2017 03:08 8,9 C 13,3 C 94 % 1019,0 hPa 0,0 l/m 0,0 km/h (0 Bft) S-SO 167 0 min 0,000 mm 0,0 UV-I 0 W/m 8,0 C 8,9 C 0,0 km/h (0 Bft) 96,77 %
24.09.2017 03:10 8,8 C 13,3 C 94 % 1019,0 hPa 0,0 l/m 0,4 km/h (0 Bft) S-SO 167 0 min 0,000 mm 0,0 UV-I 0 W/m 7,9 C 8,8 C 4,8 km/h (1 Bft) 98,11 %
24.09.2017 03:12 8,8 C 13,3 C 94 % 1019,0 hPa 0,0 l/m 3,5 km/h (1 Bft) S-SO 167 0 min 0,000 mm 0,0 UV-I 0 W/m 7,9 C 8,8 C 6,4 km/h (2 Bft) 97,37 %
24.09.2017 03:14 8,7 C 13,3 C 94 % 1019,0 hPa 0,0 l/m 3,7 km/h (1 Bft) S-SO 167 0 min 0,000 mm 0,0 UV-I 0 W/m 7,8 C 8,7 C 6,4 km/h (2 Bft) 95,74 %
24.09.2017 03:16 8,6 C 13,3 C 94 % 1019,0 hPa 0,0 l/m 3,2 km/h (1 Bft) S-SO 167 0 min 0,000 mm 0,0 UV-I 0 W/m 7,7 C 8,6 C 6,4 km/h (2 Bft) 96,43 %
24.09.2017 03:18 8,6 C 13,3 C 94 % 1019,0 hPa 0,0 l/m 2,4 km/h (1 Bft) S-SO 167 0 min 0,000 mm 0,0 UV-I 0 W/m 7,7 C 8,6 C 4,8 km/h (1 Bft) 97,37 %
24.09.2017 03:20 8,6 C 13,3 C 94 % 1019,0 hPa 0,0 l/m 0,5 km/h (0 Bft) S-SO 167 0 min 0,000 mm 0,0 UV-I 0 W/m 7,7 C 8,6 C 1,6 km/h (1 Bft) 93,62 %
24.09.2017 03:22 8,6 C 13,3 C 94 % 1019,1 hPa 0,0 l/m 0,0 km/h (0 Bft) S-SO 167 0 min 0,000 mm 0,0 UV-I 0 W/m 7,7 C 8,6 C 0,0 km/h (0 Bft) 98,00 %
24.09.2017 03:24 8,6 C 13,3 C 94 % 1019,1 hPa 0,0 l/m 1,4 km/h (1 Bft) S-SO 167 0 min 0,000 mm 0,0 UV-I 0 W/m 7,7 C 8,6 C 4,8 km/h (1 Bft) 97,37 %
24.09.2017 03:26 8,6 C 13,3 C 95 % 1019,0 hPa 0,0 l/m 2,4 km/h (1 Bft) S-SO 167 0 min 0,000 mm 0,0 UV-I 0 W/m 7,8 C 8,6 C 4,8 km/h (1 Bft) 98,11 %
24.09.2017 03:28 8,6 C 13,3 C 95 % 1019,0 hPa 0,0 l/m 2,1 km/h (1 Bft) S-SO 167 0 min 0,000 mm 0,0 UV-I 0 W/m 7,8 C 8,6 C 6,4 km/h (2 Bft) 100,00 %
24.09.2017 03:30 8,6 C 13,3 C 94 % 1019,0 hPa 0,0 l/m 2,1 km/h (1 Bft) S-SO 167 0 min 0,000 mm 0,0 UV-I 0 W/m 7,7 C 8,6 C 4,8 km/h (1 Bft) 100,00 %
24.09.2017 03:32 8,6 C 13,3 C 95 % 1019,0 hPa 0,0 l/m 1,4 km/h (1 Bft) S-SO 167 0 min 0,000 mm 0,0 UV-I 0 W/m 7,8 C 8,6 C 4,8 km/h (1 Bft) 100,00 %
24.09.2017 03:34 8,6 C 12,8 C 95 % 1019,0 hPa 0,0 l/m 0,3 km/h (0 Bft) S-SO 167 0 min 0,000 mm 0,0 UV-I 0 W/m 7,8 C 8,6 C 1,6 km/h (1 Bft) 97,87 %
24.09.2017 03:36 8,7 C 13,3 C 95 % 1019,0 hPa 0,0 l/m 0,0 km/h (0 Bft) S-SO 167 0 min 0,000 mm 0,0 UV-I 0 W/m 7,9 C 8,7 C 0,0 km/h (0 Bft) 98,18 %
24.09.2017 03:38 8,7 C 13,3 C 95 % 1019,0 hPa 0,0 l/m 0,5 km/h (0 Bft) S-SO 167 0 min 0,000 mm 0,0 UV-I 0 W/m 7,9 C 8,7 C 1,6 km/h (1 Bft) 100,00 %
24.09.2017 03:40 8,7 C 13,3 C 95 % 1019,0 hPa 0,0 l/m 0,2 km/h (0 Bft) S-SO 167 0 min 0,000 mm 0,0 UV-I 0 W/m 7,9 C 8,7 C 1,6 km/h (1 Bft) 98,00 %
24.09.2017 03:42 8,7 C 13,3 C 95 % 1019,0 hPa 0,0 l/m 0,0 km/h (0 Bft) S-SO 167 0 min 0,000 mm 0,0 UV-I 0 W/m 7,9 C 8,7 C 0,0 km/h (0 Bft) 100,00 %
24.09.2017 03:44 8,7 C 12,8 C 95 % 1019,0 hPa 0,0 l/m 1,2 km/h (1 Bft) S-SO 167 0 min 0,000 mm 0,0 UV-I 0 W/m 7,9 C 8,7 C 4,8 km/h (1 Bft) 97,56 %
24.09.2017 03:46 8,7 C 12,8 C 95 % 1019,0 hPa 0,0 l/m 2,1 km/h (1 Bft) S-SO 167 0 min 0,000 mm 0,0 UV-I 0 W/m 7,9 C 8,7 C 4,8 km/h (1 Bft) 100,00 %
24.09.2017 03:48 8,7 C 12,8 C 95 % 1019,0 hPa 0,0 l/m 3,7 km/h (1 Bft) S-SO 167 0 min 0,000 mm 0,0 UV-I 0 W/m 7,9 C 8,7 C 6,4 km/h (2 Bft) 100,00 %
24.09.2017 03:50 8,6 C 12,8 C 94 % 1018,9 hPa 0,0 l/m 4,3 km/h (1 Bft) S-SO 168 0 min 0,000 mm 0,0 UV-I 0 W/m 7,7 C 8,6 C 6,4 km/h (2 Bft) 100,00 %
24.09.2017 03:52 8,6 C 12,8 C 94 % 1018,9 hPa 0,0 l/m 3,1 km/h (1 Bft) S 169 0 min 0,000 mm 0,0 UV-I 0 W/m 7,7 C 8,6 C 6,4 km/h (2 Bft) 97,56 %
24.09.2017 03:54 8,6 C 12,8 C 95 % 1018,9 hPa 0,0 l/m 2,2 km/h (1 Bft) S 169 0 min 0,000 mm 0,0 UV-I 0 W/m 7,8 C 8,6 C 6,4 km/h (2 Bft) 100,00 %
24.09.2017 03:56 8,6 C 12,8 C 95 % 1018,9 hPa 0,0 l/m 1,6 km/h (1 Bft) S 169 0 min 0,000 mm 0,0 UV-I 0 W/m 7,8 C 8,6 C 3,2 km/h (1 Bft) 100,00 %
24.09.2017 03:58 8,6 C 12,8 C 95 % 1018,8 hPa 0,0 l/m 3,0 km/h (1 Bft) S 169 0 min 0,000 mm 0,0 UV-I 0 W/m 7,8 C 8,6 C 6,4 km/h (2 Bft) 100,00 %
24.09.2017 04:00 8,7 C 12,8 C 95 % 1018,9 hPa 0,0 l/m 3,1 km/h (1 Bft) S 169 0 min 0,000 mm 0,0 UV-I 0 W/m 7,9 C 8,7 C 6,4 km/h (2 Bft) 100,00 %
24.09.2017 04:02 8,7 C 12,8 C 95 % 1018,8 hPa 0,0 l/m 2,7 km/h (1 Bft) S 171 0 min 0,000 mm 0,0 UV-I 0 W/m 7,9 C 8,7 C 6,4 km/h (2 Bft) 96,43 %
24.09.2017 04:04 8,7 C 12,8 C 95 % 1018,8 hPa 0,0 l/m 3,5 km/h (1 Bft) S 173 0 min 0,000 mm 0,0 UV-I 0 W/m 7,9 C 8,7 C 6,4 km/h (2 Bft) 100,00 %
24.09.2017 04:06 8,7 C 12,8 C 95 % 1018,9 hPa 0,0 l/m 3,5 km/h (1 Bft) S-SW 192 0 min 0,000 mm 0,0 UV-I 0 W/m 7,9 C 8,7 C 6,4 km/h (2 Bft) 100,00 %
24.09.2017 04:08 8,8 C 12,8 C 95 % 1018,9 hPa 0,0 l/m 4,0 km/h (1 Bft) S 173 0 min 0,000 mm 0,0 UV-I 0 W/m 8,0 C 8,8 C 6,4 km/h (2 Bft) 100,00 %
24.09.2017 04:10 8,8 C 12,8 C 95 % 1018,9 hPa 0,0 l/m 3,4 km/h (1 Bft) S 191 0 min 0,000 mm 0,0 UV-I 0 W/m 8,0 C 8,8 C 4,8 km/h (1 Bft) 100,00 %
24.09.2017 04:12 8,8 C 12,8 C 95 % 1018,9 hPa 0,0 l/m 2,0 km/h (1 Bft) S 191 0 min 0,000 mm 0,0 UV-I 0 W/m 8,0 C 8,8 C 3,2 km/h (1 Bft) 100,00 %
24.09.2017 04:14 8,9 C 12,8 C 95 % 1019,0 hPa 0,0 l/m 1,8 km/h (1 Bft) S 191 0 min 0,000 mm 0,0 UV-I 0 W/m 8,1 C 8,9 C 3,2 km/h (1 Bft) 100,00 %
24.09.2017 04:16 8,9 C 12,8 C 95 % 1019,0 hPa 0,0 l/m 2,2 km/h (1 Bft) S 191 0 min 0,000 mm 0,0 UV-I 0 W/m 8,1 C 8,9 C 3,2 km/h (1 Bft) 100,00 %
24.09.2017 04:18 8,9 C 12,8 C 95 % 1019,0 hPa 0,0 l/m 1,1 km/h (1 Bft) S 191 0 min 0,000 mm 0,0 UV-I 0 W/m 8,1 C 8,9 C 3,2 km/h (1 Bft) 100,00 %
24.09.2017 04:20 8,8 C 12,8 C 94 % 1019,0 hPa 0,0 l/m 2,3 km/h (1 Bft) S 191 0 min 0,000 mm 0,0 UV-I 0 W/m 7,9 C 8,8 C 3,2 km/h (1 Bft) 100,00 %
24.09.2017 04:22 8,7 C 12,8 C 94 % 1018,9 hPa 0,0 l/m 1,7 km/h (1 Bft) S 191 0 min 0,000 mm 0,0 UV-I 0 W/m 7,8 C 8,7 C 4,8 km/h (1 Bft) 100,00 %
24.09.2017 04:24 8,6 C 12,8 C 94 % 1019,0 hPa 0,0 l/m 1,5 km/h (1 Bft) S 190 0 min 0,000 mm 0,0 UV-I 0 W/m 7,7 C 8,6 C 3,2 km/h (1 Bft) 100,00 %
24.09.2017 04:26 8,6 C 12,8 C 94 % 1019,0 hPa 0,0 l/m 1,4 km/h (1 Bft) S 190 0 min 0,000 mm 0,0 UV-I 0 W/m 7,7 C 8,6 C 3,2 km/h (1 Bft) 100,00 %
24.09.2017 04:28 8,5 C 12,8 C 94 % 1019,0 hPa 0,0 l/m 0,2 km/h (0 Bft) S 190 0 min 0,000 mm 0,0 UV-I 0 W/m 7,6 C 8,5 C 1,6 km/h (1 Bft) 100,00 %
24.09.2017 04:30 8,4 C 12,8 C 94 % 1018,9 hPa 0,0 l/m 0,0 km/h (0 Bft) S 190 0 min 0,000 mm 0,0 UV-I 0 W/m 7,5 C 8,4 C 0,0 km/h (0 Bft) 100,00 %
24.09.2017 04:32 8,3 C 12,8 C 94 % 1018,9 hPa 0,0 l/m 0,0 km/h (0 Bft) S 190 0 min 0,000 mm 0,0 UV-I 0 W/m 7,4 C 8,3 C 0,0 km/h (0 Bft) 100,00 %
24.09.2017 04:34 8,3 C 12,8 C 95 % 1019,0 hPa 0,0 l/m 0,0 km/h (0 Bft) S 190 0 min 0,000 mm 0,0 UV-I 0 W/m 7,5 C 8,3 C 0,0 km/h (0 Bft) 100,00 %
24.09.2017 04:36 8,3 C 12,8 C 95 % 1019,0 hPa 0,0 l/m 0,0 km/h (0 Bft) S 190 0 min 0,000 mm 0,0 UV-I 0 W/m 7,5 C 8,3 C 0,0 km/h (0 Bft) 100,00 %
24.09.2017 04:38 8,5 C 12,8 C 95 % 1019,0 hPa 0,0 l/m 0,0 km/h (0 Bft) S 190 0 min 0,000 mm 0,0 UV-I 0 W/m 7,7 C 8,5 C 0,0 km/h (0 Bft) 100,00 %
24.09.2017 04:40 8,6 C 12,8 C 95 % 1019,0 hPa 0,0 l/m 1,5 km/h (1 Bft) S 190 0 min 0,000 mm 0,0 UV-I 0 W/m 7,8 C 8,6 C 3,2 km/h (1 Bft) 100,00 %
24.09.2017 04:42 8,6 C 12,8 C 95 % 1019,1 hPa 0,0 l/m 1,9 km/h (1 Bft) S 190 0 min 0,000 mm 0,0 UV-I 0 W/m 7,8 C 8,6 C 3,2 km/h (1 Bft) 97,56 %
24.09.2017 04:44 8,6 C 12,8 C 95 % 1019,1 hPa 0,0 l/m 3,1 km/h (1 Bft) S 190 0 min 0,000 mm 0,0 UV-I 0 W/m 7,8 C 8,6 C 4,8 km/h (1 Bft) 97,22 %
24.09.2017 04:46 8,6 C 12,8 C 95 % 1019,1 hPa 0,0 l/m 3,0 km/h (1 Bft) S 190 0 min 0,000 mm 0,0 UV-I 0 W/m 7,8 C 8,6 C 4,8 km/h (1 Bft) 98,36 %
24.09.2017 04:48 8,6 C 12,8 C 95 % 1019,1 hPa 0,0 l/m 2,4 km/h (1 Bft) S 190 0 min 0,000 mm 0,0 UV-I 0 W/m 7,8 C 8,6 C 4,8 km/h (1 Bft) 97,73 %
24.09.2017 04:50 8,6 C 12,8 C 94 % 1019,1 hPa 0,0 l/m 1,3 km/h (1 Bft) S 190 0 min 0,000 mm 0,0 UV-I 0 W/m 7,7 C 8,6 C 3,2 km/h (1 Bft) 95,74 %
24.09.2017 04:52 8,6 C 12,8 C 95 % 1019,1 hPa 0,0 l/m 1,1 km/h (1 Bft) S 190 0 min 0,000 mm 0,0 UV-I 0 W/m 7,8 C 8,6 C 3,2 km/h (1 Bft) 98,00 %
24.09.2017 04:54 8,6 C 12,8 C 95 % 1019,1 hPa 0,0 l/m 0,6 km/h (0 Bft) S 190 0 min 0,000 mm 0,0 UV-I 0 W/m 7,8 C 8,6 C 3,2 km/h (1 Bft) 97,62 %
24.09.2017 04:56 8,6 C 12,8 C 95 % 1019,1 hPa 0,0 l/m 0,2 km/h (0 Bft) S 190 0 min 0,000 mm 0,0 UV-I 0 W/m 7,8 C 8,6 C 3,2 km/h (1 Bft) 98,00 %
24.09.2017 04:58 8,6 C 12,8 C 95 % 1019,2 hPa 0,0 l/m 0,4 km/h (0 Bft) S 190 0 min 0,000 mm 0,0 UV-I 0 W/m 7,8 C 8,6 C 1,6 km/h (1 Bft) 95,12 %
24.09.2017 05:00 8,6 C 12,8 C 95 % 1019,2 hPa 0,0 l/m 3,7 km/h (1 Bft) O-NO 67 0 min 0,000 mm 0,0 UV-I 0 W/m 7,8 C 8,6 C 4,8 km/h (1 Bft) 94,34 %
24.09.2017 05:02 8,6 C 12,8 C 95 % 1019,1 hPa 0,0 l/m 3,2 km/h (1 Bft) O-NO 67 0 min 0,000 mm 0,0 UV-I 0 W/m 7,8 C 8,6 C 4,8 km/h (1 Bft) 95,12 %
24.09.2017 05:04 8,6 C 12,8 C 95 % 1019,1 hPa 0,0 l/m 2,3 km/h (1 Bft) O-NO 67 0 min 0,000 mm 0,0 UV-I 0 W/m 7,8 C 8,6 C 3,2 km/h (1 Bft) 96,43 %
24.09.2017 05:06 8,6 C 12,8 C 95 % 1019,1 hPa 0,0 l/m 2,5 km/h (1 Bft) O-NO 67 0 min 0,000 mm 0,0 UV-I 0 W/m 7,8 C 8,6 C 3,2 km/h (1 Bft) 92,11 %
24.09.2017 05:08 8,5 C 12,8 C 95 % 1019,0 hPa 0,0 l/m 0,8 km/h (0 Bft) O-NO 67 0 min 0,000 mm 0,0 UV-I 0 W/m 7,7 C 8,5 C 3,2 km/h (1 Bft) 96,00 %
24.09.2017 05:10 8,4 C 12,8 C 95 % 1019,1 hPa 0,0 l/m 1,4 km/h (1 Bft) O-NO 67 0 min 0,000 mm 0,0 UV-I 0 W/m 7,6 C 8,4 C 3,2 km/h (1 Bft) 94,00 %
24.09.2017 05:12 8,4 C 12,8 C 94 % 1019,0 hPa 0,0 l/m 3,2 km/h (1 Bft) NO 49 0 min 0,000 mm 0,0 UV-I 0 W/m 7,5 C 8,4 C 6,4 km/h (2 Bft) 95,74 %
24.09.2017 05:14 8,3 C 12,8 C 94 % 1019,0 hPa 0,0 l/m 2,2 km/h (1 Bft) NO 49 0 min 0,000 mm 0,0 UV-I 0 W/m 7,4 C 8,3 C 3,2 km/h (1 Bft) 94,00 %
24.09.2017 05:16 8,3 C 12,8 C 95 % 1019,0 hPa 0,0 l/m 0,9 km/h (0 Bft) NO 49 0 min 0,000 mm 0,0 UV-I 0 W/m 7,5 C 8,3 C 3,2 km/h (1 Bft) 95,45 %
24.09.2017 05:18 8,3 C 12,8 C 95 % 1019,0 hPa 0,0 l/m 0,0 km/h (0 Bft) NO 49 0 min 0,000 mm 0,0 UV-I 0 W/m 7,5 C 8,3 C 0,0 km/h (0 Bft) 95,74 %
24.09.2017 05:20 8,3 C 12,8 C 95 % 1019,0 hPa 0,0 l/m 0,4 km/h (0 Bft) NO 49 0 min 0,000 mm 0,0 UV-I 0 W/m 7,5 C 8,3 C 3,2 km/h (1 Bft) 95,12 %
24.09.2017 05:22 8,2 C 12,8 C 95 % 1019,0 hPa 0,0 l/m 2,1 km/h (1 Bft) NO 49 0 min 0,000 mm 0,0 UV-I 0 W/m 7,4 C 8,2 C 3,2 km/h (1 Bft) 94,64 %
24.09.2017 05:24 8,2 C 12,8 C 95 % 1019,0 hPa 0,0 l/m 0,0 km/h (0 Bft) NO 49 0 min 0,000 mm 0,0 UV-I 0 W/m 7,4 C 8,2 C 0,0 km/h (0 Bft) 94,29 %
24.09.2017 05:26 8,2 C 12,8 C 95 % 1019,0 hPa 0,0 l/m 0,0 km/h (0 Bft) NO 49 0 min 0,000 mm 0,0 UV-I 0 W/m 7,4 C 8,2 C 0,0 km/h (0 Bft) 96,00 %
24.09.2017 05:28 8,1 C 12,8 C 95 % 1019,0 hPa 0,0 l/m 0,0 km/h (0 Bft) NO 49 0 min 0,000 mm 0,0 UV-I 0 W/m 7,3 C 8,1 C 0,0 km/h (0 Bft) 95,74 %
24.09.2017 05:30 8,1 C 12,8 C 95 % 1019,0 hPa 0,0 l/m 0,0 km/h (0 Bft) NO 49 0 min 0,000 mm 0,0 UV-I 0 W/m 7,3 C 8,1 C 0,0 km/h (0 Bft) 97,87 %
24.09.2017 05:32 8,1 C 12,8 C 95 % 1019,1 hPa 0,0 l/m 0,3 km/h (0 Bft) O-NO 57 0 min 0,000 mm 0,0 UV-I 0 W/m 7,3 C 8,1 C 1,6 km/h (1 Bft) 95,83 %
24.09.2017 05:34 8,0 C 12,8 C 95 % 1019,0 hPa 0,0 l/m 1,2 km/h (1 Bft) O-NO 77 0 min 0,000 mm 0,0 UV-I 0 W/m 7,2 C 8,0 C 3,2 km/h (1 Bft) 97,37 %
24.09.2017 05:36 8,0 C 12,8 C 95 % 1019,1 hPa 0,0 l/m 1,0 km/h (0 Bft) O-NO 77 0 min 0,000 mm 0,0 UV-I 0 W/m 7,2 C 8,0 C 3,2 km/h (1 Bft) 98,00 %
24.09.2017 05:38 7,9 C 12,8 C 95 % 1019,1 hPa 0,0 l/m 0,3 km/h (0 Bft) O-NO 66 0 min 0,000 mm 0,0 UV-I 0 W/m 7,1 C 7,9 C 1,6 km/h (1 Bft) 98,11 %
24.09.2017 05:40 7,8 C 12,8 C 95 % 1019,1 hPa 0,0 l/m 0,6 km/h (0 Bft) O-NO 66 0 min 0,000 mm 0,0 UV-I 0 W/m 7,0 C 7,8 C 1,6 km/h (1 Bft) 100,00 %
24.09.2017 05:42 7,8 C 12,8 C 95 % 1019,1 hPa 0,0 l/m 0,3 km/h (0 Bft) O-NO 66 0 min 0,000 mm 0,0 UV-I 0 W/m 7,0 C 7,8 C 1,6 km/h (1 Bft) 100,00 %
24.09.2017 05:44 7,7 C 12,8 C 95 % 1019,0 hPa 0,0 l/m 0,0 km/h (0 Bft) O-NO 66 0 min 0,000 mm 0,0 UV-I 0 W/m 7,0 C 7,7 C 0,0 km/h (0 Bft) 100,00 %
24.09.2017 05:46 7,7 C 12,8 C 95 % 1019,0 hPa 0,0 l/m 0,0 km/h (0 Bft) O-NO 66 0 min 0,000 mm 0,0 UV-I 0 W/m 7,0 C 7,7 C 0,0 km/h (0 Bft) 100,00 %
24.09.2017 05:48 7,6 C 12,8 C 95 % 1019,0 hPa 0,0 l/m 0,0 km/h (0 Bft) O-NO 66 0 min 0,000 mm 0,0 UV-I 0 W/m 6,9 C 7,6 C 0,0 km/h (0 Bft) 100,00 %
24.09.2017 05:50 7,6 C 12,8 C 95 % 1019,0 hPa 0,0 l/m 0,0 km/h (0 Bft) O-NO 66 0 min 0,000 mm 0,0 UV-I 0 W/m 6,9 C 7,6 C 0,0 km/h (0 Bft) 100,00 %
24.09.2017 05:52 7,4 C 12,8 C 95 % 1019,1 hPa 0,0 l/m 0,0 km/h (0 Bft) O-NO 66 0 min 0,000 mm 0,0 UV-I 0 W/m 6,7 C 7,4 C 0,0 km/h (0 Bft) 100,00 %
24.09.2017 05:54 7,4 C 12,8 C 95 % 1019,1 hPa 0,0 l/m 0,0 km/h (0 Bft) O-NO 66 0 min 0,000 mm 0,0 UV-I 0 W/m 6,7 C 7,4 C 0,0 km/h (0 Bft) 100,00 %
24.09.2017 05:56 7,4 C 12,8 C 95 % 1019,1 hPa 0,0 l/m 0,1 km/h (0 Bft) O-NO 66 0 min 0,000 mm 0,0 UV-I 0 W/m 6,7 C 7,4 C 1,6 km/h (1 Bft) 100,00 %
24.09.2017 05:58 7,3 C 12,8 C 95 % 1019,1 hPa 0,0 l/m 0,0 km/h (0 Bft) O-NO 66 0 min 0,000 mm 0,0 UV-I 0 W/m 6,6 C 7,3 C 1,6 km/h (1 Bft) 97,87 %
24.09.2017 06:00 7,3 C 12,8 C 95 % 1019,1 hPa 0,0 l/m 1,3 km/h (1 Bft) O-NO 66 0 min 0,000 mm 0,0 UV-I 0 W/m 6,6 C 7,3 C 3,2 km/h (1 Bft) 100,00 %
24.09.2017 06:02 7,3 C 12,8 C 95 % 1019,1 hPa 0,0 l/m 3,3 km/h (1 Bft) O-NO 78 0 min 0,000 mm 0,0 UV-I 0 W/m 6,6 C 7,3 C 4,8 km/h (1 Bft) 100,00 %
24.09.2017 06:04 7,4 C 12,8 C 95 % 1019,1 hPa 0,0 l/m 3,6 km/h (1 Bft) O-NO 78 0 min 0,000 mm 0,0 UV-I 0 W/m 6,7 C 7,4 C 4,8 km/h (1 Bft) 100,00 %
24.09.2017 06:06 7,6 C 12,8 C 96 % 1019,1 hPa 0,0 l/m 1,4 km/h (1 Bft) O-NO 78 0 min 0,000 mm 0,0 UV-I 0 W/m 7,0 C 7,6 C 3,2 km/h (1 Bft) 100,00 %
24.09.2017 06:08 7,7 C 12,8 C 96 % 1019,2 hPa 0,0 l/m 0,3 km/h (0 Bft) O-NO 78 0 min 0,000 mm 0,0 UV-I 0 W/m 7,1 C 7,7 C 1,6 km/h (1 Bft) 100,00 %
24.09.2017 06:10 7,7 C 12,8 C 96 % 1019,1 hPa 0,0 l/m 1,4 km/h (1 Bft) O-NO 78 0 min 0,000 mm 0,0 UV-I 0 W/m 7,1 C 7,7 C 3,2 km/h (1 Bft) 100,00 %
24.09.2017 06:12 7,7 C 12,8 C 95 % 1019,1 hPa 0,0 l/m 0,6 km/h (0 Bft) O-NO 78 0 min 0,000 mm 0,0 UV-I 0 W/m 7,0 C 7,7 C 1,6 km/h (1 Bft) 100,00 %
24.09.2017 06:14 7,7 C 12,8 C 96 % 1019,2 hPa 0,0 l/m 1,4 km/h (1 Bft) O-NO 78 0 min 0,000 mm 0,0 UV-I 0 W/m 7,1 C 7,7 C 3,2 km/h (1 Bft) 100,00 %
24.09.2017 06:16 7,7 C 12,8 C 95 % 1019,1 hPa 0,0 l/m 0,3 km/h (0 Bft) O-NO 78 0 min 0,000 mm 0,0 UV-I 0 W/m 7,0 C 7,7 C 1,6 km/h (1 Bft) 96,00 %
24.09.2017 06:18 7,7 C 12,8 C 95 % 1019,1 hPa 0,0 l/m 0,0 km/h (0 Bft) O-NO 78 0 min 0,000 mm 0,0 UV-I 0 W/m 7,0 C 7,7 C 1,6 km/h (1 Bft) 98,00 %
24.09.2017 06:20 7,7 C 12,8 C 95 % 1019,1 hPa 0,0 l/m 0,5 km/h (0 Bft) O-NO 78 0 min 0,000 mm 0,0 UV-I 0 W/m 7,0 C 7,7 C 1,6 km/h (1 Bft) 97,56 %
24.09.2017 06:22 7,7 C 12,8 C 95 % 1019,1 hPa 0,0 l/m 2,2 km/h (1 Bft) SO 140 0 min 0,000 mm 0,0 UV-I 0 W/m 7,0 C 7,7 C 4,8 km/h (1 Bft) 100,00 %
24.09.2017 06:24 7,8 C 12,8 C 96 % 1019,1 hPa 0,0 l/m 3,1 km/h (1 Bft) S-SO 157 0 min 0,000 mm 0,0 UV-I 0 W/m 7,2 C 7,8 C 4,8 km/h (1 Bft) 100,00 %
24.09.2017 06:26 7,9 C 12,8 C 96 % 1019,1 hPa 0,0 l/m 3,5 km/h (1 Bft) S-SO 152 0 min 0,000 mm 0,0 UV-I 0 W/m 7,3 C 7,9 C 4,8 km/h (1 Bft) 100,00 %
24.09.2017 06:29 8,2 C 12,8 C 96 % 1019,1 hPa 0,0 l/m 1,4 km/h (1 Bft) S-SO 152 0 min 0,000 mm 0,0 UV-I 0 W/m 7,6 C 8,2 C 4,8 km/h (1 Bft) 100,00 %
24.09.2017 06:30 8,2 C 12,8 C 96 % 1019,2 hPa 0,0 l/m 0,9 km/h (0 Bft) S-SO 152 0 min 0,000 mm 0,0 UV-I 0 W/m 7,6 C 8,2 C 3,2 km/h (1 Bft) 100,00 %
24.09.2017 06:32 8,3 C 12,8 C 96 % 1019,2 hPa 0,0 l/m 2,2 km/h (1 Bft) S-SO 153 0 min 0,000 mm 0,0 UV-I 0 W/m 7,7 C 8,3 C 3,2 km/h (1 Bft) 100,00 %
24.09.2017 06:34 8,3 C 12,8 C 96 % 1019,2 hPa 0,0 l/m 2,0 km/h (1 Bft) S-SO 153 0 min 0,000 mm 0,0 UV-I 0 W/m 7,7 C 8,3 C 3,2 km/h (1 Bft) 100,00 %
24.09.2017 06:36 8,2 C 12,8 C 96 % 1019,2 hPa 0,0 l/m 0,8 km/h (0 Bft) S-SO 153 0 min 0,000 mm 0,0 UV-I 0 W/m 7,6 C 8,2 C 1,6 km/h (1 Bft) 100,00 %
24.09.2017 06:38 8,1 C 12,8 C 95 % 1019,2 hPa 0,0 l/m 0,4 km/h (0 Bft) S-SO 152 0 min 0,000 mm 0,0 UV-I 0 W/m 7,3 C 8,1 C 3,2 km/h (1 Bft) 100,00 %
24.09.2017 06:40 8,1 C 12,8 C 96 % 1019,2 hPa 0,0 l/m 0,1 km/h (0 Bft) S-SO 152 0 min 0,000 mm 0,0 UV-I 0 W/m 7,5 C 8,1 C 1,6 km/h (1 Bft) 100,00 %
24.09.2017 06:42 8,1 C 12,8 C 96 % 1019,2 hPa 0,0 l/m 0,3 km/h (0 Bft) S-SO 153 0 min 0,000 mm 0,0 UV-I 0 W/m 7,5 C 8,1 C 1,6 km/h (1 Bft) 98,11 %
24.09.2017 06:44 8,2 C 12,8 C 96 % 1019,2 hPa 0,0 l/m 0,0 km/h (0 Bft) S-SO 153 0 min 0,000 mm 0,0 UV-I 0 W/m 7,6 C 8,2 C 1,6 km/h (1 Bft) 100,00 %
24.09.2017 06:46 8,2 C 12,8 C 96 % 1019,3 hPa 0,0 l/m 0,8 km/h (0 Bft) S-SO 153 0 min 0,000 mm 0,0 UV-I 0 W/m 7,6 C 8,2 C 3,2 km/h (1 Bft) 97,87 %
24.09.2017 06:48 8,3 C 12,8 C 96 % 1019,3 hPa 0,0 l/m 1,0 km/h (0 Bft) S-SO 152 0 min 0,000 mm 0,0 UV-I 0 W/m 7,7 C 8,3 C 1,6 km/h (1 Bft) 100,00 %
24.09.2017 06:50 8,3 C 12,8 C 96 % 1019,3 hPa 0,0 l/m 0,0 km/h (0 Bft) S-SO 153 0 min 0,000 mm 0,0 UV-I 5 W/m 7,7 C 8,3 C 1,6 km/h (1 Bft) 100,00 %
24.09.2017 06:52 8,3 C 12,8 C 96 % 1019,3 hPa 0,0 l/m 0,6 km/h (0 Bft) S-SO 152 0 min 0,000 mm 0,0 UV-I 5 W/m 7,7 C 8,3 C 1,6 km/h (1 Bft) 95,74 %
24.09.2017 06:54 8,4 C 12,8 C 96 % 1019,3 hPa 0,0 l/m 0,3 km/h (0 Bft) S-SO 153 0 min 0,000 mm 0,0 UV-I 5 W/m 7,8 C 8,4 C 1,6 km/h (1 Bft) 100,00 %
24.09.2017 06:56 8,4 C 12,8 C 96 % 1019,2 hPa 0,0 l/m 2,1 km/h (1 Bft) S-SO 152 0 min 0,000 mm 0,0 UV-I 5 W/m 7,8 C 8,4 C 3,2 km/h (1 Bft) 100,00 %
24.09.2017 06:58 8,5 C 12,8 C 96 % 1019,2 hPa 0,0 l/m 3,2 km/h (1 Bft) S-SO 152 0 min 0,000 mm 0,0 UV-I 5 W/m 7,9 C 8,5 C 4,8 km/h (1 Bft) 100,00 %
24.09.2017 07:00 8,6 C 12,8 C 96 % 1019,2 hPa 0,0 l/m 2,9 km/h (1 Bft) S-SO 152 0 min 0,000 mm 0,0 UV-I 5 W/m 8,0 C 8,6 C 4,8 km/h (1 Bft) 95,74 %
24.09.2017 07:02 8,6 C 12,8 C 96 % 1019,3 hPa 0,0 l/m 1,0 km/h (0 Bft) S-SO 152 0 min 0,000 mm 0,0 UV-I 5 W/m 8,0 C 8,6 C 3,2 km/h (1 Bft) 97,73 %
24.09.2017 07:04 8,6 C 12,8 C 96 % 1019,2 hPa 0,0 l/m 0,0 km/h (0 Bft) S-SO 152 0 min 0,000 mm 0,0 UV-I 5 W/m 8,0 C 8,6 C 1,6 km/h (1 Bft) 98,11 %
24.09.2017 07:06 8,6 C 12,8 C 96 % 1019,2 hPa 0,0 l/m 0,0 km/h (0 Bft) S-SO 152 0 min 0,000 mm 0,0 UV-I 7 W/m 8,0 C 8,6 C 0,0 km/h (0 Bft) 97,87 %
24.09.2017 07:08 8,7 C 12,8 C 96 % 1019,2 hPa 0,0 l/m 0,5 km/h (0 Bft) S-SO 152 0 min 0,000 mm 0,0 UV-I 7 W/m 8,1 C 8,7 C 3,2 km/h (1 Bft) 98,00 %
24.09.2017 07:10 8,7 C 12,8 C 96 % 1019,2 hPa 0,0 l/m 0,7 km/h (0 Bft) S-SO 152 0 min 0,000 mm 0,0 UV-I 7 W/m 8,1 C 8,7 C 3,2 km/h (1 Bft) 95,74 %
24.09.2017 07:12 8,7 C 12,8 C 96 % 1019,2 hPa 0,0 l/m 0,3 km/h (0 Bft) S-SO 152 0 min 0,000 mm 0,0 UV-I 7 W/m 8,1 C 8,7 C 1,6 km/h (1 Bft) 95,74 %
24.09.2017 07:14 8,8 C 12,8 C 96 % 1019,2 hPa 0,0 l/m 1,5 km/h (1 Bft) S-SO 152 0 min 0,000 mm 0,0 UV-I 7 W/m 8,2 C 8,8 C 3,2 km/h (1 Bft) 95,74 %
24.09.2017 07:16 8,8 C 12,8 C 96 % 1019,3 hPa 0,0 l/m 0,5 km/h (0 Bft) S-SO 152 0 min 0,000 mm 0,0 UV-I 7 W/m 8,2 C 8,8 C 3,2 km/h (1 Bft) 96,00 %
24.09.2017 07:18 8,8 C 12,8 C 96 % 1019,3 hPa 0,0 l/m 0,0 km/h (0 Bft) S-SO 152 0 min 0,000 mm 0,0 UV-I 8 W/m 8,2 C 8,8 C 1,6 km/h (1 Bft) 93,62 %
24.09.2017 07:20 8,7 C 12,8 C 96 % 1019,3 hPa 0,0 l/m 0,0 km/h (0 Bft) S-SO 152 0 min 0,000 mm 0,0 UV-I 9 W/m 8,1 C 8,7 C 0,0 km/h (0 Bft) 97,56 %
24.09.2017 07:22 8,7 C 12,8 C 96 % 1019,3 hPa 0,0 l/m 0,1 km/h (0 Bft) S-SO 152 0 min 0,000 mm 0,0 UV-I 9 W/m 8,1 C 8,7 C 1,6 km/h (1 Bft) 97,56 %
24.09.2017 07:24 8,8 C 12,8 C 96 % 1019,3 hPa 0,0 l/m 2,2 km/h (1 Bft) S-SO 152 0 min 0,000 mm 0,0 UV-I 9 W/m 8,2 C 8,8 C 3,2 km/h (1 Bft) 97,87 %
24.09.2017 07:26 8,8 C 12,8 C 96 % 1019,3 hPa 0,0 l/m 0,9 km/h (0 Bft) S-SO 152 0 min 0,000 mm 0,0 UV-I 11 W/m 8,2 C 8,8 C 3,2 km/h (1 Bft) 98,00 %
24.09.2017 07:29 8,8 C 12,8 C 95 % 1019,3 hPa 0,0 l/m 1,8 km/h (1 Bft) S-SO 152 0 min 0,000 mm 0,0 UV-I 11 W/m 8,0 C 8,8 C 3,2 km/h (1 Bft) 97,30 %
24.09.2017 07:30 8,8 C 12,8 C 96 % 1019,3 hPa 0,0 l/m 2,3 km/h (1 Bft) S-SO 152 0 min 0,000 mm 0,0 UV-I 12 W/m 8,2 C 8,8 C 3,2 km/h (1 Bft) 100,00 %
24.09.2017 07:32 8,8 C 12,8 C 96 % 1019,3 hPa 0,0 l/m 1,2 km/h (1 Bft) S-SO 152 0 min 0,000 mm 0,0 UV-I 13 W/m 8,2 C 8,8 C 3,2 km/h (1 Bft) 97,22 %
24.09.2017 07:34 8,8 C 12,8 C 96 % 1019,4 hPa 0,0 l/m 0,1 km/h (0 Bft) S-SO 152 0 min 0,000 mm 0,0 UV-I 15 W/m 8,2 C 8,8 C 1,6 km/h (1 Bft) 98,00 %
24.09.2017 07:36 8,8 C 12,8 C 96 % 1019,4 hPa 0,0 l/m 0,1 km/h (0 Bft) S-SO 152 0 min 0,000 mm 0,0 UV-I 16 W/m 8,2 C 8,8 C 1,6 km/h (1 Bft) 97,73 %
24.09.2017 07:38 8,9 C 12,8 C 96 % 1019,4 hPa 0,0 l/m 0,0 km/h (0 Bft) S-SO 152 0 min 0,000 mm 0,0 UV-I 18 W/m 8,3 C 8,9 C 0,0 km/h (0 Bft) 100,00 %
24.09.2017 07:40 8,9 C 12,8 C 96 % 1019,5 hPa 0,0 l/m 0,3 km/h (0 Bft) S-SO 152 0 min 0,000 mm 0,0 UV-I 22 W/m 8,3 C 8,9 C 1,6 km/h (1 Bft) 100,00 %
24.09.2017 07:42 8,9 C 12,8 C 96 % 1019,5 hPa 0,0 l/m 0,0 km/h (0 Bft) S-SO 152 0 min 0,000 mm 0,0 UV-I 26 W/m 8,3 C 8,9 C 0,0 km/h (0 Bft) 100,00 %
24.09.2017 07:44 8,9 C 12,8 C 96 % 1019,6 hPa 0,0 l/m 0,0 km/h (0 Bft) S-SO 152 0 min 0,000 mm 0,0 UV-I 28 W/m 8,3 C 8,9 C 0,0 km/h (0 Bft) 100,00 %
24.09.2017 07:46 8,9 C 12,8 C 96 % 1019,5 hPa 0,0 l/m 0,2 km/h (0 Bft) S-SO 152 0 min 0,000 mm 0,0 UV-I 31 W/m 8,3 C 8,9 C 1,6 km/h (1 Bft) 97,14 %
24.09.2017 07:48 8,9 C 12,8 C 96 % 1019,5 hPa 0,0 l/m 0,1 km/h (0 Bft) S-SO 152 0 min 0,000 mm 0,0 UV-I 33 W/m 8,3 C 8,9 C 1,6 km/h (1 Bft) 100,00 %
24.09.2017 07:50 9,0 C 12,8 C 96 % 1019,5 hPa 0,0 l/m 0,0 km/h (0 Bft) S-SO 152 0 min 0,000 mm 0,0 UV-I 36 W/m 8,4 C 9,0 C 0,0 km/h (0 Bft) 98,11 %
24.09.2017 07:52 9,1 C 12,8 C 96 % 1019,5 hPa 0,0 l/m 0,0 km/h (0 Bft) S-SO 152 0 min 0,000 mm 0,0 UV-I 38 W/m 8,5 C 9,1 C 0,0 km/h (0 Bft) 100,00 %
24.09.2017 07:54 9,1 C 12,8 C 96 % 1019,5 hPa 0,0 l/m 0,0 km/h (0 Bft) S-SO 152 0 min 0,000 mm 0,0 UV-I 40 W/m 8,5 C 9,1 C 0,0 km/h (0 Bft) 100,00 %
24.09.2017 07:56 9,2 C 12,8 C 96 % 1019,4 hPa 0,0 l/m 0,0 km/h (0 Bft) S-SO 152 0 min 0,000 mm 0,0 UV-I 44 W/m 8,6 C 9,2 C 0,0 km/h (0 Bft) 98,00 %
24.09.2017 07:58 9,3 C 12,8 C 96 % 1019,5 hPa 0,0 l/m 0,1 km/h (0 Bft) S-SO 152 0 min 0,000 mm 0,0 UV-I 47 W/m 8,7 C 9,3 C 1,6 km/h (1 Bft) 100,00 %
24.09.2017 08:00 9,3 C 12,8 C 96 % 1019,5 hPa 0,0 l/m 0,0 km/h (0 Bft) S-SO 152 0 min 0,000 mm 0,0 UV-I 49 W/m 8,7 C 9,3 C 0,0 km/h (0 Bft) 97,87 %
24.09.2017 08:02 9,3 C 12,8 C 96 % 1019,5 hPa 0,0 l/m 0,0 km/h (0 Bft) S-SO 152 0 min 0,000 mm 0,0 UV-I 51 W/m 8,7 C 9,3 C 0,0 km/h (0 Bft) 97,87 %
24.09.2017 08:04 9,4 C 12,8 C 96 % 1019,6 hPa 0,0 l/m 0,0 km/h (0 Bft) S-SO 152 0 min 0,000 mm 0,0 UV-I 54 W/m 8,8 C 9,4 C 0,0 km/h (0 Bft) 98,11 %
24.09.2017 08:06 9,3 C 12,8 C 96 % 1019,6 hPa 0,0 l/m 0,0 km/h (0 Bft) S-SO 152 0 min 0,000 mm 0,0 UV-I 57 W/m 8,7 C 9,3 C 0,0 km/h (0 Bft) 97,87 %
24.09.2017 08:08 9,4 C 12,8 C 96 % 1019,6 hPa 0,0 l/m 0,0 km/h (0 Bft) S-SO 152 0 min 0,000 mm 0,0 UV-I 61 W/m 8,8 C 9,4 C 0,0 km/h (0 Bft) 97,56 %
24.09.2017 08:10 9,4 C 12,8 C 96 % 1019,6 hPa 0,0 l/m 0,0 km/h (0 Bft) S-SO 152 0 min 0,000 mm 0,0 UV-I 63 W/m 8,8 C 9,4 C 0,0 km/h (0 Bft) 97,92 %
24.09.2017 08:12 9,5 C 12,8 C 96 % 1019,5 hPa 0,0 l/m 0,0 km/h (0 Bft) S-SO 152 0 min 0,000 mm 0,0 UV-I 65 W/m 8,9 C 9,5 C 0,0 km/h (0 Bft) 97,44 %
24.09.2017 08:14 9,5 C 12,8 C 96 % 1019,6 hPa 0,0 l/m 0,0 km/h (0 Bft) S-SO 152 0 min 0,000 mm 0,0 UV-I 67 W/m 8,9 C 9,5 C 0,0 km/h (0 Bft) 98,00 %
24.09.2017 08:16 9,6 C 12,8 C 96 % 1019,6 hPa 0,0 l/m 0,0 km/h (0 Bft) S-SO 152 0 min 0,000 mm 0,0 UV-I 69 W/m 9,0 C 9,6 C 0,0 km/h (0 Bft) 98,21 %
24.09.2017 08:18 9,6 C 12,8 C 96 % 1019,7 hPa 0,0 l/m 0,0 km/h (0 Bft) S-SO 152 0 min 0,000 mm 0,0 UV-I 71 W/m 9,0 C 9,6 C 0,0 km/h (0 Bft) 94,74 %
24.09.2017 08:20 9,6 C 12,8 C 96 % 1019,7 hPa 0,0 l/m 0,0 km/h (0 Bft) S-SO 152 0 min 0,000 mm 0,0 UV-I 74 W/m 9,0 C 9,6 C 0,0 km/h (0 Bft) 95,74 %
24.09.2017 08:22 9,6 C 12,8 C 96 % 1019,7 hPa 0,0 l/m 0,0 km/h (0 Bft) S-SO 152 0 min 0,000 mm 0,0 UV-I 77 W/m 9,0 C 9,6 C 0,0 km/h (0 Bft) 96,00 %
24.09.2017 08:24 9,7 C 12,8 C 96 % 1019,7 hPa 0,0 l/m 0,0 km/h (0 Bft) S-SO 152 0 min 0,000 mm 0,0 UV-I 81 W/m 9,1 C 9,7 C 0,0 km/h (0 Bft) 97,87 %
24.09.2017 08:26 9,7 C 12,8 C 96 % 1019,6 hPa 0,0 l/m 0,0 km/h (0 Bft) S-SO 152 0 min 0,000 mm 0,0 UV-I 84 W/m 9,1 C 9,7 C 0,0 km/h (0 Bft) 98,00 %
24.09.2017 08:28 9,8 C 12,8 C 96 % 1019,7 hPa 0,0 l/m 0,0 km/h (0 Bft) S-SO 152 0 min 0,000 mm 0,0 UV-I 87 W/m 9,2 C 9,8 C 0,0 km/h (0 Bft) 97,56 %
24.09.2017 08:30 9,8 C 12,8 C 96 % 1019,7 hPa 0,0 l/m 0,0 km/h (0 Bft) S-SO 152 0 min 0,000 mm 0,0 UV-I 90 W/m 9,2 C 9,8 C 0,0 km/h (0 Bft) 98,00 %
24.09.2017 08:32 9,9 C 12,8 C 95 % 1019,7 hPa 0,0 l/m 0,0 km/h (0 Bft) S-SO 152 0 min 0,000 mm 0,0 UV-I 93 W/m 9,1 C 9,9 C 0,0 km/h (0 Bft) 97,87 %
24.09.2017 08:34 10,0 C 12,8 C 95 % 1019,7 hPa 0,0 l/m 0,0 km/h (0 Bft) S-SO 152 0 min 0,000 mm 0,0 UV-I 97 W/m 9,2 C 10,0 C 0,0 km/h (0 Bft) 97,37 %
24.09.2017 08:36 10,1 C 12,8 C 95 % 1019,8 hPa 0,0 l/m 0,0 km/h (0 Bft) S-SO 152 0 min 0,000 mm 0,0 UV-I 99 W/m 9,3 C 10,1 C 0,0 km/h (0 Bft) 98,00 %
24.09.2017 08:38 10,2 C 12,8 C 95 % 1019,7 hPa 0,0 l/m 0,0 km/h (0 Bft) S-SO 152 0 min 0,000 mm 0,0 UV-I 100 W/m 9,4 C 10,2 C 0,0 km/h (0 Bft) 97,87 %
24.09.2017 08:40 10,2 C 12,8 C 95 % 1019,8 hPa 0,0 l/m 0,0 km/h (0 Bft) S-SO 152 0 min 0,000 mm 0,0 UV-I 101 W/m 9,4 C 10,2 C 0,0 km/h (0 Bft) 96,00 %
24.09.2017 08:42 10,2 C 12,8 C 95 % 1019,8 hPa 0,0 l/m 0,0 km/h (0 Bft) S-SO 152 0 min 0,000 mm 0,0 UV-I 102 W/m 9,4 C 10,2 C 0,0 km/h (0 Bft) 94,34 %
24.09.2017 08:44 10,2 C 12,8 C 95 % 1019,8 hPa 0,0 l/m 0,0 km/h (0 Bft) S-SO 152 0 min 0,000 mm 0,0 UV-I 107 W/m 9,4 C 10,2 C 0,0 km/h (0 Bft) 100,00 %
24.09.2017 08:46 10,2 C 12,8 C 95 % 1019,8 hPa 0,0 l/m 0,0 km/h (0 Bft) S-SO 152 0 min 0,000 mm 0,0 UV-I 115 W/m 9,4 C 10,2 C 0,0 km/h (0 Bft) 96,88 %
24.09.2017 08:48 10,2 C 12,8 C 95 % 1019,9 hPa 0,0 l/m 0,0 km/h (0 Bft) S-SO 152 0 min 0,000 mm 0,0 UV-I 120 W/m 9,4 C 10,2 C 0,0 km/h (0 Bft) 98,00 %
24.09.2017 08:50 10,2 C 12,8 C 94 % 1019,9 hPa 0,0 l/m 0,0 km/h (0 Bft) S-SO 152 0 min 0,000 mm 0,0 UV-I 125 W/m 9,3 C 10,2 C 0,0 km/h (0 Bft) 97,44 %
24.09.2017 08:52 10,2 C 12,8 C 94 % 1019,9 hPa 0,0 l/m 0,0 km/h (0 Bft) S-SO 152 0 min 0,000 mm 0,0 UV-I 130 W/m 9,3 C 10,2 C 0,0 km/h (0 Bft) 98,11 %
24.09.2017 08:54 10,2 C 12,8 C 94 % 1020,0 hPa 0,0 l/m 0,3 km/h (0 Bft) S-SO 152 0 min 0,000 mm 0,0 UV-I 137 W/m 9,3 C 10,2 C 1,6 km/h (1 Bft) 98,00 %
24.09.2017 08:56 10,2 C 12,8 C 94 % 1020,0 hPa 0,0 l/m 0,0 km/h (0 Bft) S-SO 152 0 min 0,000 mm 0,0 UV-I 139 W/m 9,3 C 10,2 C 0,0 km/h (0 Bft) 98,00 %
24.09.2017 08:58 10,3 C 12,8 C 94 % 1020,0 hPa 0,0 l/m 0,0 km/h (0 Bft) S-SO 152 0 min 0,000 mm 0,0 UV-I 141 W/m 9,4 C 10,3 C 0,0 km/h (0 Bft) 97,87 %
24.09.2017 09:00 10,4 C 12,8 C 94 % 1019,9 hPa 0,0 l/m 0,0 km/h (0 Bft) S-SO 152 0 min 0,051 mm 0,0 UV-I 146 W/m 9,5 C 10,4 C 0,0 km/h (0 Bft) 97,56 %
24.09.2017 09:02 10,5 C 12,8 C 94 % 1020,0 hPa 0,0 l/m 0,0 km/h (0 Bft) S-SO 152 0 min 0,000 mm 0,0 UV-I 150 W/m 9,6 C 10,5 C 0,0 km/h (0 Bft) 96,00 %
24.09.2017 09:04 10,5 C 12,8 C 93 % 1019,9 hPa 0,0 l/m 0,5 km/h (0 Bft) S-SO 152 0 min 0,000 mm 0,0 UV-I 165 W/m 9,4 C 10,5 C 3,2 km/h (1 Bft) 92,68 %
24.09.2017 09:06 10,6 C 12,8 C 93 % 1019,9 hPa 0,0 l/m 1,7 km/h (1 Bft) S-SO 152 0 min 0,000 mm 0,0 UV-I 148 W/m 9,5 C 10,6 C 3,2 km/h (1 Bft) 97,87 %
24.09.2017 09:08 10,7 C 12,8 C 93 % 1020,0 hPa 0,0 l/m 1,1 km/h (1 Bft) S-SO 153 0 min 0,000 mm 0,0 UV-I 148 W/m 9,6 C 10,7 C 1,6 km/h (1 Bft) 96,23 %
24.09.2017 09:10 10,8 C 12,8 C 93 % 1019,9 hPa 0,0 l/m 0,5 km/h (0 Bft) S-SO 152 0 min 0,000 mm 0,2 UV-I 148 W/m 9,7 C 10,8 C 1,6 km/h (1 Bft) 97,37 %
24.09.2017 09:12 10,8 C 12,8 C 93 % 1019,9 hPa 0,0 l/m 0,0 km/h (0 Bft) S-SO 152 0 min 0,000 mm 0,5 UV-I 149 W/m 9,7 C 10,8 C 0,0 km/h (0 Bft) 97,87 %
24.09.2017 09:14 10,9 C 12,8 C 92 % 1019,9 hPa 0,0 l/m 0,0 km/h (0 Bft) S-SO 152 0 min 0,000 mm 0,5 UV-I 154 W/m 9,7 C 10,9 C 1,6 km/h (1 Bft) 98,00 %
24.09.2017 09:16 11,1 C 12,8 C 93 % 1019,9 hPa 0,0 l/m 1,2 km/h (1 Bft) S-SO 153 0 min 0,000 mm 0,5 UV-I 158 W/m 10,0 C 11,1 C 3,2 km/h (1 Bft) 96,23 %
24.09.2017 09:18 11,1 C 12,8 C 92 % 1019,9 hPa 0,0 l/m 2,3 km/h (1 Bft) S-SO 153 0 min 0,000 mm 0,5 UV-I 163 W/m 9,8 C 11,1 C 3,2 km/h (1 Bft) 98,00 %
24.09.2017 09:20 11,1 C 12,8 C 92 % 1019,9 hPa 0,0 l/m 1,4 km/h (1 Bft) S-SO 152 0 min 0,000 mm 0,5 UV-I 169 W/m 9,8 C 11,1 C 3,2 km/h (1 Bft) 97,14 %
24.09.2017 09:22 11,1 C 12,8 C 91 % 1019,9 hPa 0,0 l/m 1,6 km/h (1 Bft) S-SO 153 0 min 0,000 mm 0,6 UV-I 176 W/m 9,7 C 11,1 C 3,2 km/h (1 Bft) 98,11 %
24.09.2017 09:24 11,2 C 12,8 C 92 % 1019,9 hPa 0,0 l/m 2,0 km/h (1 Bft) S-SO 153 0 min 0,000 mm 0,6 UV-I 183 W/m 9,9 C 11,2 C 4,8 km/h (1 Bft) 97,56 %
24.09.2017 09:26 11,3 C 12,8 C 92 % 1019,9 hPa 0,0 l/m 1,7 km/h (1 Bft) S-SO 153 0 min 0,000 mm 0,6 UV-I 189 W/m 10,0 C 11,3 C 3,2 km/h (1 Bft) 96,00 %
24.09.2017 09:28 11,3 C 12,8 C 91 % 1019,9 hPa 0,0 l/m 0,9 km/h (0 Bft) S-SO 153 0 min 0,000 mm 0,6 UV-I 199 W/m 9,9 C 11,3 C 3,2 km/h (1 Bft) 97,78 %
24.09.2017 09:30 11,4 C 12,8 C 91 % 1019,9 hPa 0,0 l/m 2,7 km/h (1 Bft) S 175 0 min 0,000 mm 0,7 UV-I 206 W/m 10,0 C 11,4 C 6,4 km/h (2 Bft) 98,00 %
24.09.2017 09:32 11,6 C 12,8 C 92 % 1020,0 hPa 0,0 l/m 3,7 km/h (1 Bft) S-SW 194 0 min 0,000 mm 0,7 UV-I 206 W/m 10,3 C 11,6 C 6,4 km/h (2 Bft) 98,00 %
24.09.2017 09:34 11,6 C 12,8 C 91 % 1020,0 hPa 0,0 l/m 3,1 km/h (1 Bft) S-SW 194 0 min 0,000 mm 0,7 UV-I 202 W/m 10,2 C 11,6 C 6,4 km/h (2 Bft) 95,65 %
24.09.2017 09:36 11,7 C 12,8 C 91 % 1020,0 hPa 0,0 l/m 1,9 km/h (1 Bft) S-SW 194 0 min 0,000 mm 0,7 UV-I 200 W/m 10,3 C 11,7 C 4,8 km/h (1 Bft) 98,46 %
24.09.2017 09:38 11,7 C 12,8 C 91 % 1020,0 hPa 0,0 l/m 2,3 km/h (1 Bft) S-SW 194 0 min 0,000 mm 0,7 UV-I 203 W/m 10,3 C 11,7 C 4,8 km/h (1 Bft) 100,00 %
24.09.2017 09:40 11,8 C 12,8 C 91 % 1020,0 hPa 0,0 l/m 1,3 km/h (1 Bft) S-SW 194 0 min 0,000 mm 0,7 UV-I 209 W/m 10,4 C 11,8 C 4,8 km/h (1 Bft) 100,00 %
24.09.2017 09:42 11,8 C 12,8 C 90 % 1020,0 hPa 0,0 l/m 0,7 km/h (0 Bft) S-SW 194 0 min 0,000 mm 0,8 UV-I 216 W/m 10,2 C 11,8 C 3,2 km/h (1 Bft) 100,00 %
24.09.2017 09:44 11,8 C 12,8 C 90 % 1020,0 hPa 0,0 l/m 0,4 km/h (0 Bft) S-SW 202 0 min 0,000 mm 0,8 UV-I 221 W/m 10,2 C 11,8 C 1,6 km/h (1 Bft) 100,00 %
24.09.2017 09:46 11,8 C 12,8 C 91 % 1020,0 hPa 0,0 l/m 0,3 km/h (0 Bft) S-SW 202 0 min 0,000 mm 0,8 UV-I 229 W/m 10,4 C 11,8 C 1,6 km/h (1 Bft) 100,00 %
24.09.2017 09:48 11,8 C 12,8 C 90 % 1020,0 hPa 0,0 l/m 0,0 km/h (0 Bft) S-SW 202 0 min 0,000 mm 0,9 UV-I 244 W/m 10,2 C 11,8 C 1,6 km/h (1 Bft) 98,00 %
24.09.2017 09:50 12,0 C 12,8 C 91 % 1020,1 hPa 0,0 l/m 1,1 km/h (1 Bft) S-SW 202 2 min 0,000 mm 0,9 UV-I 261 W/m 10,6 C 12,0 C 3,2 km/h (1 Bft) 97,56 %
24.09.2017 09:52 12,1 C 12,8 C 90 % 1020,1 hPa 0,0 l/m 2,4 km/h (1 Bft) S-SW 202 2 min 0,000 mm 0,9 UV-I 278 W/m 10,5 C 12,1 C 3,2 km/h (1 Bft) 100,00 %
24.09.2017 09:54 12,1 C 12,8 C 89 % 1020,1 hPa 0,0 l/m 1,7 km/h (1 Bft) S-SW 202 2 min 0,000 mm 1,0 UV-I 280 W/m 10,3 C 12,1 C 3,2 km/h (1 Bft) 100,00 %
24.09.2017 09:56 12,2 C 12,8 C 90 % 1020,1 hPa 0,0 l/m 1,7 km/h (1 Bft) S-SW 203 2 min 0,000 mm 1,0 UV-I 265 W/m 10,6 C 12,2 C 4,8 km/h (1 Bft) 100,00 %
24.09.2017 09:58 12,3 C 12,8 C 89 % 1020,1 hPa 0,0 l/m 0,6 km/h (0 Bft) S-SW 202 0 min 0,000 mm 1,0 UV-I 255 W/m 10,5 C 12,3 C 3,2 km/h (1 Bft) 100,00 %
24.09.2017 10:00 12,3 C 12,8 C 89 % 1020,2 hPa 0,0 l/m 0,2 km/h (0 Bft) S-SW 202 0 min 0,000 mm 1,0 UV-I 250 W/m 10,5 C 12,3 C 1,6 km/h (1 Bft) 100,00 %
24.09.2017 10:02 12,4 C 12,8 C 89 % 1020,1 hPa 0,0 l/m 0,0 km/h (0 Bft) S-SW 203 0 min 0,101 mm 1,0 UV-I 251 W/m 10,6 C 12,4 C 0,0 km/h (0 Bft) 97,37 %
24.09.2017 10:04 12,5 C 12,8 C 88 % 1020,1 hPa 0,0 l/m 0,0 km/h (0 Bft) S-SW 202 0 min 0,000 mm 1,0 UV-I 256 W/m 10,6 C 12,5 C 1,6 km/h (1 Bft) 100,00 %
24.09.2017 10:06 12,6 C 12,8 C 87 % 1020,1 hPa 0,0 l/m 0,0 km/h (0 Bft) S-SW 203 0 min 0,000 mm 1,0 UV-I 266 W/m 10,5 C 12,6 C 1,6 km/h (1 Bft) 100,00 %
24.09.2017 10:08 12,7 C 12,8 C 88 % 1020,2 hPa 0,0 l/m 0,1 km/h (0 Bft) S-SW 203 2 min 0,000 mm 1,1 UV-I 284 W/m 10,8 C 12,7 C 1,6 km/h (1 Bft) 100,00 %
24.09.2017 10:10 12,7 C 12,8 C 87 % 1020,2 hPa 0,0 l/m 0,2 km/h (0 Bft) S-SW 203 2 min 0,000 mm 1,1 UV-I 294 W/m 10,6 C 12,7 C 1,6 km/h (1 Bft) 100,00 %
24.09.2017 10:12 12,7 C 12,8 C 87 % 1020,2 hPa 0,0 l/m 0,1 km/h (0 Bft) S-SW 203 2 min 0,000 mm 1,2 UV-I 305 W/m 10,6 C 12,7 C 1,6 km/h (1 Bft) 100,00 %
24.09.2017 10:14 12,8 C 12,8 C 87 % 1020,2 hPa 0,0 l/m 0,0 km/h (0 Bft) S-SW 203 2 min 0,000 mm 1,2 UV-I 308 W/m 10,7 C 12,8 C 0,0 km/h (0 Bft) 100,00 %
24.09.2017 10:16 12,9 C 12,8 C 86 % 1020,3 hPa 0,0 l/m 0,5 km/h (0 Bft) S-SW 203 2 min 0,000 mm 1,2 UV-I 313 W/m 10,6 C 12,9 C 3,2 km/h (1 Bft) 100,00 %
24.09.2017 10:18 13,1 C 12,8 C 85 % 1020,2 hPa 0,0 l/m 0,7 km/h (0 Bft) S-SW 202 2 min 0,000 mm 1,2 UV-I 323 W/m 10,6 C 13,1 C 3,2 km/h (1 Bft) 100,00 %
24.09.2017 10:20 13,1 C 12,8 C 86 % 1020,2 hPa 0,0 l/m 0,1 km/h (0 Bft) S-SW 203 2 min 0,000 mm 1,2 UV-I 313 W/m 10,8 C 13,1 C 1,6 km/h (1 Bft) 100,00 %
24.09.2017 10:22 13,2 C 12,8 C 86 % 1020,1 hPa 0,0 l/m 0,4 km/h (0 Bft) S-SW 202 2 min 0,000 mm 1,2 UV-I 310 W/m 10,9 C 13,2 C 3,2 km/h (1 Bft) 100,00 %
24.09.2017 10:24 13,3 C 12,8 C 84 % 1020,2 hPa 0,0 l/m 0,9 km/h (0 Bft) S 172 2 min 0,000 mm 1,2 UV-I 313 W/m 10,7 C 13,3 C 3,2 km/h (1 Bft) 100,00 %
24.09.2017 10:26 13,2 C 12,8 C 83 % 1020,3 hPa 0,0 l/m 3,7 km/h (1 Bft) O-NO 75 2 min 0,000 mm 1,2 UV-I 310 W/m 10,4 C 13,2 C 8,0 km/h (2 Bft) 100,00 %
24.09.2017 10:28 13,2 C 12,8 C 84 % 1020,3 hPa 0,0 l/m 2,6 km/h (1 Bft) O-NO 74 2 min 0,000 mm 1,2 UV-I 310 W/m 10,6 C 13,2 C 6,4 km/h (2 Bft) 100,00 %
24.09.2017 10:30 13,2 C 12,8 C 83 % 1020,3 hPa 0,0 l/m 1,6 km/h (1 Bft) O-NO 74 2 min 0,000 mm 1,2 UV-I 305 W/m 10,4 C 13,2 C 3,2 km/h (1 Bft) 100,00 %
24.09.2017 10:32 13,3 C 12,8 C 85 % 1020,3 hPa 0,0 l/m 1,1 km/h (1 Bft) O-NO 74 2 min 0,000 mm 1,2 UV-I 294 W/m 10,8 C 13,3 C 3,2 km/h (1 Bft) 100,00 %
24.09.2017 10:34 13,5 C 12,8 C 84 % 1020,2 hPa 0,0 l/m 4,4 km/h (1 Bft) NO 55 0 min 0,000 mm 1,2 UV-I 287 W/m 10,8 C 13,5 C 6,4 km/h (2 Bft) 100,00 %
24.09.2017 10:36 13,6 C 12,8 C 83 % 1020,2 hPa 0,0 l/m 3,1 km/h (1 Bft) NO 54 0 min 0,000 mm 1,2 UV-I 289 W/m 10,8 C 13,6 C 4,8 km/h (1 Bft) 100,00 %
24.09.2017 10:38 13,7 C 12,8 C 83 % 1020,2 hPa 0,0 l/m 6,3 km/h (2 Bft) NO 51 0 min 0,000 mm 1,2 UV-I 292 W/m 10,9 C 13,7 C 8,0 km/h (2 Bft) 100,00 %
24.09.2017 10:40 13,7 C 12,8 C 83 % 1020,2 hPa 0,0 l/m 6,7 km/h (2 Bft) NO 51 0 min 0,000 mm 1,2 UV-I 292 W/m 10,9 C 13,5 C 9,7 km/h (2 Bft) 100,00 %
24.09.2017 10:42 13,7 C 12,8 C 82 % 1020,2 hPa 0,0 l/m 4,9 km/h (1 Bft) O-NO 60 0 min 0,000 mm 1,2 UV-I 294 W/m 10,7 C 13,7 C 6,4 km/h (2 Bft) 97,44 %
24.09.2017 10:44 13,8 C 12,8 C 83 % 1020,2 hPa 0,0 l/m 6,0 km/h (2 Bft) NO 46 0 min 0,000 mm 1,3 UV-I 295 W/m 11,0 C 13,8 C 9,7 km/h (2 Bft) 100,00 %
24.09.2017 10:46 13,8 C 12,8 C 82 % 1020,3 hPa 0,0 l/m 5,5 km/h (1 Bft) NO 53 0 min 0,000 mm 1,3 UV-I 292 W/m 10,8 C 13,8 C 8,0 km/h (2 Bft) 100,00 %
24.09.2017 10:48 13,8 C 12,8 C 83 % 1020,3 hPa 0,0 l/m 4,1 km/h (1 Bft) NO 53 0 min 0,000 mm 1,3 UV-I 288 W/m 11,0 C 13,8 C 6,4 km/h (2 Bft) 100,00 %
24.09.2017 10:50 13,8 C 12,8 C 81 % 1020,3 hPa 0,0 l/m 3,2 km/h (1 Bft) O-NO 64 0 min 0,000 mm 1,3 UV-I 285 W/m 10,6 C 13,8 C 6,4 km/h (2 Bft) 100,00 %
24.09.2017 10:52 13,8 C 12,8 C 83 % 1020,3 hPa 0,0 l/m 3,3 km/h (1 Bft) O-NO 64 0 min 0,000 mm 1,3 UV-I 288 W/m 11,0 C 13,8 C 4,8 km/h (1 Bft) 100,00 %
24.09.2017 10:56 13,8 C 12,8 C 82 % 1020,4 hPa 0,0 l/m 2,9 km/h (1 Bft) NO 49 0 min 0,000 mm 1,3 UV-I 289 W/m 10,8 C 13,8 C 4,8 km/h (1 Bft) 97,89 %
24.09.2017 10:58 13,8 C 12,8 C 82 % 1020,4 hPa 0,0 l/m 1,0 km/h (0 Bft) NO 49 0 min 0,000 mm 1,4 UV-I 283 W/m 10,8 C 13,8 C 6,4 km/h (2 Bft) 100,00 %
24.09.2017 11:00 13,8 C 12,8 C 83 % 1020,4 hPa 0,0 l/m 5,0 km/h (1 Bft) NO 55 0 min 0,153 mm 1,4 UV-I 282 W/m 11,0 C 13,8 C 8,0 km/h (2 Bft) 100,00 %
24.09.2017 11:02 13,8 C 12,8 C 81 % 1020,4 hPa 0,0 l/m 3,9 km/h (1 Bft) O-NO 59 0 min 0,000 mm 1,4 UV-I 286 W/m 10,6 C 13,8 C 6,4 km/h (2 Bft) 97,56 %
24.09.2017 11:04 13,9 C 12,8 C 82 % 1020,5 hPa 0,0 l/m 3,7 km/h (1 Bft) O-NO 59 0 min 0,000 mm 1,5 UV-I 291 W/m 10,9 C 13,9 C 4,8 km/h (1 Bft) 94,00 %
24.09.2017 11:06 13,9 C 12,8 C 82 % 1020,5 hPa 0,0 l/m 0,7 km/h (0 Bft) O-NO 59 0 min 0,000 mm 1,5 UV-I 304 W/m 10,9 C 13,9 C 3,2 km/h (1 Bft) 98,00 %
24.09.2017 11:08 13,9 C 12,8 C 83 % 1020,5 hPa 0,0 l/m 4,3 km/h (1 Bft) O-NO 58 2 min 0,000 mm 1,6 UV-I 332 W/m 11,1 C 13,9 C 6,4 km/h (2 Bft) 94,74 %
24.09.2017 11:10 14,0 C 12,8 C 81 % 1020,5 hPa 0,0 l/m 4,4 km/h (1 Bft) O-NO 72 0 min 0,000 mm 1,6 UV-I 316 W/m 10,8 C 14,0 C 6,4 km/h (2 Bft) 98,00 %
24.09.2017 11:12 14,0 C 12,8 C 80 % 1020,4 hPa 0,0 l/m 1,4 km/h (1 Bft) O-NO 72 2 min 0,000 mm 1,6 UV-I 329 W/m 10,6 C 14,0 C 3,2 km/h (1 Bft) 96,23 %
24.09.2017 11:14 14,0 C 12,8 C 82 % 1020,4 hPa 0,0 l/m 2,9 km/h (1 Bft) O-NO 72 2 min 0,000 mm 1,7 UV-I 362 W/m 11,0 C 14,0 C 4,8 km/h (1 Bft) 97,22 %
24.09.2017 11:16 14,1 C 12,8 C 82 % 1020,4 hPa 0,0 l/m 3,9 km/h (1 Bft) O-NO 72 2 min 0,000 mm 1,7 UV-I 410 W/m 11,1 C 14,1 C 6,4 km/h (2 Bft) 98,00 %
24.09.2017 11:18 14,2 C 12,8 C 81 % 1020,4 hPa 0,0 l/m 4,1 km/h (1 Bft) O-NO 71 2 min 0,000 mm 1,7 UV-I 427 W/m 11,0 C 14,2 C 6,4 km/h (2 Bft) 98,00 %
24.09.2017 11:20 14,3 C 12,8 C 83 % 1020,4 hPa 0,0 l/m 3,3 km/h (1 Bft) O-NO 71 2 min 0,000 mm 1,6 UV-I 394 W/m 11,5 C 14,3 C 4,8 km/h (1 Bft) 96,15 %
24.09.2017 11:22 14,3 C 12,8 C 82 % 1020,4 hPa 0,0 l/m 0,4 km/h (0 Bft) O-NO 71 2 min 0,000 mm 1,5 UV-I 356 W/m 11,3 C 14,3 C 1,6 km/h (1 Bft) 97,44 %
24.09.2017 11:24 14,4 C 12,8 C 81 % 1020,3 hPa 0,0 l/m 3,5 km/h (1 Bft) NO 55 0 min 0,000 mm 1,4 UV-I 310 W/m 11,2 C 14,4 C 6,4 km/h (2 Bft) 97,87 %
24.09.2017 11:26 14,3 C 12,8 C 80 % 1020,3 hPa 0,0 l/m 5,3 km/h (1 Bft) O-NO 65 0 min 0,000 mm 1,3 UV-I 287 W/m 10,9 C 14,3 C 6,4 km/h (2 Bft) 98,11 %
24.09.2017 11:28 14,2 C 12,8 C 81 % 1020,3 hPa 0,0 l/m 4,0 km/h (1 Bft) NO 43 0 min 0,000 mm 1,3 UV-I 275 W/m 11,0 C 14,2 C 6,4 km/h (2 Bft) 95,12 %
24.09.2017 11:30 14,1 C 12,8 C 81 % 1020,3 hPa 0,0 l/m 3,8 km/h (1 Bft) N-NO 19 0 min 0,000 mm 1,3 UV-I 268 W/m 10,9 C 14,1 C 6,4 km/h (2 Bft) 97,87 %
24.09.2017 11:32 14,1 C 12,8 C 82 % 1020,3 hPa 0,0 l/m 0,9 km/h (0 Bft) N-NO 19 0 min 0,000 mm 1,3 UV-I 267 W/m 11,1 C 14,1 C 4,8 km/h (1 Bft) 95,74 %
24.09.2017 11:34 14,2 C 12,8 C 83 % 1020,3 hPa 0,0 l/m 3,3 km/h (1 Bft) NO 44 0 min 0,000 mm 1,4 UV-I 268 W/m 11,4 C 14,2 C 4,8 km/h (1 Bft) 96,43 %
24.09.2017 11:36 14,2 C 12,8 C 81 % 1020,2 hPa 0,0 l/m 3,9 km/h (1 Bft) NO 56 0 min 0,000 mm 1,4 UV-I 268 W/m 11,0 C 14,2 C 6,4 km/h (2 Bft) 100,00 %
24.09.2017 11:38 14,2 C 12,8 C 81 % 1020,2 hPa 0,0 l/m 1,5 km/h (1 Bft) NO 56 0 min 0,000 mm 1,4 UV-I 271 W/m 11,0 C 14,2 C 3,2 km/h (1 Bft) 98,11 %
24.09.2017 11:40 14,3 C 12,8 C 82 % 1020,2 hPa 0,0 l/m 1,3 km/h (1 Bft) NO 56 0 min 0,000 mm 1,4 UV-I 276 W/m 11,3 C 14,3 C 3,2 km/h (1 Bft) 100,00 %
24.09.2017 11:42 14,4 C 12,8 C 81 % 1020,2 hPa 0,0 l/m 3,7 km/h (1 Bft) O-NO 63 0 min 0,000 mm 1,4 UV-I 283 W/m 11,2 C 14,4 C 4,8 km/h (1 Bft) 100,00 %
24.09.2017 11:44 14,4 C 12,8 C 81 % 1020,2 hPa 0,0 l/m 2,8 km/h (1 Bft) NO 48 0 min 0,000 mm 1,4 UV-I 287 W/m 11,2 C 14,4 C 6,4 km/h (2 Bft) 100,00 %
24.09.2017 11:46 14,3 C 12,8 C 80 % 1020,2 hPa 0,0 l/m 3,9 km/h (1 Bft) NO 41 0 min 0,000 mm 1,4 UV-I 287 W/m 10,9 C 14,3 C 6,4 km/h (2 Bft) 95,74 %
24.09.2017 11:48 14,3 C 12,8 C 81 % 1020,2 hPa 0,0 l/m 4,2 km/h (1 Bft) NO 41 0 min 0,000 mm 1,5 UV-I 288 W/m 11,1 C 14,3 C 6,4 km/h (2 Bft) 100,00 %
24.09.2017 11:50 14,3 C 12,8 C 80 % 1020,1 hPa 0,0 l/m 1,9 km/h (1 Bft) NO 38 0 min 0,000 mm 1,5 UV-I 290 W/m 10,9 C 14,3 C 4,8 km/h (1 Bft) 97,87 %
24.09.2017 11:52 14,3 C 12,8 C 82 % 1020,2 hPa 0,0 l/m 3,1 km/h (1 Bft) NO 38 0 min 0,000 mm 1,5 UV-I 294 W/m 11,3 C 14,3 C 4,8 km/h (1 Bft) 98,11 %
24.09.2017 11:54 14,4 C 12,8 C 81 % 1020,1 hPa 0,0 l/m 1,1 km/h (1 Bft) NO 38 0 min 0,000 mm 1,5 UV-I 296 W/m 11,2 C 14,4 C 3,2 km/h (1 Bft) 100,00 %
24.09.2017 11:56 14,5 C 12,8 C 82 % 1020,1 hPa 0,0 l/m 2,3 km/h (1 Bft) NO 38 0 min 0,000 mm 1,5 UV-I 292 W/m 11,5 C 14,5 C 4,8 km/h (1 Bft) 100,00 %
24.09.2017 11:58 14,5 C 12,8 C 80 % 1020,1 hPa 0,0 l/m 1,7 km/h (1 Bft) NO 39 0 min 0,000 mm 1,5 UV-I 288 W/m 11,1 C 14,5 C 3,2 km/h (1 Bft) 100,00 %
24.09.2017 12:00 14,5 C 12,8 C 80 % 1020,1 hPa 0,0 l/m 5,1 km/h (1 Bft) O-NO 69 0 min 0,152 mm 1,5 UV-I 292 W/m 11,1 C 14,5 C 8,0 km/h (2 Bft) 100,00 %
24.09.2017 12:02 14,4 C 12,8 C 80 % 1020,1 hPa 0,0 l/m 3,3 km/h (1 Bft) O-NO 69 0 min 0,000 mm 1,5 UV-I 297 W/m 11,0 C 14,4 C 4,8 km/h (1 Bft) 100,00 %
24.09.2017 12:04 14,3 C 12,8 C 79 % 1020,1 hPa 0,0 l/m 2,0 km/h (1 Bft) O-NO 69 0 min 0,000 mm 1,5 UV-I 301 W/m 10,7 C 14,3 C 6,4 km/h (2 Bft) 98,00 %
24.09.2017 12:06 14,4 C 12,8 C 82 % 1020,1 hPa 0,0 l/m 4,9 km/h (1 Bft) O-NO 57 0 min 0,000 mm 1,5 UV-I 306 W/m 11,4 C 14,4 C 6,4 km/h (2 Bft) 98,00 %
24.09.2017 12:08 14,4 C 12,8 C 81 % 1020,0 hPa 0,0 l/m 1,5 km/h (1 Bft) NO 42 0 min 0,000 mm 1,6 UV-I 315 W/m 11,2 C 14,4 C 4,8 km/h (1 Bft) 100,00 %
24.09.2017 12:10 14,4 C 12,8 C 80 % 1020,0 hPa 0,0 l/m 1,4 km/h (1 Bft) N-NO 25 0 min 0,000 mm 1,6 UV-I 328 W/m 11,0 C 14,4 C 4,8 km/h (1 Bft) 100,00 %
24.09.2017 12:12 14,5 C 12,8 C 82 % 1020,0 hPa 0,0 l/m 2,4 km/h (1 Bft) N-NO 25 0 min 0,000 mm 1,7 UV-I 342 W/m 11,5 C 14,5 C 6,4 km/h (2 Bft) 100,00 %
24.09.2017 12:14 14,5 C 12,8 C 80 % 1020,0 hPa 0,0 l/m 0,1 km/h (0 Bft) N-NO 25 0 min 0,000 mm 1,7 UV-I 350 W/m 11,1 C 14,5 C 1,6 km/h (1 Bft) 100,00 %
24.09.2017 12:16 14,6 C 12,8 C 81 % 1020,0 hPa 0,0 l/m 1,2 km/h (1 Bft) N-NO 25 0 min 0,000 mm 1,7 UV-I 352 W/m 11,4 C 14,6 C 3,2 km/h (1 Bft) 100,00 %
24.09.2017 12:18 14,7 C 12,8 C 80 % 1020,1 hPa 0,0 l/m 0,6 km/h (0 Bft) N-NO 25 0 min 0,000 mm 1,8 UV-I 352 W/m 11,3 C 14,7 C 1,6 km/h (1 Bft) 100,00 %
24.09.2017 12:20 14,6 C 12,8 C 79 % 1020,1 hPa 0,0 l/m 0,8 km/h (0 Bft) N-NO 25 0 min 0,000 mm 1,8 UV-I 349 W/m 11,0 C 14,6 C 3,2 km/h (1 Bft) 100,00 %
24.09.2017 12:22 14,7 C 12,8 C 80 % 1020,1 hPa 0,0 l/m 0,1 km/h (0 Bft) N-NO 25 0 min 0,000 mm 1,8 UV-I 339 W/m 11,3 C 14,7 C 1,6 km/h (1 Bft) 100,00 %
24.09.2017 12:24 14,7 C 12,8 C 79 % 1020,1 hPa 0,0 l/m 3,3 km/h (1 Bft) NO 49 0 min 0,000 mm 1,7 UV-I 328 W/m 11,1 C 14,7 C 6,4 km/h (2 Bft) 100,00 %
24.09.2017 12:26 14,9 C 12,8 C 81 % 1020,1 hPa 0,0 l/m 3,5 km/h (1 Bft) NO 49 0 min 0,000 mm 1,7 UV-I 320 W/m 11,7 C 14,9 C 4,8 km/h (1 Bft) 98,11 %
24.09.2017 12:28 14,9 C 12,8 C 79 % 1020,2 hPa 0,0 l/m 1,5 km/h (1 Bft) NO 49 0 min 0,000 mm 1,7 UV-I 321 W/m 11,3 C 14,9 C 3,2 km/h (1 Bft) 100,00 %
24.09.2017 12:30 14,8 C 12,8 C 77 % 1020,1 hPa 0,0 l/m 0,0 km/h (0 Bft) NO 49 0 min 0,000 mm 1,8 UV-I 327 W/m 10,8 C 14,8 C 1,6 km/h (1 Bft) 97,87 %
24.09.2017 12:32 14,7 C 12,8 C 79 % 1020,1 hPa 0,0 l/m 0,1 km/h (0 Bft) NO 49 0 min 0,000 mm 1,8 UV-I 326 W/m 11,1 C 14,7 C 1,6 km/h (1 Bft) 100,00 %
24.09.2017 12:34 14,7 C 12,8 C 79 % 1020,1 hPa 0,0 l/m 0,9 km/h (0 Bft) NO 47 0 min 0,000 mm 1,8 UV-I 309 W/m 11,1 C 14,7 C 3,2 km/h (1 Bft) 100,00 %
24.09.2017 12:36 14,8 C 12,8 C 80 % 1020,0 hPa 0,0 l/m 2,3 km/h (1 Bft) NO 41 0 min 0,000 mm 1,8 UV-I 293 W/m 11,4 C 14,8 C 6,4 km/h (2 Bft) 100,00 %
24.09.2017 12:38 14,9 C 12,8 C 80 % 1020,1 hPa 0,0 l/m 2,5 km/h (1 Bft) NO 41 0 min 0,000 mm 1,8 UV-I 281 W/m 11,5 C 14,9 C 4,8 km/h (1 Bft) 100,00 %
24.09.2017 12:40 14,9 C 12,8 C 80 % 1020,1 hPa 0,0 l/m 0,5 km/h (0 Bft) NO 41 0 min 0,000 mm 1,8 UV-I 277 W/m 11,5 C 14,9 C 1,6 km/h (1 Bft) 100,00 %
24.09.2017 12:42 14,8 C 12,8 C 79 % 1020,0 hPa 0,0 l/m 0,1 km/h (0 Bft) NO 41 0 min 0,000 mm 1,8 UV-I 276 W/m 11,2 C 14,8 C 1,6 km/h (1 Bft) 97,87 %
24.09.2017 12:44 14,8 C 12,8 C 80 % 1020,0 hPa 0,0 l/m 0,3 km/h (0 Bft) NO 41 0 min 0,000 mm 1,8 UV-I 279 W/m 11,4 C 14,8 C 1,6 km/h (1 Bft) 100,00 %
24.09.2017 12:46 14,8 C 12,8 C 79 % 1020,0 hPa 0,0 l/m 0,4 km/h (0 Bft) NO 41 0 min 0,000 mm 1,9 UV-I 289 W/m 11,2 C 14,8 C 1,6 km/h (1 Bft) 100,00 %
24.09.2017 12:48 14,8 C 12,8 C 80 % 1020,0 hPa 0,0 l/m 1,0 km/h (0 Bft) NO 41 0 min 0,000 mm 2,1 UV-I 316 W/m 11,4 C 14,8 C 3,2 km/h (1 Bft) 100,00 %
24.09.2017 12:50 14,9 C 12,8 C 81 % 1020,0 hPa 0,0 l/m 4,1 km/h (1 Bft) NO 50 0 min 0,000 mm 2,3 UV-I 351 W/m 11,7 C 14,9 C 6,4 km/h (2 Bft) 100,00 %
24.09.2017 12:53 15,0 C 12,8 C 78 % 1020,0 hPa 0,0 l/m 1,8 km/h (1 Bft) O-NO 76 0 min 0,000 mm 2,2 UV-I 357 W/m 11,2 C 15,0 C 4,8 km/h (1 Bft) 97,14 %
24.09.2017 12:54 15,1 C 12,8 C 80 % 1020,0 hPa 0,0 l/m 2,8 km/h (1 Bft) O-NO 76 0 min 0,000 mm 2,1 UV-I 360 W/m 11,7 C 15,1 C 4,8 km/h (1 Bft) 100,00 %
24.09.2017 12:56 14,9 C 12,8 C 78 % 1020,0 hPa 0,0 l/m 2,0 km/h (1 Bft) O-NO 76 0 min 0,000 mm 2,0 UV-I 266 W/m 11,1 C 14,9 C 4,8 km/h (1 Bft) 98,11 %
24.09.2017 12:58 14,8 C 12,8 C 78 % 1020,0 hPa 0,0 l/m 0,8 km/h (0 Bft) O-NO 76 0 min 0,000 mm 2,0 UV-I 228 W/m 11,0 C 14,8 C 1,6 km/h (1 Bft) 97,14 %
24.09.2017 13:00 14,7 C 12,8 C 79 % 1020,1 hPa 0,0 l/m 0,1 km/h (0 Bft) O-NO 76 0 min 0,000 mm 2,0 UV-I 219 W/m 11,1 C 14,7 C 1,6 km/h (1 Bft) 96,00 %
24.09.2017 13:02 14,7 C 12,8 C 80 % 1020,0 hPa 0,0 l/m 1,2 km/h (1 Bft) O-NO 76 0 min 0,178 mm 2,1 UV-I 254 W/m 11,3 C 14,7 C 3,2 km/h (1 Bft) 96,00 %
24.09.2017 13:04 14,7 C 12,8 C 81 % 1020,0 hPa 0,0 l/m 0,5 km/h (0 Bft) O-NO 76 0 min 0,000 mm 2,1 UV-I 231 W/m 11,5 C 14,7 C 1,6 km/h (1 Bft) 94,00 %
24.09.2017 13:06 14,8 C 12,8 C 82 % 1020,0 hPa 0,0 l/m 0,2 km/h (0 Bft) O-NO 76 0 min 0,000 mm 2,1 UV-I 262 W/m 11,8 C 14,8 C 1,6 km/h (1 Bft) 92,11 %
24.09.2017 13:08 14,9 C 12,8 C 82 % 1020,0 hPa 0,0 l/m 0,2 km/h (0 Bft) O-NO 76 0 min 0,000 mm 2,2 UV-I 305 W/m 11,9 C 14,9 C 1,6 km/h (1 Bft) 94,64 %
24.09.2017 13:10 15,0 C 12,8 C 82 % 1020,0 hPa 0,0 l/m 0,0 km/h (0 Bft) O-NO 76 0 min 0,000 mm 2,5 UV-I 306 W/m 12,0 C 15,0 C 0,0 km/h (0 Bft) 94,44 %
24.09.2017 13:12 15,1 C 12,8 C 80 % 1019,9 hPa 0,0 l/m 0,5 km/h (0 Bft) O-NO 76 0 min 0,000 mm 2,7 UV-I 318 W/m 11,7 C 15,1 C 3,2 km/h (1 Bft) 96,15 %
24.09.2017 13:14 15,3 C 12,8 C 79 % 1019,9 hPa 0,0 l/m 2,3 km/h (1 Bft) O-NO 76 2 min 0,000 mm 2,9 UV-I 516 W/m 11,7 C 15,3 C 3,2 km/h (1 Bft) 96,23 %
24.09.2017 13:16 15,4 C 12,8 C 79 % 1019,9 hPa 0,0 l/m 1,4 km/h (1 Bft) O-NO 76 2 min 0,000 mm 3,0 UV-I 640 W/m 11,8 C 15,4 C 3,2 km/h (1 Bft) 94,44 %
24.09.2017 13:18 15,4 C 12,8 C 78 % 1019,8 hPa 0,0 l/m 2,1 km/h (1 Bft) O-NO 71 2 min 0,000 mm 2,9 UV-I 620 W/m 11,6 C 15,4 C 3,2 km/h (1 Bft) 94,00 %
24.09.2017 13:20 15,6 C 12,8 C 80 % 1019,8 hPa 0,0 l/m 1,6 km/h (1 Bft) O-NO 71 2 min 0,000 mm 3,0 UV-I 601 W/m 12,2 C 15,6 C 3,2 km/h (1 Bft) 95,12 %
24.09.2017 13:22 15,6 C 12,8 C 77 % 1019,8 hPa 0,0 l/m 1,9 km/h (1 Bft) N-NO 26 2 min 0,000 mm 3,0 UV-I 631 W/m 11,6 C 15,6 C 4,8 km/h (1 Bft) 94,64 %
24.09.2017 13:24 15,6 C 12,8 C 78 % 1019,8 hPa 0,0 l/m 1,3 km/h (1 Bft) N-NO 26 2 min 0,000 mm 3,0 UV-I 635 W/m 11,8 C 15,6 C 4,8 km/h (1 Bft) 93,62 %
24.09.2017 13:26 15,7 C 12,8 C 79 % 1019,8 hPa 0,0 l/m 0,5 km/h (0 Bft) N-NO 26 2 min 0,000 mm 2,9 UV-I 621 W/m 12,1 C 15,7 C 1,6 km/h (1 Bft) 92,00 %
24.09.2017 13:28 15,8 C 12,8 C 79 % 1019,7 hPa 0,0 l/m 1,5 km/h (1 Bft) N-NO 26 2 min 0,000 mm 3,0 UV-I 624 W/m 12,2 C 15,8 C 3,2 km/h (1 Bft) 95,74 %
24.09.2017 13:30 15,9 C 12,8 C 77 % 1019,8 hPa 0,0 l/m 3,8 km/h (1 Bft) SW 232 2 min 0,000 mm 3,0 UV-I 624 W/m 11,9 C 15,9 C 8,0 km/h (2 Bft) 93,62 %
24.09.2017 13:32 16,0 C 12,8 C 75 % 1019,7 hPa 0,0 l/m 4,6 km/h (1 Bft) W-SW 247 2 min 0,000 mm 3,0 UV-I 641 W/m 11,6 C 16,0 C 6,4 km/h (2 Bft) 95,12 %
24.09.2017 13:34 16,1 C 12,8 C 77 % 1019,7 hPa 0,0 l/m 0,4 km/h (0 Bft) W-SW 247 2 min 0,000 mm 3,0 UV-I 636 W/m 12,1 C 16,1 C 1,6 km/h (1 Bft) 97,87 %
24.09.2017 13:36 16,3 C 12,8 C 76 % 1019,7 hPa 0,0 l/m 2,8 km/h (1 Bft) W-SW 242 2 min 0,000 mm 3,0 UV-I 630 W/m 12,1 C 16,3 C 6,4 km/h (2 Bft) 93,62 %
24.09.2017 13:38 16,3 C 12,8 C 74 % 1019,7 hPa 0,0 l/m 2,1 km/h (1 Bft) S-SO 165 2 min 0,000 mm 3,0 UV-I 633 W/m 11,7 C 16,3 C 6,4 km/h (2 Bft) 98,11 %
24.09.2017 13:40 16,2 C 12,8 C 76 % 1019,7 hPa 0,0 l/m 1,5 km/h (1 Bft) W 275 2 min 0,000 mm 3,0 UV-I 635 W/m 12,0 C 16,2 C 6,4 km/h (2 Bft) 97,14 %
24.09.2017 13:42 16,3 C 12,8 C 76 % 1019,6 hPa 0,0 l/m 5,3 km/h (1 Bft) SW 231 2 min 0,000 mm 3,0 UV-I 627 W/m 12,1 C 16,3 C 8,0 km/h (2 Bft) 98,25 %
24.09.2017 13:44 16,3 C 12,8 C 75 % 1019,6 hPa 0,0 l/m 5,4 km/h (1 Bft) W-SW 244 2 min 0,000 mm 2,9 UV-I 623 W/m 11,9 C 16,3 C 8,0 km/h (2 Bft) 97,56 %
24.09.2017 13:46 16,4 C 12,8 C 75 % 1019,7 hPa 0,0 l/m 4,3 km/h (1 Bft) W-SW 244 2 min 0,000 mm 2,9 UV-I 619 W/m 12,0 C 16,4 C 9,7 km/h (2 Bft) 96,23 %
24.09.2017 13:48 16,4 C 12,8 C 76 % 1019,6 hPa 0,0 l/m 1,6 km/h (1 Bft) W-SW 238 2 min 0,000 mm 2,9 UV-I 621 W/m 12,2 C 16,4 C 6,4 km/h (2 Bft) 100,00 %
24.09.2017 13:50 16,5 C 12,8 C 74 % 1019,6 hPa 0,0 l/m 3,2 km/h (1 Bft) W-SW 240 2 min 0,000 mm 2,9 UV-I 613 W/m 11,8 C 16,5 C 8,0 km/h (2 Bft) 96,08 %
24.09.2017 13:53 16,5 C 12,8 C 73 % 1019,6 hPa 0,0 l/m 4,2 km/h (1 Bft) S-SW 209 3 min 0,000 mm 2,8 UV-I 605 W/m 11,6 C 16,5 C 11,3 km/h (2 Bft) 97,47 %
24.09.2017 13:54 16,4 C 12,8 C 74 % 1019,6 hPa 0,0 l/m 3,8 km/h (1 Bft) S-SO 163 1 min 0,000 mm 2,8 UV-I 610 W/m 11,8 C 16,4 C 6,4 km/h (2 Bft) 93,33 %
24.09.2017 13:56 16,4 C 13,3 C 72 % 1019,6 hPa 0,0 l/m 3,8 km/h (1 Bft) S 173 2 min 0,000 mm 2,8 UV-I 612 W/m 11,3 C 16,4 C 8,0 km/h (2 Bft) 97,87 %
24.09.2017 13:58 16,3 C 12,8 C 74 % 1019,6 hPa 0,0 l/m 1,3 km/h (1 Bft) S 172 2 min 0,000 mm 2,8 UV-I 608 W/m 11,7 C 16,3 C 3,2 km/h (1 Bft) 98,11 %
24.09.2017 14:00 16,7 C 13,3 C 75 % 1019,5 hPa 0,0 l/m 6,0 km/h (2 Bft) S-SW 206 2 min 0,305 mm 2,8 UV-I 615 W/m 12,2 C 16,7 C 11,3 km/h (2 Bft) 94,74 %
24.09.2017 14:02 17,0 C 12,8 C 74 % 1019,5 hPa 0,0 l/m 4,3 km/h (1 Bft) S-SW 204 2 min 0,000 mm 2,8 UV-I 612 W/m 12,3 C 17,0 C 9,7 km/h (2 Bft) 97,87 %
24.09.2017 14:04 16,9 C 13,3 C 73 % 1019,5 hPa 0,0 l/m 2,6 km/h (1 Bft) O 94 2 min 0,000 mm 2,8 UV-I 604 W/m 12,0 C 16,9 C 4,8 km/h (1 Bft) 98,11 %
24.09.2017 14:06 16,9 C 13,3 C 74 % 1019,5 hPa 0,0 l/m 4,0 km/h (1 Bft) W-NW 291 2 min 0,000 mm 2,8 UV-I 605 W/m 12,2 C 16,9 C 9,7 km/h (2 Bft) 97,56 %
24.09.2017 14:08 17,0 C 13,3 C 74 % 1019,5 hPa 0,0 l/m 4,5 km/h (1 Bft) S-SW 192 2 min 0,000 mm 2,7 UV-I 604 W/m 12,3 C 17,0 C 8,0 km/h (2 Bft) 98,11 %
24.09.2017 14:10 17,0 C 13,3 C 72 % 1019,5 hPa 0,0 l/m 2,7 km/h (1 Bft) S-SO 153 2 min 0,000 mm 2,7 UV-I 601 W/m 11,9 C 17,0 C 4,8 km/h (1 Bft) 95,74 %
24.09.2017 14:12 17,1 C 13,3 C 73 % 1019,5 hPa 0,0 l/m 4,5 km/h (1 Bft) SW 224 2 min 0,000 mm 2,7 UV-I 607 W/m 12,2 C 17,1 C 11,3 km/h (2 Bft) 97,73 %
24.09.2017 14:14 17,1 C 13,3 C 72 % 1019,4 hPa 0,0 l/m 3,1 km/h (1 Bft) S-SO 155 2 min 0,000 mm 2,7 UV-I 607 W/m 12,0 C 17,1 C 6,4 km/h (2 Bft) 98,00 %
24.09.2017 14:16 16,9 C 13,3 C 72 % 1019,4 hPa 0,0 l/m 3,5 km/h (1 Bft) S-SW 212 2 min 0,000 mm 2,6 UV-I 589 W/m 11,8 C 16,9 C 6,4 km/h (2 Bft) 97,37 %
24.09.2017 14:18 16,9 C 13,3 C 73 % 1019,4 hPa 0,0 l/m 4,3 km/h (1 Bft) SW 220 2 min 0,000 mm 2,6 UV-I 578 W/m 12,0 C 16,9 C 9,7 km/h (2 Bft) 97,56 %
24.09.2017 14:20 17,0 C 13,3 C 72 % 1019,4 hPa 0,0 l/m 6,2 km/h (2 Bft) S-SO 161 2 min 0,000 mm 2,6 UV-I 577 W/m 11,9 C 17,0 C 9,7 km/h (2 Bft) 96,23 %
24.09.2017 14:22 16,8 C 13,3 C 72 % 1019,3 hPa 0,0 l/m 2,9 km/h (1 Bft) S-SO 163 2 min 0,000 mm 2,6 UV-I 574 W/m 11,7 C 16,8 C 6,4 km/h (2 Bft) 98,00 %
24.09.2017 14:24 16,7 C 13,3 C 73 % 1019,3 hPa 0,0 l/m 1,4 km/h (1 Bft) S-SO 163 2 min 0,000 mm 2,6 UV-I 575 W/m 11,8 C 16,7 C 3,2 km/h (1 Bft) 96,23 %
24.09.2017 14:26 16,9 C 13,3 C 74 % 1019,3 hPa 0,0 l/m 1,8 km/h (1 Bft) S-SO 158 2 min 0,000 mm 2,5 UV-I 576 W/m 12,2 C 16,9 C 3,2 km/h (1 Bft) 97,56 %
24.09.2017 14:28 17,0 C 13,3 C 72 % 1019,3 hPa 0,0 l/m 2,7 km/h (1 Bft) SO 140 2 min 0,000 mm 2,6 UV-I 588 W/m 11,9 C 17,0 C 8,0 km/h (2 Bft) 97,44 %
24.09.2017 14:30 17,0 C 13,3 C 73 % 1019,3 hPa 0,0 l/m 0,8 km/h (0 Bft) SO 145 2 min 0,000 mm 2,5 UV-I 589 W/m 12,1 C 17,0 C 3,2 km/h (1 Bft) 98,11 %
24.09.2017 14:32 17,0 C 13,3 C 72 % 1019,2 hPa 0,0 l/m 1,6 km/h (1 Bft) SO 145 2 min 0,000 mm 2,5 UV-I 585 W/m 11,9 C 17,0 C 3,2 km/h (1 Bft) 96,36 %
24.09.2017 14:34 17,1 C 13,3 C 72 % 1019,2 hPa 0,0 l/m 0,8 km/h (0 Bft) SO 145 2 min 0,000 mm 2,4 UV-I 557 W/m 12,0 C 17,1 C 3,2 km/h (1 Bft) 97,62 %
24.09.2017 14:36 17,2 C 13,3 C 73 % 1019,2 hPa 0,0 l/m 1,6 km/h (1 Bft) W 279 2 min 0,000 mm 2,1 UV-I 343 W/m 12,3 C 17,2 C 4,8 km/h (1 Bft) 98,00 %
24.09.2017 14:38 17,2 C 13,3 C 70 % 1019,2 hPa 0,0 l/m 4,3 km/h (1 Bft) W 273 0 min 0,000 mm 2,0 UV-I 297 W/m 11,7 C 17,2 C 6,4 km/h (2 Bft) 96,00 %
24.09.2017 14:40 17,1 C 13,3 C 69 % 1019,3 hPa 0,0 l/m 4,0 km/h (1 Bft) W-SW 256 2 min 0,000 mm 2,1 UV-I 417 W/m 11,4 C 17,1 C 8,0 km/h (2 Bft) 97,14 %
24.09.2017 14:42 17,1 C 13,3 C 69 % 1019,3 hPa 0,0 l/m 5,2 km/h (1 Bft) S-SW 204 2 min 0,000 mm 2,0 UV-I 329 W/m 11,4 C 17,1 C 9,7 km/h (2 Bft) 97,87 %
24.09.2017 14:44 17,1 C 13,3 C 70 % 1019,3 hPa 0,0 l/m 7,7 km/h (2 Bft) W-SW 248 0 min 0,000 mm 1,9 UV-I 288 W/m 11,6 C 16,5 C 11,3 km/h (2 Bft) 96,00 %
24.09.2017 14:46 17,1 C 13,3 C 70 % 1019,3 hPa 0,0 l/m 4,6 km/h (1 Bft) W-SW 240 0 min 0,000 mm 1,9 UV-I 273 W/m 11,6 C 17,1 C 8,0 km/h (2 Bft) 98,11 %
24.09.2017 14:48 17,1 C 13,3 C 70 % 1019,3 hPa 0,0 l/m 6,2 km/h (2 Bft) W-SW 246 0 min 0,000 mm 1,8 UV-I 282 W/m 11,6 C 17,1 C 11,3 km/h (2 Bft) 95,12 %
24.09.2017 14:50 17,1 C 13,3 C 69 % 1019,3 hPa 0,0 l/m 6,0 km/h (2 Bft) SW 217 2 min 0,000 mm 1,9 UV-I 370 W/m 11,4 C 17,1 C 12,9 km/h (3 Bft) 95,12 %
24.09.2017 14:52 17,2 C 13,3 C 69 % 1019,3 hPa 0,0 l/m 6,2 km/h (2 Bft) W-SW 244 2 min 0,000 mm 1,9 UV-I 433 W/m 11,5 C 17,2 C 8,0 km/h (2 Bft) 98,11 %
24.09.2017 14:54 17,2 C 13,3 C 69 % 1019,3 hPa 0,0 l/m 4,8 km/h (1 Bft) SW 229 2 min 0,000 mm 1,8 UV-I 331 W/m 11,5 C 17,2 C 8,0 km/h (2 Bft) 95,74 %
24.09.2017 14:56 17,2 C 13,3 C 70 % 1019,2 hPa 0,0 l/m 5,5 km/h (1 Bft) SW 221 0 min 0,000 mm 1,7 UV-I 299 W/m 11,7 C 17,2 C 6,4 km/h (2 Bft) 94,00 %
24.09.2017 14:58 17,1 C 13,3 C 69 % 1019,3 hPa 0,0 l/m 2,3 km/h (1 Bft) SW 221 0 min 0,000 mm 1,7 UV-I 301 W/m 11,4 C 17,1 C 6,4 km/h (2 Bft) 97,37 %
24.09.2017 15:00 17,2 C 13,3 C 72 % 1019,3 hPa 0,0 l/m 4,4 km/h (1 Bft) S-SW 213 2 min 0,000 mm 1,7 UV-I 325 W/m 12,1 C 17,2 C 6,4 km/h (2 Bft) 94,64 %
24.09.2017 15:02 17,2 C 13,3 C 69 % 1019,3 hPa 0,0 l/m 3,1 km/h (1 Bft) S-SW 213 2 min 0,279 mm 1,7 UV-I 331 W/m 11,5 C 17,2 C 4,8 km/h (1 Bft) 92,11 %
24.09.2017 15:04 17,2 C 13,3 C 69 % 1019,3 hPa 0,0 l/m 0,5 km/h (0 Bft) S-SW 213 2 min 0,000 mm 1,6 UV-I 321 W/m 11,5 C 17,2 C 1,6 km/h (1 Bft) 96,67 %
24.09.2017 15:06 17,2 C 13,3 C 71 % 1019,3 hPa 0,0 l/m 1,3 km/h (1 Bft) S-SW 213 2 min 0,000 mm 1,6 UV-I 327 W/m 11,9 C 17,2 C 3,2 km/h (1 Bft) 94,52 %
24.09.2017 15:08 17,3 C 13,3 C 70 % 1019,3 hPa 0,0 l/m 1,2 km/h (1 Bft) W-SW 245 2 min 0,000 mm 1,7 UV-I 354 W/m 11,8 C 17,3 C 6,4 km/h (2 Bft) 94,44 %
24.09.2017 15:10 17,3 C 13,3 C 69 % 1019,3 hPa 0,0 l/m 3,4 km/h (1 Bft) W-NW 298 2 min 0,000 mm 1,6 UV-I 384 W/m 11,6 C 17,3 C 6,4 km/h (2 Bft) 94,34 %
24.09.2017 15:12 17,3 C 13,3 C 69 % 1019,3 hPa 0,0 l/m 2,3 km/h (1 Bft) SW 231 2 min 0,000 mm 1,6 UV-I 358 W/m 11,6 C 17,3 C 6,4 km/h (2 Bft) 96,15 %
24.09.2017 15:14 17,4 C 13,3 C 70 % 1019,3 hPa 0,0 l/m 5,3 km/h (1 Bft) SW 234 2 min 0,000 mm 1,7 UV-I 385 W/m 11,9 C 17,4 C 8,0 km/h (2 Bft) 94,87 %
24.09.2017 15:16 17,6 C 13,3 C 69 % 1019,3 hPa 0,0 l/m 4,9 km/h (1 Bft) W 277 2 min 0,000 mm 1,6 UV-I 376 W/m 11,8 C 17,6 C 6,4 km/h (2 Bft) 96,23 %
24.09.2017 15:18 17,6 C 13,3 C 68 % 1019,3 hPa 0,0 l/m 3,9 km/h (1 Bft) W 275 2 min 0,000 mm 1,5 UV-I 323 W/m 11,6 C 17,6 C 6,4 km/h (2 Bft) 93,18 %
24.09.2017 15:20 17,5 C 13,3 C 66 % 1019,3 hPa 0,0 l/m 2,5 km/h (1 Bft) S-SW 192 2 min 0,000 mm 1,5 UV-I 350 W/m 11,1 C 17,5 C 4,8 km/h (1 Bft) 94,34 %
24.09.2017 15:22 17,4 C 13,3 C 68 % 1019,3 hPa 0,0 l/m 2,3 km/h (1 Bft) SW 215 2 min 0,000 mm 1,5 UV-I 360 W/m 11,4 C 17,4 C 6,4 km/h (2 Bft) 97,87 %
24.09.2017 15:24 17,4 C 13,3 C 66 % 1019,3 hPa 0,0 l/m 3,3 km/h (1 Bft) S 181 2 min 0,000 mm 1,5 UV-I 383 W/m 11,0 C 17,4 C 4,8 km/h (1 Bft) 97,30 %
24.09.2017 15:26 17,5 C 13,3 C 69 % 1019,3 hPa 0,0 l/m 3,1 km/h (1 Bft) SW 234 2 min 0,000 mm 1,4 UV-I 327 W/m 11,7 C 17,5 C 6,4 km/h (2 Bft) 100,00 %
24.09.2017 15:28 17,6 C 13,3 C 67 % 1019,3 hPa 0,0 l/m 4,9 km/h (1 Bft) W-SW 246 2 min 0,000 mm 1,3 UV-I 307 W/m 11,4 C 17,6 C 8,0 km/h (2 Bft) 100,00 %
24.09.2017 15:30 17,6 C 13,3 C 68 % 1019,3 hPa 0,0 l/m 2,5 km/h (1 Bft) W-SW 246 2 min 0,000 mm 1,3 UV-I 297 W/m 11,6 C 17,6 C 4,8 km/h (1 Bft) 100,00 %
24.09.2017 15:32 17,6 C 13,3 C 68 % 1019,3 hPa 0,0 l/m 2,1 km/h (1 Bft) W-SW 246 2 min 0,000 mm 1,2 UV-I 293 W/m 11,6 C 17,6 C 4,8 km/h (1 Bft) 97,37 %
24.09.2017 15:34 17,6 C 13,3 C 68 % 1019,3 hPa 0,0 l/m 1,0 km/h (0 Bft) W-SW 246 2 min 0,000 mm 1,2 UV-I 280 W/m 11,6 C 17,6 C 3,2 km/h (1 Bft) 100,00 %
24.09.2017 15:36 17,6 C 13,3 C 67 % 1019,3 hPa 0,0 l/m 3,6 km/h (1 Bft) S-SW 201 0 min 0,000 mm 1,1 UV-I 268 W/m 11,4 C 17,6 C 6,4 km/h (2 Bft) 100,00 %
24.09.2017 15:38 17,4 C 13,3 C 66 % 1019,3 hPa 0,0 l/m 2,5 km/h (1 Bft) S-SW 205 0 min 0,000 mm 1,1 UV-I 255 W/m 11,0 C 17,4 C 4,8 km/h (1 Bft) 100,00 %
24.09.2017 15:40 17,5 C 13,3 C 67 % 1019,3 hPa 0,0 l/m 3,7 km/h (1 Bft) S-SW 213 0 min 0,000 mm 1,0 UV-I 243 W/m 11,3 C 17,5 C 4,8 km/h (1 Bft) 100,00 %
24.09.2017 15:42 17,6 C 13,3 C 67 % 1019,3 hPa 0,0 l/m 2,5 km/h (1 Bft) SW 214 0 min 0,000 mm 1,0 UV-I 230 W/m 11,4 C 17,6 C 4,8 km/h (1 Bft) 100,00 %
24.09.2017 15:44 17,5 C 13,3 C 66 % 1019,3 hPa 0,0 l/m 2,7 km/h (1 Bft) SW 214 0 min 0,000 mm 0,9 UV-I 221 W/m 11,1 C 17,5 C 4,8 km/h (1 Bft) 100,00 %
24.09.2017 15:46 17,5 C 13,3 C 69 % 1019,3 hPa 0,0 l/m 2,7 km/h (1 Bft) SW 214 0 min 0,000 mm 0,9 UV-I 213 W/m 11,7 C 17,5 C 4,8 km/h (1 Bft) 100,00 %
24.09.2017 15:48 17,5 C 13,3 C 67 % 1019,3 hPa 0,0 l/m 1,9 km/h (1 Bft) W-SW 243 0 min 0,000 mm 0,9 UV-I 205 W/m 11,3 C 17,5 C 4,8 km/h (1 Bft) 95,74 %
24.09.2017 15:50 17,5 C 13,3 C 69 % 1019,3 hPa 0,0 l/m 3,7 km/h (1 Bft) SW 225 0 min 0,000 mm 0,8 UV-I 198 W/m 11,7 C 17,5 C 6,4 km/h (2 Bft) 100,00 %
24.09.2017 15:52 17,5 C 13,3 C 67 % 1019,3 hPa 0,0 l/m 2,4 km/h (1 Bft) SW 226 0 min 0,000 mm 0,8 UV-I 193 W/m 11,3 C 17,5 C 3,2 km/h (1 Bft) 100,00 %
24.09.2017 15:54 17,4 C 13,3 C 68 % 1019,3 hPa 0,0 l/m 3,6 km/h (1 Bft) W-SW 246 0 min 0,000 mm 0,7 UV-I 189 W/m 11,4 C 17,4 C 6,4 km/h (2 Bft) 96,00 %
24.09.2017 15:56 17,4 C 13,3 C 69 % 1019,3 hPa 0,0 l/m 3,3 km/h (1 Bft) W-SW 246 0 min 0,000 mm 0,7 UV-I 186 W/m 11,7 C 17,4 C 4,8 km/h (1 Bft) 100,00 %
24.09.2017 15:58 17,4 C 13,3 C 68 % 1019,3 hPa 0,0 l/m 2,8 km/h (1 Bft) W-SW 246 0 min 0,000 mm 0,7 UV-I 186 W/m 11,4 C 17,4 C 4,8 km/h (1 Bft) 100,00 %
24.09.2017 16:00 17,3 C 13,3 C 68 % 1019,3 hPa 0,0 l/m 2,6 km/h (1 Bft) W-SW 246 0 min 0,000 mm 0,7 UV-I 185 W/m 11,3 C 17,3 C 4,8 km/h (1 Bft) 100,00 %
24.09.2017 16:02 17,4 C 13,3 C 69 % 1019,3 hPa 0,0 l/m 0,9 km/h (0 Bft) W-SW 246 0 min 0,178 mm 0,7 UV-I 184 W/m 11,7 C 17,4 C 3,2 km/h (1 Bft) 97,87 %
24.09.2017 16:04 17,4 C 13,3 C 69 % 1019,3 hPa 0,0 l/m 0,3 km/h (0 Bft) W-SW 246 0 min 0,000 mm 0,6 UV-I 180 W/m 11,7 C 17,4 C 1,6 km/h (1 Bft) 98,21 %
24.09.2017 16:06 17,4 C 13,3 C 69 % 1019,3 hPa 0,0 l/m 0,4 km/h (0 Bft) W-SW 246 0 min 0,000 mm 0,6 UV-I 179 W/m 11,7 C 17,4 C 1,6 km/h (1 Bft) 100,00 %
24.09.2017 16:08 17,4 C 13,3 C 68 % 1019,3 hPa 0,0 l/m 1,8 km/h (1 Bft) W-SW 252 0 min 0,000 mm 0,6 UV-I 179 W/m 11,4 C 17,4 C 3,2 km/h (1 Bft) 97,87 %
24.09.2017 16:10 17,4 C 13,3 C 68 % 1019,3 hPa 0,0 l/m 0,5 km/h (0 Bft) W-SW 252 0 min 0,000 mm 0,6 UV-I 176 W/m 11,4 C 17,4 C 3,2 km/h (1 Bft) 97,87 %
24.09.2017 16:12 17,4 C 13,3 C 70 % 1019,3 hPa 0,0 l/m 0,1 km/h (0 Bft) W-SW 252 0 min 0,000 mm 0,6 UV-I 175 W/m 11,9 C 17,4 C 1,6 km/h (1 Bft) 100,00 %
24.09.2017 16:14 17,4 C 13,3 C 72 % 1019,3 hPa 0,0 l/m 0,8 km/h (0 Bft) W 273 0 min 0,000 mm 0,6 UV-I 174 W/m 12,3 C 17,4 C 3,2 km/h (1 Bft) 100,00 %
24.09.2017 16:16 17,4 C 13,3 C 71 % 1019,3 hPa 0,0 l/m 0,9 km/h (0 Bft) W 273 0 min 0,000 mm 0,6 UV-I 173 W/m 12,1 C 17,4 C 3,2 km/h (1 Bft) 97,56 %
24.09.2017 16:18 17,3 C 13,3 C 71 % 1019,3 hPa 0,0 l/m 0,0 km/h (0 Bft) W 273 0 min 0,000 mm 0,6 UV-I 174 W/m 12,0 C 17,3 C 1,6 km/h (1 Bft) 100,00 %
24.09.2017 16:20 17,3 C 13,3 C 72 % 1019,4 hPa 0,0 l/m 1,2 km/h (1 Bft) W-NW 290 0 min 0,000 mm 0,6 UV-I 174 W/m 12,2 C 17,3 C 3,2 km/h (1 Bft) 100,00 %
24.09.2017 16:22 17,2 C 13,3 C 72 % 1019,4 hPa 0,0 l/m 0,3 km/h (0 Bft) NW 319 0 min 0,000 mm 0,6 UV-I 174 W/m 12,1 C 17,2 C 3,2 km/h (1 Bft) 97,87 %
24.09.2017 16:24 17,2 C 13,3 C 72 % 1019,4 hPa 0,0 l/m 1,9 km/h (1 Bft) N-NO 19 0 min 0,000 mm 0,6 UV-I 170 W/m 12,1 C 17,2 C 6,4 km/h (2 Bft) 100,00 %
24.09.2017 16:26 17,1 C 13,3 C 72 % 1019,3 hPa 0,0 l/m 1,8 km/h (1 Bft) N-NO 19 0 min 0,000 mm 0,6 UV-I 166 W/m 12,0 C 17,1 C 3,2 km/h (1 Bft) 96,88 %
24.09.2017 16:28 17,1 C 13,3 C 73 % 1019,3 hPa 0,0 l/m 1,1 km/h (1 Bft) N-NO 19 0 min 0,000 mm 0,6 UV-I 163 W/m 12,2 C 17,1 C 3,2 km/h (1 Bft) 100,00 %
24.09.2017 16:30 17,0 C 13,3 C 72 % 1019,3 hPa 0,0 l/m 3,2 km/h (1 Bft) N-NO 19 0 min 0,000 mm 0,5 UV-I 160 W/m 11,9 C 17,0 C 4,8 km/h (1 Bft) 100,00 %
24.09.2017 16:32 17,0 C 13,3 C 72 % 1019,4 hPa 0,0 l/m 0,0 km/h (0 Bft) N-NO 19 0 min 0,000 mm 0,5 UV-I 162 W/m 11,9 C 17,0 C 0,0 km/h (0 Bft) 100,00 %
24.09.2017 16:34 17,0 C 13,3 C 72 % 1019,4 hPa 0,0 l/m 0,8 km/h (0 Bft) N-NO 19 0 min 0,000 mm 0,5 UV-I 165 W/m 11,9 C 17,0 C 4,8 km/h (1 Bft) 100,00 %
24.09.2017 16:36 17,0 C 13,3 C 73 % 1019,3 hPa 0,0 l/m 2,1 km/h (1 Bft) N-NO 19 0 min 0,000 mm 0,5 UV-I 166 W/m 12,1 C 17,0 C 4,8 km/h (1 Bft) 97,87 %
24.09.2017 16:38 17,0 C 13,3 C 75 % 1019,3 hPa 0,0 l/m 0,1 km/h (0 Bft) N-NO 19 0 min 0,000 mm 0,5 UV-I 167 W/m 12,5 C 17,0 C 1,6 km/h (1 Bft) 97,14 %
24.09.2017 16:40 17,0 C 13,3 C 73 % 1019,3 hPa 0,0 l/m 1,2 km/h (1 Bft) N-NO 19 0 min 0,000 mm 0,5 UV-I 166 W/m 12,1 C 17,0 C 3,2 km/h (1 Bft) 100,00 %
24.09.2017 16:42 16,9 C 13,3 C 72 % 1019,3 hPa 0,0 l/m 3,7 km/h (1 Bft) N-NO 19 0 min 0,000 mm 0,5 UV-I 163 W/m 11,8 C 16,9 C 6,4 km/h (2 Bft) 97,56 %
24.09.2017 16:44 16,9 C 13,3 C 72 % 1019,3 hPa 0,0 l/m 4,4 km/h (1 Bft) N-NO 24 0 min 0,000 mm 0,5 UV-I 160 W/m 11,8 C 16,9 C 6,4 km/h (2 Bft) 100,00 %
24.09.2017 16:46 17,0 C 13,3 C 71 % 1019,3 hPa 0,0 l/m 4,1 km/h (1 Bft) N-NO 26 0 min 0,000 mm 0,5 UV-I 160 W/m 11,7 C 17,0 C 4,8 km/h (1 Bft) 92,11 %
24.09.2017 16:48 17,1 C 13,3 C 69 % 1019,3 hPa 0,0 l/m 2,9 km/h (1 Bft) N-NO 26 0 min 0,000 mm 0,5 UV-I 160 W/m 11,4 C 17,1 C 4,8 km/h (1 Bft) 100,00 %
24.09.2017 16:50 17,1 C 13,3 C 70 % 1019,3 hPa 0,0 l/m 3,0 km/h (1 Bft) N-NO 26 0 min 0,000 mm 0,2 UV-I 159 W/m 11,6 C 17,1 C 4,8 km/h (1 Bft) 98,00 %
24.09.2017 16:52 17,1 C 13,3 C 73 % 1019,4 hPa 0,0 l/m 1,7 km/h (1 Bft) N-NW 340 0 min 0,000 mm 0,0 UV-I 156 W/m 12,2 C 17,1 C 8,0 km/h (2 Bft) 97,87 %
24.09.2017 16:54 16,9 C 13,3 C 74 % 1019,4 hPa 0,0 l/m 3,4 km/h (1 Bft) N 11 0 min 0,000 mm 0,0 UV-I 153 W/m 12,2 C 16,9 C 8,0 km/h (2 Bft) 98,00 %
24.09.2017 16:56 16,8 C 13,3 C 74 % 1019,4 hPa 0,0 l/m 8,6 km/h (2 Bft) NO 34 0 min 0,000 mm 0,0 UV-I 154 W/m 12,1 C 15,7 C 19,3 km/h (3 Bft) 97,56 %
24.09.2017 16:58 16,7 C 13,3 C 74 % 1019,4 hPa 0,0 l/m 12,2 km/h (2 Bft) NO 48 0 min 0,000 mm 0,0 UV-I 149 W/m 12,0 C 14,2 C 19,3 km/h (3 Bft) 95,45 %
24.09.2017 17:00 16,5 C 13,3 C 74 % 1019,4 hPa 0,0 l/m 13,2 km/h (3 Bft) NO 49 0 min 0,102 mm 0,0 UV-I 154 W/m 11,8 C 13,6 C 17,7 km/h (3 Bft) 98,21 %
24.09.2017 17:02 16,5 C 13,3 C 74 % 1019,4 hPa 0,0 l/m 7,7 km/h (2 Bft) NO 41 2 min 0,000 mm 0,0 UV-I 209 W/m 11,8 C 15,8 C 14,5 km/h (3 Bft) 97,37 %
24.09.2017 17:04 16,6 C 13,3 C 75 % 1019,4 hPa 0,0 l/m 11,2 km/h (2 Bft) NO 34 0 min 0,000 mm 0,0 UV-I 165 W/m 12,1 C 14,4 C 16,1 km/h (3 Bft) 98,00 %
24.09.2017 17:06 16,6 C 13,3 C 74 % 1019,5 hPa 0,0 l/m 11,6 km/h (2 Bft) NO 47 2 min 0,000 mm 0,0 UV-I 165 W/m 11,9 C 14,3 C 17,7 km/h (3 Bft) 95,74 %
24.09.2017 17:08 16,6 C 13,3 C 73 % 1019,5 hPa 0,0 l/m 10,4 km/h (2 Bft) O-NO 59 0 min 0,000 mm 0,0 UV-I 140 W/m 11,7 C 14,7 C 19,3 km/h (3 Bft) 96,00 %
24.09.2017 17:10 16,5 C 13,3 C 73 % 1019,5 hPa 0,0 l/m 7,8 km/h (2 Bft) NO 46 0 min 0,000 mm 0,0 UV-I 141 W/m 11,6 C 15,8 C 12,9 km/h (3 Bft) 97,62 %
24.09.2017 17:12 16,4 C 13,3 C 74 % 1019,5 hPa 0,0 l/m 8,0 km/h (2 Bft) NO 45 0 min 0,000 mm 0,0 UV-I 143 W/m 11,8 C 15,6 C 12,9 km/h (3 Bft) 98,11 %
24.09.2017 17:14 16,4 C 13,3 C 75 % 1019,5 hPa 0,0 l/m 10,3 km/h (2 Bft) O-NO 57 0 min 0,000 mm 0,0 UV-I 137 W/m 12,0 C 14,5 C 14,5 km/h (3 Bft) 97,56 %
24.09.2017 17:16 16,3 C 13,3 C 75 % 1019,5 hPa 0,0 l/m 8,3 km/h (2 Bft) NO 44 0 min 0,000 mm 0,0 UV-I 126 W/m 11,9 C 15,3 C 11,3 km/h (2 Bft) 98,11 %
24.09.2017 17:18 16,3 C 13,3 C 76 % 1019,5 hPa 0,0 l/m 8,2 km/h (2 Bft) NO 48 0 min 0,000 mm 0,0 UV-I 118 W/m 12,1 C 15,4 C 14,5 km/h (3 Bft) 97,87 %
24.09.2017 17:20 16,2 C 13,3 C 74 % 1019,5 hPa 0,0 l/m 8,1 km/h (2 Bft) NO 47 0 min 0,000 mm 0,0 UV-I 113 W/m 11,6 C 15,3 C 11,3 km/h (2 Bft) 97,37 %
24.09.2017 17:22 16,2 C 13,3 C 75 % 1019,5 hPa 0,0 l/m 6,7 km/h (2 Bft) O-NO 59 0 min 0,000 mm 0,0 UV-I 106 W/m 11,8 C 16,1 C 9,7 km/h (2 Bft) 96,43 %
24.09.2017 17:24 16,2 C 13,3 C 76 % 1019,5 hPa 0,0 l/m 6,4 km/h (2 Bft) NO 50 0 min 0,000 mm 0,0 UV-I 102 W/m 12,0 C 16,2 C 12,9 km/h (3 Bft) 100,00 %
24.09.2017 17:26 16,2 C 13,3 C 76 % 1019,5 hPa 0,0 l/m 8,9 km/h (2 Bft) NO 53 0 min 0,000 mm 0,0 UV-I 97 W/m 12,0 C 14,9 C 12,9 km/h (3 Bft) 100,00 %
24.09.2017 17:28 16,2 C 13,3 C 74 % 1019,4 hPa 0,0 l/m 7,6 km/h (2 Bft) NO 46 0 min 0,000 mm 0,0 UV-I 89 W/m 11,6 C 15,6 C 11,3 km/h (2 Bft) 95,12 %
24.09.2017 17:30 16,2 C 13,3 C 75 % 1019,5 hPa 0,0 l/m 7,7 km/h (2 Bft) NO 45 0 min 0,000 mm 0,0 UV-I 84 W/m 11,8 C 15,5 C 11,3 km/h (2 Bft) 100,00 %
24.09.2017 17:32 16,1 C 13,3 C 75 % 1019,5 hPa 0,0 l/m 7,3 km/h (2 Bft) O-NO 69 0 min 0,000 mm 0,0 UV-I 80 W/m 11,7 C 15,6 C 9,7 km/h (2 Bft) 97,14 %
24.09.2017 17:34 16,1 C 13,3 C 75 % 1019,5 hPa 0,0 l/m 6,6 km/h (2 Bft) O-NO 59 0 min 0,000 mm 0,0 UV-I 76 W/m 11,7 C 16,0 C 9,7 km/h (2 Bft) 100,00 %
24.09.2017 17:36 16,1 C 13,3 C 75 % 1019,5 hPa 0,0 l/m 4,9 km/h (1 Bft) NO 44 0 min 0,000 mm 0,0 UV-I 73 W/m 11,7 C 16,1 C 8,0 km/h (2 Bft) 100,00 %
24.09.2017 17:38 16,1 C 13,3 C 75 % 1019,5 hPa 0,0 l/m 4,5 km/h (1 Bft) NO 48 0 min 0,000 mm 0,0 UV-I 70 W/m 11,7 C 16,1 C 6,4 km/h (2 Bft) 100,00 %
24.09.2017 17:40 16,1 C 13,3 C 75 % 1019,6 hPa 0,0 l/m 5,7 km/h (1 Bft) O-NO 78 0 min 0,000 mm 0,0 UV-I 71 W/m 11,7 C 16,1 C 8,0 km/h (2 Bft) 100,00 %
24.09.2017 17:42 16,0 C 13,3 C 75 % 1019,6 hPa 0,0 l/m 5,1 km/h (1 Bft) O-NO 57 0 min 0,000 mm 0,0 UV-I 69 W/m 11,6 C 16,0 C 8,0 km/h (2 Bft) 100,00 %
24.09.2017 17:44 16,0 C 13,3 C 76 % 1019,6 hPa 0,0 l/m 5,0 km/h (1 Bft) NO 48 0 min 0,000 mm 0,0 UV-I 64 W/m 11,8 C 16,0 C 9,7 km/h (2 Bft) 100,00 %
24.09.2017 17:46 15,9 C 13,3 C 76 % 1019,6 hPa 0,0 l/m 4,6 km/h (1 Bft) O-NO 57 0 min 0,000 mm 0,0 UV-I 61 W/m 11,7 C 15,9 C 6,4 km/h (2 Bft) 95,83 %
24.09.2017 17:48 15,9 C 13,3 C 76 % 1019,7 hPa 0,0 l/m 6,1 km/h (2 Bft) O-NO 57 0 min 0,000 mm 0,0 UV-I 59 W/m 11,7 C 15,9 C 8,0 km/h (2 Bft) 100,00 %
24.09.2017 17:50 15,9 C 13,3 C 76 % 1019,7 hPa 0,0 l/m 4,5 km/h (1 Bft) O-NO 63 0 min 0,000 mm 0,0 UV-I 58 W/m 11,7 C 15,9 C 6,4 km/h (2 Bft) 100,00 %
24.09.2017 17:52 15,9 C 13,3 C 76 % 1019,7 hPa 0,0 l/m 5,5 km/h (1 Bft) O-NO 59 0 min 0,000 mm 0,0 UV-I 58 W/m 11,7 C 15,9 C 9,7 km/h (2 Bft) 100,00 %
24.09.2017 17:54 15,8 C 13,3 C 76 % 1019,7 hPa 0,0 l/m 6,2 km/h (2 Bft) O-NO 57 0 min 0,000 mm 0,0 UV-I 56 W/m 11,6 C 15,8 C 8,0 km/h (2 Bft) 100,00 %
24.09.2017 17:56 15,8 C 13,3 C 76 % 1019,7 hPa 0,0 l/m 6,5 km/h (2 Bft) O-NO 57 0 min 0,000 mm 0,0 UV-I 54 W/m 11,6 C 15,8 C 9,7 km/h (2 Bft) 100,00 %
24.09.2017 17:58 15,8 C 13,3 C 76 % 1019,7 hPa 0,0 l/m 5,9 km/h (2 Bft) NO 49 0 min 0,000 mm 0,0 UV-I 54 W/m 11,6 C 15,8 C 8,0 km/h (2 Bft) 100,00 %
24.09.2017 18:00 15,8 C 13,3 C 77 % 1019,7 hPa 0,0 l/m 5,6 km/h (1 Bft) O-NO 65 0 min 0,000 mm 0,0 UV-I 54 W/m 11,8 C 15,8 C 6,4 km/h (2 Bft) 100,00 %
24.09.2017 18:02 15,7 C 13,3 C 77 % 1019,7 hPa 0,0 l/m 4,7 km/h (1 Bft) O-NO 60 0 min 0,076 mm 0,0 UV-I 54 W/m 11,7 C 15,7 C 6,4 km/h (2 Bft) 100,00 %
24.09.2017 18:04 15,7 C 13,3 C 77 % 1019,7 hPa 0,0 l/m 5,7 km/h (1 Bft) O-NO 57 0 min 0,000 mm 0,0 UV-I 53 W/m 11,7 C 15,7 C 8,0 km/h (2 Bft) 100,00 %
24.09.2017 18:06 15,7 C 13,3 C 77 % 1019,7 hPa 0,0 l/m 5,2 km/h (1 Bft) O-NO 64 0 min 0,000 mm 0,0 UV-I 51 W/m 11,7 C 15,7 C 8,0 km/h (2 Bft) 100,00 %
24.09.2017 18:08 15,7 C 13,3 C 78 % 1019,7 hPa 0,0 l/m 5,8 km/h (2 Bft) O-NO 59 0 min 0,000 mm 0,0 UV-I 49 W/m 11,9 C 15,7 C 8,0 km/h (2 Bft) 100,00 %
24.09.2017 18:10 15,6 C 13,3 C 78 % 1019,7 hPa 0,0 l/m 4,9 km/h (1 Bft) O-NO 57 0 min 0,000 mm 0,0 UV-I 48 W/m 11,8 C 15,6 C 8,0 km/h (2 Bft) 100,00 %
24.09.2017 18:12 15,6 C 13,3 C 78 % 1019,8 hPa 0,0 l/m 4,4 km/h (1 Bft) O-NO 57 0 min 0,000 mm 0,0 UV-I 47 W/m 11,8 C 15,6 C 6,4 km/h (2 Bft) 100,00 %
24.09.2017 18:14 15,6 C 13,3 C 78 % 1019,7 hPa 0,0 l/m 4,3 km/h (1 Bft) O-NO 57 0 min 0,000 mm 0,0 UV-I 46 W/m 11,8 C 15,6 C 6,4 km/h (2 Bft) 100,00 %
24.09.2017 18:16 15,5 C 13,3 C 78 % 1019,7 hPa 0,0 l/m 6,1 km/h (2 Bft) O 79 0 min 0,000 mm 0,0 UV-I 45 W/m 11,7 C 15,5 C 8,0 km/h (2 Bft) 100,00 %
24.09.2017 18:18 15,4 C 13,3 C 78 % 1019,7 hPa 0,0 l/m 5,3 km/h (1 Bft) O-NO 67 0 min 0,000 mm 0,0 UV-I 42 W/m 11,6 C 15,4 C 8,0 km/h (2 Bft) 100,00 %
24.09.2017 18:20 15,4 C 13,3 C 79 % 1019,8 hPa 0,0 l/m 5,4 km/h (1 Bft) O-NO 74 0 min 0,000 mm 0,0 UV-I 40 W/m 11,8 C 15,4 C 8,0 km/h (2 Bft) 98,00 %
24.09.2017 18:22 15,4 C 13,3 C 79 % 1019,7 hPa 0,0 l/m 4,5 km/h (1 Bft) O-NO 64 0 min 0,000 mm 0,0 UV-I 40 W/m 11,8 C 15,4 C 4,8 km/h (1 Bft) 100,00 %
24.09.2017 18:24 15,3 C 13,3 C 79 % 1019,8 hPa 0,0 l/m 4,3 km/h (1 Bft) NO 51 0 min 0,000 mm 0,0 UV-I 39 W/m 11,7 C 15,3 C 6,4 km/h (2 Bft) 98,11 %
24.09.2017 18:26 15,3 C 13,3 C 79 % 1019,7 hPa 0,0 l/m 5,2 km/h (1 Bft) O-NO 59 0 min 0,000 mm 0,0 UV-I 37 W/m 11,7 C 15,3 C 6,4 km/h (2 Bft) 100,00 %
24.09.2017 18:28 15,3 C 13,3 C 80 % 1019,7 hPa 0,0 l/m 4,1 km/h (1 Bft) O-NO 59 0 min 0,000 mm 0,0 UV-I 36 W/m 11,9 C 15,3 C 6,4 km/h (2 Bft) 100,00 %
24.09.2017 18:30 15,2 C 13,3 C 80 % 1019,8 hPa 0,0 l/m 4,1 km/h (1 Bft) O-NO 63 0 min 0,000 mm 0,0 UV-I 33 W/m 11,8 C 15,2 C 8,0 km/h (2 Bft) 100,00 %
24.09.2017 18:32 15,1 C 13,3 C 80 % 1019,8 hPa 0,0 l/m 3,3 km/h (1 Bft) O 79 0 min 0,000 mm 0,0 UV-I 31 W/m 11,7 C 15,1 C 6,4 km/h (2 Bft) 98,00 %
24.09.2017 18:34 15,0 C 13,3 C 80 % 1019,8 hPa 0,0 l/m 1,5 km/h (1 Bft) O 79 0 min 0,000 mm 0,0 UV-I 26 W/m 11,6 C 15,0 C 4,8 km/h (1 Bft) 100,00 %
24.09.2017 18:36 14,9 C 13,3 C 80 % 1019,8 hPa 0,0 l/m 2,1 km/h (1 Bft) O-NO 78 0 min 0,000 mm 0,0 UV-I 22 W/m 11,5 C 14,9 C 3,2 km/h (1 Bft) 100,00 %
24.09.2017 18:38 14,9 C 13,3 C 80 % 1019,9 hPa 0,0 l/m 3,0 km/h (1 Bft) O-NO 78 0 min 0,000 mm 0,0 UV-I 18 W/m 11,5 C 14,9 C 4,8 km/h (1 Bft) 98,00 %
24.09.2017 18:40 14,8 C 13,3 C 80 % 1019,9 hPa 0,0 l/m 4,6 km/h (1 Bft) O-NO 78 0 min 0,000 mm 0,0 UV-I 18 W/m 11,4 C 14,8 C 6,4 km/h (2 Bft) 100,00 %
24.09.2017 18:42 14,8 C 13,3 C 81 % 1019,8 hPa 0,0 l/m 2,8 km/h (1 Bft) O-NO 78 0 min 0,000 mm 0,0 UV-I 15 W/m 11,6 C 14,8 C 4,8 km/h (1 Bft) 100,00 %
24.09.2017 18:44 14,7 C 13,3 C 81 % 1019,9 hPa 0,0 l/m 2,3 km/h (1 Bft) O-NO 78 0 min 0,000 mm 0,0 UV-I 12 W/m 11,5 C 14,7 C 4,8 km/h (1 Bft) 100,00 %
24.09.2017 18:46 14,6 C 13,3 C 82 % 1019,9 hPa 0,0 l/m 2,5 km/h (1 Bft) O-NO 78 2 min 0,000 mm 0,0 UV-I 11 W/m 11,6 C 14,6 C 3,2 km/h (1 Bft) 97,87 %
24.09.2017 18:48 14,5 C 13,3 C 83 % 1019,9 hPa 0,0 l/m 1,7 km/h (1 Bft) O-NO 78 0 min 0,000 mm 0,0 UV-I 10 W/m 11,6 C 14,5 C 3,2 km/h (1 Bft) 98,11 %
24.09.2017 18:50 14,4 C 13,3 C 83 % 1019,8 hPa 0,0 l/m 2,4 km/h (1 Bft) O-NO 78 0 min 0,000 mm 0,0 UV-I 9 W/m 11,5 C 14,4 C 3,2 km/h (1 Bft) 95,35 %
24.09.2017 18:52 14,3 C 13,3 C 84 % 1019,9 hPa 0,0 l/m 2,2 km/h (1 Bft) O-NO 78 0 min 0,000 mm 0,0 UV-I 8 W/m 11,6 C 14,3 C 3,2 km/h (1 Bft) 94,00 %
24.09.2017 18:54 14,2 C 13,3 C 84 % 1019,8 hPa 0,0 l/m 2,6 km/h (1 Bft) O-NO 78 0 min 0,000 mm 0,0 UV-I 7 W/m 11,5 C 14,2 C 3,2 km/h (1 Bft) 94,00 %
24.09.2017 18:56 14,1 C 13,3 C 84 % 1019,9 hPa 0,0 l/m 2,3 km/h (1 Bft) O-NO 67 0 min 0,000 mm 0,0 UV-I 7 W/m 11,4 C 14,1 C 4,8 km/h (1 Bft) 92,11 %
24.09.2017 18:58 14,0 C 13,3 C 85 % 1019,8 hPa 0,0 l/m 2,9 km/h (1 Bft) NO 42 0 min 0,000 mm 0,0 UV-I 6 W/m 11,5 C 14,0 C 6,4 km/h (2 Bft) 96,00 %
24.09.2017 19:00 13,8 C 13,3 C 85 % 1019,9 hPa 0,0 l/m 0,6 km/h (0 Bft) NO 42 0 min 0,000 mm 0,0 UV-I 5 W/m 11,3 C 13,8 C 3,2 km/h (1 Bft) 95,74 %
24.09.2017 19:02 13,7 C 13,3 C 85 % 1019,9 hPa 0,0 l/m 3,1 km/h (1 Bft) NO 42 0 min 0,025 mm 0,0 UV-I 5 W/m 11,2 C 13,7 C 4,8 km/h (1 Bft) 97,62 %
24.09.2017 19:04 13,6 C 13,3 C 86 % 1019,9 hPa 0,0 l/m 4,9 km/h (1 Bft) NO 34 0 min 0,000 mm 0,0 UV-I 5 W/m 11,3 C 13,6 C 6,4 km/h (2 Bft) 96,15 %
24.09.2017 19:06 13,5 C 13,3 C 85 % 1019,9 hPa 0,0 l/m 6,0 km/h (2 Bft) NO 43 0 min 0,000 mm 0,0 UV-I 5 W/m 11,0 C 13,5 C 8,0 km/h (2 Bft) 95,24 %
24.09.2017 19:08 13,5 C 13,3 C 85 % 1019,9 hPa 0,0 l/m 8,3 km/h (2 Bft) NO 55 0 min 0,000 mm 0,0 UV-I 5 W/m 11,0 C 12,4 C 11,3 km/h (2 Bft) 95,12 %
24.09.2017 19:10 13,5 C 13,3 C 85 % 1020,0 hPa 0,0 l/m 7,0 km/h (2 Bft) N-NO 31 0 min 0,000 mm 0,0 UV-I 0 W/m 11,0 C 13,1 C 9,7 km/h (2 Bft) 94,34 %
24.09.2017 19:12 13,5 C 13,3 C 85 % 1020,0 hPa 0,0 l/m 4,3 km/h (1 Bft) N-NO 32 0 min 0,000 mm 0,0 UV-I 0 W/m 11,0 C 13,5 C 6,4 km/h (2 Bft) 96,23 %
24.09.2017 19:14 13,5 C 13,3 C 85 % 1020,0 hPa 0,0 l/m 4,3 km/h (1 Bft) N-NO 30 0 min 0,000 mm 0,0 UV-I 0 W/m 11,0 C 13,5 C 6,4 km/h (2 Bft) 91,49 %
24.09.2017 19:16 13,5 C 13,3 C 85 % 1020,0 hPa 0,0 l/m 5,5 km/h (1 Bft) O-NO 61 0 min 0,000 mm 0,0 UV-I 0 W/m 11,0 C 13,5 C 8,0 km/h (2 Bft) 95,12 %
24.09.2017 19:18 13,5 C 13,3 C 85 % 1020,0 hPa 0,0 l/m 4,6 km/h (1 Bft) NO 51 0 min 0,000 mm 0,0 UV-I 0 W/m 11,0 C 13,5 C 8,0 km/h (2 Bft) 93,62 %
24.09.2017 19:20 13,6 C 13,3 C 85 % 1020,0 hPa 0,0 l/m 3,9 km/h (1 Bft) O-NO 66 0 min 0,000 mm 0,0 UV-I 0 W/m 11,1 C 13,6 C 6,4 km/h (2 Bft) 96,23 %
24.09.2017 19:22 13,6 C 13,3 C 85 % 1020,0 hPa 0,0 l/m 4,0 km/h (1 Bft) NO 55 0 min 0,000 mm 0,0 UV-I 0 W/m 11,1 C 13,6 C 6,4 km/h (2 Bft) 93,18 %
24.09.2017 19:24 13,6 C 13,3 C 85 % 1020,0 hPa 0,0 l/m 4,2 km/h (1 Bft) O-NO 61 0 min 0,000 mm 0,0 UV-I 0 W/m 11,1 C 13,6 C 6,4 km/h (2 Bft) 94,34 %
24.09.2017 19:26 13,6 C 13,3 C 85 % 1020,0 hPa 0,0 l/m 3,1 km/h (1 Bft) O-NO 61 0 min 0,000 mm 0,0 UV-I 0 W/m 11,1 C 13,6 C 4,8 km/h (1 Bft) 97,37 %
24.09.2017 19:28 13,6 C 13,3 C 85 % 1020,0 hPa 0,0 l/m 1,7 km/h (1 Bft) O-NO 61 0 min 0,000 mm 0,0 UV-I 0 W/m 11,1 C 13,6 C 3,2 km/h (1 Bft) 98,11 %
24.09.2017 19:30 13,6 C 13,3 C 85 % 1020,1 hPa 0,0 l/m 2,9 km/h (1 Bft) O-NO 61 0 min 0,000 mm 0,0 UV-I 0 W/m 11,1 C 13,6 C 4,8 km/h (1 Bft) 97,87 %
24.09.2017 19:32 13,6 C 13,3 C 85 % 1020,0 hPa 0,0 l/m 1,8 km/h (1 Bft) O-NO 61 0 min 0,000 mm 0,0 UV-I 0 W/m 11,1 C 13,6 C 3,2 km/h (1 Bft) 92,11 %
24.09.2017 19:34 13,4 C 13,3 C 85 % 1020,0 hPa 0,0 l/m 0,8 km/h (0 Bft) O-NO 61 0 min 0,000 mm 0,0 UV-I 0 W/m 10,9 C 13,4 C 1,6 km/h (1 Bft) 94,00 %
24.09.2017 19:36 13,4 C 13,3 C 85 % 1020,1 hPa 0,0 l/m 2,6 km/h (1 Bft) O-NO 61 0 min 0,000 mm 0,0 UV-I 0 W/m 10,9 C 13,4 C 3,2 km/h (1 Bft) 97,87 %
24.09.2017 19:38 13,4 C 13,3 C 86 % 1020,0 hPa 0,0 l/m 2,3 km/h (1 Bft) O-NO 61 0 min 0,000 mm 0,0 UV-I 0 W/m 11,1 C 13,4 C 3,2 km/h (1 Bft) 94,00 %
24.09.2017 19:40 13,4 C 13,3 C 86 % 1020,0 hPa 0,0 l/m 3,1 km/h (1 Bft) O-NO 61 0 min 0,000 mm 0,0 UV-I 0 W/m 11,1 C 13,4 C 4,8 km/h (1 Bft) 100,00 %
24.09.2017 19:42 13,4 C 13,3 C 86 % 1020,0 hPa 0,0 l/m 3,8 km/h (1 Bft) O-NO 61 0 min 0,000 mm 0,0 UV-I 0 W/m 11,1 C 13,4 C 4,8 km/h (1 Bft) 94,55 %
24.09.2017 19:44 13,3 C 13,3 C 86 % 1020,1 hPa 0,0 l/m 3,9 km/h (1 Bft) O-NO 61 0 min 0,000 mm 0,0 UV-I 0 W/m 11,0 C 13,3 C 6,4 km/h (2 Bft) 97,92 %
24.09.2017 19:46 13,3 C 13,3 C 86 % 1020,1 hPa 0,0 l/m 4,1 km/h (1 Bft) O-NO 68 0 min 0,000 mm 0,0 UV-I 0 W/m 11,0 C 13,3 C 6,4 km/h (2 Bft) 95,74 %
24.09.2017 19:48 13,3 C 13,3 C 86 % 1020,1 hPa 0,0 l/m 2,5 km/h (1 Bft) O-NO 68 0 min 0,000 mm 0,0 UV-I 0 W/m 11,0 C 13,3 C 3,2 km/h (1 Bft) 98,08 %
24.09.2017 19:50 13,3 C 13,3 C 86 % 1020,1 hPa 0,0 l/m 2,0 km/h (1 Bft) O-NO 68 0 min 0,000 mm 0,0 UV-I 0 W/m 11,0 C 13,3 C 3,2 km/h (1 Bft) 100,00 %
24.09.2017 19:52 13,3 C 13,3 C 86 % 1020,1 hPa 0,0 l/m 3,0 km/h (1 Bft) O-NO 68 0 min 0,000 mm 0,0 UV-I 0 W/m 11,0 C 13,3 C 4,8 km/h (1 Bft) 100,00 %
24.09.2017 19:54 13,3 C 13,3 C 86 % 1020,2 hPa 0,0 l/m 2,8 km/h (1 Bft) O-NO 68 0 min 0,000 mm 0,0 UV-I 0 W/m 11,0 C 13,3 C 4,8 km/h (1 Bft) 100,00 %
24.09.2017 19:56 13,3 C 13,3 C 86 % 1020,2 hPa 0,0 l/m 3,3 km/h (1 Bft) O-NO 68 0 min 0,000 mm 0,0 UV-I 0 W/m 11,0 C 13,3 C 4,8 km/h (1 Bft) 100,00 %
24.09.2017 19:58 13,2 C 13,3 C 87 % 1020,2 hPa 0,0 l/m 3,1 km/h (1 Bft) O-NO 68 0 min 0,000 mm 0,0 UV-I 0 W/m 11,1 C 13,2 C 4,8 km/h (1 Bft) 95,12 %
24.09.2017 20:00 13,2 C 13,3 C 87 % 1020,2 hPa 0,0 l/m 4,2 km/h (1 Bft) O-NO 68 0 min 0,000 mm 0,0 UV-I 0 W/m 11,1 C 13,2 C 4,8 km/h (1 Bft) 100,00 %
24.09.2017 20:02 13,2 C 13,3 C 87 % 1020,2 hPa 0,0 l/m 4,3 km/h (1 Bft) O-NO 68 0 min 0,000 mm 0,0 UV-I 0 W/m 11,1 C 13,2 C 6,4 km/h (2 Bft) 100,00 %
24.09.2017 20:04 13,2 C 13,3 C 87 % 1020,2 hPa 0,0 l/m 3,7 km/h (1 Bft) O-NO 68 0 min 0,000 mm 0,0 UV-I 0 W/m 11,1 C 13,2 C 4,8 km/h (1 Bft) 100,00 %
24.09.2017 20:06 13,2 C 13,3 C 87 % 1020,2 hPa 0,0 l/m 2,9 km/h (1 Bft) O-NO 68 0 min 0,000 mm 0,0 UV-I 0 W/m 11,1 C 13,2 C 4,8 km/h (1 Bft) 95,35 %
24.09.2017 20:08 13,2 C 13,3 C 87 % 1020,2 hPa 0,0 l/m 3,0 km/h (1 Bft) O-NO 68 0 min 0,000 mm 0,0 UV-I 0 W/m 11,1 C 13,2 C 4,8 km/h (1 Bft) 97,56 %
24.09.2017 20:10 13,2 C 13,3 C 87 % 1020,2 hPa 0,0 l/m 2,1 km/h (1 Bft) O-NO 68 0 min 0,000 mm 0,0 UV-I 0 W/m 11,1 C 13,2 C 3,2 km/h (1 Bft) 100,00 %
24.09.2017 20:12 13,2 C 13,3 C 87 % 1020,3 hPa 0,0 l/m 2,1 km/h (1 Bft) O-NO 68 0 min 0,000 mm 0,0 UV-I 0 W/m 11,1 C 13,2 C 3,2 km/h (1 Bft) 100,00 %
24.09.2017 20:14 13,2 C 13,3 C 87 % 1020,2 hPa 0,0 l/m 1,3 km/h (1 Bft) O-NO 68 0 min 0,000 mm 0,0 UV-I 0 W/m 11,1 C 13,2 C 3,2 km/h (1 Bft) 98,11 %
24.09.2017 20:16 13,2 C 13,3 C 87 % 1020,3 hPa 0,0 l/m 1,6 km/h (1 Bft) O-NO 68 0 min 0,000 mm 0,0 UV-I 0 W/m 11,1 C 13,2 C 3,2 km/h (1 Bft) 100,00 %
24.09.2017 20:18 13,2 C 13,3 C 87 % 1020,3 hPa 0,0 l/m 1,4 km/h (1 Bft) O-NO 68 0 min 0,000 mm 0,0 UV-I 0 W/m 11,1 C 13,2 C 3,2 km/h (1 Bft) 100,00 %
24.09.2017 20:20 13,2 C 13,3 C 88 % 1020,2 hPa 0,0 l/m 2,5 km/h (1 Bft) O-NO 68 0 min 0,000 mm 0,0 UV-I 0 W/m 11,3 C 13,2 C 4,8 km/h (1 Bft) 100,00 %
24.09.2017 20:22 13,2 C 13,3 C 88 % 1020,2 hPa 0,0 l/m 0,9 km/h (0 Bft) O-NO 68 0 min 0,000 mm 0,0 UV-I 0 W/m 11,3 C 13,2 C 3,2 km/h (1 Bft) 100,00 %
24.09.2017 20:24 13,2 C 13,3 C 88 % 1020,3 hPa 0,0 l/m 1,2 km/h (1 Bft) O-NO 68 0 min 0,000 mm 0,0 UV-I 0 W/m 11,3 C 13,2 C 4,8 km/h (1 Bft) 100,00 %
24.09.2017 20:26 13,1 C 13,3 C 88 % 1020,2 hPa 0,0 l/m 2,6 km/h (1 Bft) O-NO 68 0 min 0,000 mm 0,0 UV-I 0 W/m 11,2 C 13,1 C 4,8 km/h (1 Bft) 100,00 %
24.09.2017 20:28 13,1 C 13,3 C 88 % 1020,3 hPa 0,0 l/m 2,1 km/h (1 Bft) O 81 0 min 0,000 mm 0,0 UV-I 0 W/m 11,2 C 13,1 C 4,8 km/h (1 Bft) 100,00 %
24.09.2017 20:30 13,1 C 13,3 C 88 % 1020,2 hPa 0,0 l/m 1,8 km/h (1 Bft) O 81 0 min 0,000 mm 0,0 UV-I 0 W/m 11,2 C 13,1 C 4,8 km/h (1 Bft) 98,11 %
24.09.2017 20:32 13,1 C 13,3 C 88 % 1020,3 hPa 0,0 l/m 2,3 km/h (1 Bft) O 81 0 min 0,000 mm 0,0 UV-I 0 W/m 11,2 C 13,1 C 3,2 km/h (1 Bft) 98,11 %
24.09.2017 20:34 13,1 C 13,3 C 88 % 1020,3 hPa 0,0 l/m 2,7 km/h (1 Bft) O 81 0 min 0,000 mm 0,0 UV-I 0 W/m 11,2 C 13,1 C 3,2 km/h (1 Bft) 100,00 %
24.09.2017 20:36 13,1 C 13,3 C 88 % 1020,3 hPa 0,0 l/m 3,0 km/h (1 Bft) O 81 0 min 0,000 mm 0,0 UV-I 0 W/m 11,2 C 13,1 C 4,8 km/h (1 Bft) 100,00 %
24.09.2017 20:38 13,1 C 13,3 C 88 % 1020,3 hPa 0,0 l/m 3,1 km/h (1 Bft) O 81 0 min 0,000 mm 0,0 UV-I 0 W/m 11,2 C 13,1 C 4,8 km/h (1 Bft) 100,00 %
24.09.2017 20:40 13,0 C 13,3 C 88 % 1020,3 hPa 0,0 l/m 3,4 km/h (1 Bft) O 81 0 min 0,000 mm 0,0 UV-I 0 W/m 11,1 C 13,0 C 4,8 km/h (1 Bft) 100,00 %
24.09.2017 20:42 13,0 C 13,3 C 88 % 1020,3 hPa 0,0 l/m 3,2 km/h (1 Bft) O 81 0 min 0,000 mm 0,0 UV-I 0 W/m 11,1 C 13,0 C 4,8 km/h (1 Bft) 100,00 %
24.09.2017 20:44 13,0 C 13,3 C 88 % 1020,3 hPa 0,0 l/m 2,5 km/h (1 Bft) O 81 0 min 0,000 mm 0,0 UV-I 0 W/m 11,1 C 13,0 C 3,2 km/h (1 Bft) 97,87 %
24.09.2017 20:46 13,0 C 13,3 C 88 % 1020,3 hPa 0,0 l/m 3,1 km/h (1 Bft) O 81 0 min 0,000 mm 0,0 UV-I 0 W/m 11,1 C 13,0 C 4,8 km/h (1 Bft) 100,00 %
24.09.2017 20:48 12,9 C 13,3 C 88 % 1020,3 hPa 0,0 l/m 2,0 km/h (1 Bft) O 81 0 min 0,000 mm 0,0 UV-I 0 W/m 11,0 C 12,9 C 3,2 km/h (1 Bft) 100,00 %
24.09.2017 20:50 12,9 C 13,3 C 88 % 1020,3 hPa 0,0 l/m 0,1 km/h (0 Bft) O 81 0 min 0,000 mm 0,0 UV-I 0 W/m 11,0 C 12,9 C 1,6 km/h (1 Bft) 100,00 %
24.09.2017 20:52 12,9 C 13,3 C 88 % 1020,3 hPa 0,0 l/m 0,0 km/h (0 Bft) O 81 0 min 0,000 mm 0,0 UV-I 0 W/m 11,0 C 12,9 C 0,0 km/h (0 Bft) 100,00 %
24.09.2017 20:54 12,8 C 13,3 C 88 % 1020,3 hPa 0,0 l/m 0,0 km/h (0 Bft) O 81 0 min 0,000 mm 0,0 UV-I 0 W/m 10,9 C 12,8 C 0,0 km/h (0 Bft) 98,00 %
24.09.2017 20:56 12,8 C 13,3 C 89 % 1020,3 hPa 0,0 l/m 0,0 km/h (0 Bft) O 81 0 min 0,000 mm 0,0 UV-I 0 W/m 11,0 C 12,8 C 0,0 km/h (0 Bft) 95,74 %
24.09.2017 20:58 12,7 C 13,3 C 89 % 1020,4 hPa 0,0 l/m 0,0 km/h (0 Bft) O 81 0 min 0,000 mm 0,0 UV-I 0 W/m 10,9 C 12,7 C 0,0 km/h (0 Bft) 97,14 %
24.09.2017 21:00 12,7 C 13,3 C 89 % 1020,3 hPa 0,0 l/m 0,0 km/h (0 Bft) O 81 0 min 0,000 mm 0,0 UV-I 0 W/m 10,9 C 12,7 C 0,0 km/h (0 Bft) 95,83 %
24.09.2017 21:02 12,7 C 13,3 C 89 % 1020,4 hPa 0,0 l/m 0,0 km/h (0 Bft) O 81 0 min 0,000 mm 0,0 UV-I 0 W/m 10,9 C 12,7 C 0,0 km/h (0 Bft) 98,08 %
24.09.2017 21:04 12,7 C 13,3 C 89 % 1020,4 hPa 0,0 l/m 0,0 km/h (0 Bft) O 81 0 min 0,000 mm 0,0 UV-I 0 W/m 10,9 C 12,7 C 0,0 km/h (0 Bft) 97,92 %
24.09.2017 21:06 12,7 C 13,3 C 90 % 1020,4 hPa 0,0 l/m 0,0 km/h (0 Bft) O 81 0 min 0,000 mm 0,0 UV-I 0 W/m 11,1 C 12,7 C 0,0 km/h (0 Bft) 97,96 %
24.09.2017 21:08 12,6 C 13,3 C 90 % 1020,5 hPa 0,0 l/m 0,0 km/h (0 Bft) O 81 0 min 0,000 mm 0,0 UV-I 0 W/m 11,0 C 12,6 C 0,0 km/h (0 Bft) 97,44 %
24.09.2017 21:10 12,6 C 13,3 C 90 % 1020,4 hPa 0,0 l/m 0,0 km/h (0 Bft) O 81 0 min 0,000 mm 0,0 UV-I 0 W/m 11,0 C 12,6 C 0,0 km/h (0 Bft) 95,74 %
24.09.2017 21:12 12,6 C 13,3 C 90 % 1020,4 hPa 0,0 l/m 0,0 km/h (0 Bft) O 81 0 min 0,000 mm 0,0 UV-I 0 W/m 11,0 C 12,6 C 0,0 km/h (0 Bft) 98,00 %
24.09.2017 21:14 12,6 C 13,3 C 90 % 1020,5 hPa 0,0 l/m 0,0 km/h (0 Bft) O 81 0 min 0,000 mm 0,0 UV-I 0 W/m 11,0 C 12,6 C 0,0 km/h (0 Bft) 95,74 %
24.09.2017 21:16 12,6 C 13,3 C 90 % 1020,5 hPa 0,0 l/m 0,0 km/h (0 Bft) O 81 0 min 0,000 mm 0,0 UV-I 0 W/m 11,0 C 12,6 C 0,0 km/h (0 Bft) 95,74 %
24.09.2017 21:18 12,6 C 13,3 C 90 % 1020,5 hPa 0,0 l/m 0,0 km/h (0 Bft) O 81 0 min 0,000 mm 0,0 UV-I 0 W/m 11,0 C 12,6 C 0,0 km/h (0 Bft) 93,62 %
24.09.2017 21:20 12,6 C 13,3 C 90 % 1020,4 hPa 0,0 l/m 0,0 km/h (0 Bft) O 81 0 min 0,000 mm 0,0 UV-I 0 W/m 11,0 C 12,6 C 0,0 km/h (0 Bft) 92,00 %
24.09.2017 21:22 12,5 C 13,3 C 90 % 1020,5 hPa 0,0 l/m 0,0 km/h (0 Bft) O 81 0 min 0,000 mm 0,0 UV-I 0 W/m 10,9 C 12,5 C 0,0 km/h (0 Bft) 96,00 %
24.09.2017 21:24 12,5 C 13,3 C 90 % 1020,4 hPa 0,0 l/m 0,0 km/h (0 Bft) O 81 0 min 0,000 mm 0,0 UV-I 0 W/m 10,9 C 12,5 C 0,0 km/h (0 Bft) 91,49 %
24.09.2017 21:26 12,5 C 13,3 C 90 % 1020,5 hPa 0,0 l/m 0,0 km/h (0 Bft) O 81 0 min 0,000 mm 0,0 UV-I 0 W/m 10,9 C 12,5 C 0,0 km/h (0 Bft) 100,00 %
24.09.2017 21:28 12,5 C 13,3 C 90 % 1020,5 hPa 0,0 l/m 0,0 km/h (0 Bft) O 81 0 min 0,000 mm 0,0 UV-I 0 W/m 10,9 C 12,5 C 0,0 km/h (0 Bft) 98,00 %
24.09.2017 21:30 12,4 C 13,3 C 90 % 1020,5 hPa 0,0 l/m 0,0 km/h (0 Bft) O 81 0 min 0,000 mm 0,0 UV-I 0 W/m 10,8 C 12,4 C 0,0 km/h (0 Bft) 96,00 %
24.09.2017 21:32 12,4 C 13,3 C 90 % 1020,5 hPa 0,0 l/m 0,0 km/h (0 Bft) O 81 0 min 0,000 mm 0,0 UV-I 0 W/m 10,8 C 12,4 C 0,0 km/h (0 Bft) 97,87 %
24.09.2017 21:34 12,5 C 13,3 C 90 % 1020,5 hPa 0,0 l/m 0,0 km/h (0 Bft) O 81 0 min 0,000 mm 0,0 UV-I 0 W/m 10,9 C 12,5 C 0,0 km/h (0 Bft) 100,00 %
24.09.2017 21:36 12,5 C 13,3 C 90 % 1020,5 hPa 0,0 l/m 0,0 km/h (0 Bft) O 81 0 min 0,000 mm 0,0 UV-I 0 W/m 10,9 C 12,5 C 0,0 km/h (0 Bft) 98,00 %
24.09.2017 21:38 12,4 C 13,3 C 91 % 1020,5 hPa 0,0 l/m 0,0 km/h (0 Bft) O 81 0 min 0,000 mm 0,0 UV-I 0 W/m 11,0 C 12,4 C 0,0 km/h (0 Bft) 100,00 %
24.09.2017 21:40 12,4 C 13,3 C 90 % 1020,5 hPa 0,0 l/m 0,0 km/h (0 Bft) O 81 0 min 0,000 mm 0,0 UV-I 0 W/m 10,8 C 12,4 C 0,0 km/h (0 Bft) 97,22 %
24.09.2017 21:42 12,3 C 13,3 C 91 % 1020,6 hPa 0,0 l/m 0,0 km/h (0 Bft) O 81 0 min 0,000 mm 0,0 UV-I 0 W/m 10,9 C 12,3 C 0,0 km/h (0 Bft) 98,00 %
24.09.2017 21:44 12,3 C 13,3 C 91 % 1020,5 hPa 0,0 l/m 0,0 km/h (0 Bft) O 81 0 min 0,000 mm 0,0 UV-I 0 W/m 10,9 C 12,3 C 0,0 km/h (0 Bft) 95,74 %
24.09.2017 21:46 12,3 C 13,3 C 91 % 1020,6 hPa 0,0 l/m 0,0 km/h (0 Bft) O 81 0 min 0,000 mm 0,0 UV-I 0 W/m 10,9 C 12,3 C 0,0 km/h (0 Bft) 98,00 %
24.09.2017 21:48 12,3 C 13,3 C 91 % 1020,5 hPa 0,0 l/m 0,0 km/h (0 Bft) O 81 0 min 0,000 mm 0,0 UV-I 0 W/m 10,9 C 12,3 C 0,0 km/h (0 Bft) 100,00 %
24.09.2017 21:50 12,3 C 13,3 C 91 % 1020,6 hPa 0,0 l/m 0,0 km/h (0 Bft) O 81 0 min 0,000 mm 0,0 UV-I 0 W/m 10,9 C 12,3 C 0,0 km/h (0 Bft) 97,37 %
24.09.2017 21:52 12,3 C 13,3 C 91 % 1020,5 hPa 0,0 l/m 0,0 km/h (0 Bft) O 81 0 min 0,000 mm 0,0 UV-I 0 W/m 10,9 C 12,3 C 0,0 km/h (0 Bft) 98,00 %
24.09.2017 21:54 12,2 C 13,3 C 92 % 1020,6 hPa 0,0 l/m 0,0 km/h (0 Bft) O 81 0 min 0,000 mm 0,0 UV-I 0 W/m 10,9 C 12,2 C 0,0 km/h (0 Bft) 100,00 %
24.09.2017 21:56 12,2 C 13,3 C 92 % 1020,6 hPa 0,0 l/m 0,0 km/h (0 Bft) O 81 0 min 0,000 mm 0,0 UV-I 0 W/m 10,9 C 12,2 C 0,0 km/h (0 Bft) 100,00 %
24.09.2017 21:58 12,2 C 13,3 C 92 % 1020,6 hPa 0,0 l/m 0,0 km/h (0 Bft) O 81 0 min 0,000 mm 0,0 UV-I 0 W/m 10,9 C 12,2 C 1,6 km/h (1 Bft) 97,87 %
24.09.2017 22:00 12,2 C 13,3 C 92 % 1020,6 hPa 0,0 l/m 1,3 km/h (1 Bft) O 81 0 min 0,000 mm 0,0 UV-I 0 W/m 10,9 C 12,2 C 3,2 km/h (1 Bft) 100,00 %
24.09.2017 22:02 12,2 C 13,3 C 92 % 1020,7 hPa 0,0 l/m 0,1 km/h (0 Bft) O 81 0 min 0,000 mm 0,0 UV-I 0 W/m 10,9 C 12,2 C 1,6 km/h (1 Bft) 96,00 %
24.09.2017 22:04 12,2 C 13,3 C 92 % 1020,7 hPa 0,0 l/m 0,0 km/h (0 Bft) O 80 0 min 0,000 mm 0,0 UV-I 0 W/m 10,9 C 12,2 C 0,0 km/h (0 Bft) 100,00 %
24.09.2017 22:06 12,2 C 13,3 C 92 % 1020,7 hPa 0,0 l/m 0,0 km/h (0 Bft) O 80 0 min 0,000 mm 0,0 UV-I 0 W/m 10,9 C 12,2 C 0,0 km/h (0 Bft) 98,00 %
24.09.2017 22:08 12,2 C 13,3 C 92 % 1020,7 hPa 0,0 l/m 0,0 km/h (0 Bft) O 81 0 min 0,000 mm 0,0 UV-I 0 W/m 10,9 C 12,2 C 0,0 km/h (0 Bft) 96,00 %
24.09.2017 22:10 12,2 C 13,3 C 92 % 1020,6 hPa 0,0 l/m 0,0 km/h (0 Bft) O 80 0 min 0,000 mm 0,0 UV-I 0 W/m 10,9 C 12,2 C 0,0 km/h (0 Bft) 100,00 %
24.09.2017 22:12 12,2 C 13,3 C 92 % 1020,6 hPa 0,0 l/m 0,0 km/h (0 Bft) O 81 0 min 0,000 mm 0,0 UV-I 0 W/m 10,9 C 12,2 C 0,0 km/h (0 Bft) 100,00 %
24.09.2017 22:14 12,1 C 13,3 C 92 % 1020,6 hPa 0,0 l/m 0,0 km/h (0 Bft) O 81 0 min 0,000 mm 0,0 UV-I 0 W/m 10,8 C 12,1 C 0,0 km/h (0 Bft) 96,23 %
24.09.2017 22:16 12,1 C 13,3 C 92 % 1020,6 hPa 0,0 l/m 0,0 km/h (0 Bft) O 81 0 min 0,000 mm 0,0 UV-I 0 W/m 10,8 C 12,1 C 0,0 km/h (0 Bft) 100,00 %
24.09.2017 22:18 12,1 C 13,3 C 92 % 1020,6 hPa 0,0 l/m 0,0 km/h (0 Bft) O 81 0 min 0,000 mm 0,0 UV-I 0 W/m 10,8 C 12,1 C 0,0 km/h (0 Bft) 100,00 %
24.09.2017 22:20 12,0 C 13,3 C 92 % 1020,6 hPa 0,0 l/m 0,0 km/h (0 Bft) O 80 0 min 0,000 mm 0,0 UV-I 0 W/m 10,7 C 12,0 C 0,0 km/h (0 Bft) 100,00 %
24.09.2017 22:22 12,0 C 13,3 C 92 % 1020,5 hPa 0,0 l/m 0,0 km/h (0 Bft) O 81 0 min 0,000 mm 0,0 UV-I 0 W/m 10,7 C 12,0 C 0,0 km/h (0 Bft) 97,44 %
24.09.2017 22:24 11,9 C 13,3 C 92 % 1020,6 hPa 0,0 l/m 0,0 km/h (0 Bft) O 81 0 min 0,000 mm 0,0 UV-I 0 W/m 10,6 C 11,9 C 0,0 km/h (0 Bft) 95,74 %
24.09.2017 22:26 11,9 C 13,3 C 92 % 1020,5 hPa 0,0 l/m 0,0 km/h (0 Bft) O 81 0 min 0,000 mm 0,0 UV-I 0 W/m 10,6 C 11,9 C 0,0 km/h (0 Bft) 97,87 %
24.09.2017 22:28 11,9 C 13,3 C 92 % 1020,6 hPa 0,0 l/m 1,3 km/h (1 Bft) O 81 0 min 0,000 mm 0,0 UV-I 0 W/m 10,6 C 11,9 C 3,2 km/h (1 Bft) 96,00 %
24.09.2017 22:30 11,8 C 13,3 C 92 % 1020,6 hPa 0,0 l/m 2,1 km/h (1 Bft) O 80 0 min 0,000 mm 0,0 UV-I 0 W/m 10,5 C 11,8 C 3,2 km/h (1 Bft) 95,45 %
24.09.2017 22:32 11,8 C 13,3 C 93 % 1020,5 hPa 0,0 l/m 1,6 km/h (1 Bft) O 80 0 min 0,000 mm 0,0 UV-I 0 W/m 10,7 C 11,8 C 3,2 km/h (1 Bft) 98,11 %
24.09.2017 22:34 11,9 C 13,3 C 93 % 1020,5 hPa 0,0 l/m 1,5 km/h (1 Bft) O 80 0 min 0,000 mm 0,0 UV-I 0 W/m 10,8 C 11,9 C 3,2 km/h (1 Bft) 95,12 %
24.09.2017 22:36 11,9 C 13,3 C 93 % 1020,6 hPa 0,0 l/m 1,4 km/h (1 Bft) O 81 0 min 0,000 mm 0,0 UV-I 0 W/m 10,8 C 11,9 C 1,6 km/h (1 Bft) 96,23 %
24.09.2017 22:38 11,8 C 13,3 C 92 % 1020,5 hPa 0,0 l/m 1,7 km/h (1 Bft) O 81 0 min 0,000 mm 0,0 UV-I 0 W/m 10,5 C 11,8 C 3,2 km/h (1 Bft) 95,12 %
24.09.2017 22:40 11,9 C 13,3 C 92 % 1020,6 hPa 0,0 l/m 1,0 km/h (0 Bft) O 81 0 min 0,000 mm 0,0 UV-I 0 W/m 10,6 C 11,9 C 1,6 km/h (1 Bft) 98,00 %
24.09.2017 22:42 11,9 C 13,3 C 92 % 1020,6 hPa 0,0 l/m 1,3 km/h (1 Bft) O 81 0 min 0,000 mm 0,0 UV-I 0 W/m 10,6 C 11,9 C 3,2 km/h (1 Bft) 95,45 %
24.09.2017 22:44 11,9 C 13,3 C 92 % 1020,6 hPa 0,0 l/m 1,7 km/h (1 Bft) O 81 0 min 0,000 mm 0,0 UV-I 0 W/m 10,6 C 11,9 C 3,2 km/h (1 Bft) 96,23 %
24.09.2017 22:46 11,9 C 13,3 C 92 % 1020,5 hPa 0,0 l/m 1,8 km/h (1 Bft) O 81 0 min 0,000 mm 0,0 UV-I 0 W/m 10,6 C 11,9 C 3,2 km/h (1 Bft) 97,56 %
24.09.2017 22:48 11,9 C 13,3 C 92 % 1020,5 hPa 0,0 l/m 2,3 km/h (1 Bft) O 81 0 min 0,000 mm 0,0 UV-I 0 W/m 10,6 C 11,9 C 3,2 km/h (1 Bft) 97,37 %
24.09.2017 22:50 11,9 C 13,3 C 92 % 1020,5 hPa 0,0 l/m 1,7 km/h (1 Bft) O 80 0 min 0,000 mm 0,0 UV-I 0 W/m 10,6 C 11,9 C 3,2 km/h (1 Bft) 96,61 %
24.09.2017 22:52 11,9 C 13,3 C 92 % 1020,6 hPa 0,0 l/m 0,5 km/h (0 Bft) O 81 0 min 0,000 mm 0,0 UV-I 0 W/m 10,6 C 11,9 C 1,6 km/h (1 Bft) 96,00 %
24.09.2017 22:54 11,8 C 13,3 C 92 % 1020,6 hPa 0,0 l/m 3,1 km/h (1 Bft) O 81 0 min 0,000 mm 0,0 UV-I 0 W/m 10,5 C 11,8 C 4,8 km/h (1 Bft) 97,87 %
24.09.2017 22:56 11,7 C 13,3 C 92 % 1020,6 hPa 0,0 l/m 3,1 km/h (1 Bft) O 81 0 min 0,000 mm 0,0 UV-I 0 W/m 10,4 C 11,7 C 4,8 km/h (1 Bft) 95,74 %
24.09.2017 22:58 11,7 C 13,3 C 92 % 1020,5 hPa 0,0 l/m 3,0 km/h (1 Bft) O 82 0 min 0,000 mm 0,0 UV-I 0 W/m 10,4 C 11,7 C 4,8 km/h (1 Bft) 94,87 %
24.09.2017 23:00 11,6 C 13,3 C 92 % 1020,6 hPa 0,0 l/m 2,5 km/h (1 Bft) O 84 0 min 0,000 mm 0,0 UV-I 0 W/m 10,3 C 11,6 C 3,2 km/h (1 Bft) 96,15 %
24.09.2017 23:02 11,6 C 13,3 C 92 % 1020,6 hPa 0,0 l/m 2,5 km/h (1 Bft) O 84 0 min 0,000 mm 0,0 UV-I 0 W/m 10,3 C 11,6 C 3,2 km/h (1 Bft) 95,24 %
24.09.2017 23:04 11,6 C 13,3 C 92 % 1020,6 hPa 0,0 l/m 3,2 km/h (1 Bft) O 84 0 min 0,000 mm 0,0 UV-I 0 W/m 10,3 C 11,6 C 4,8 km/h (1 Bft) 92,00 %
24.09.2017 23:06 11,5 C 13,3 C 92 % 1020,6 hPa 0,0 l/m 2,8 km/h (1 Bft) O 84 0 min 0,000 mm 0,0 UV-I 0 W/m 10,2 C 11,5 C 4,8 km/h (1 Bft) 92,00 %
24.09.2017 23:08 11,5 C 13,3 C 92 % 1020,6 hPa 0,0 l/m 2,7 km/h (1 Bft) O 84 0 min 0,000 mm 0,0 UV-I 0 W/m 10,2 C 11,5 C 3,2 km/h (1 Bft) 91,49 %
24.09.2017 23:10 11,4 C 13,3 C 93 % 1020,6 hPa 0,0 l/m 3,0 km/h (1 Bft) O 84 0 min 0,000 mm 0,0 UV-I 0 W/m 10,3 C 11,4 C 4,8 km/h (1 Bft) 100,00 %
24.09.2017 23:12 11,4 C 13,3 C 93 % 1020,6 hPa 0,0 l/m 0,8 km/h (0 Bft) O 84 0 min 0,000 mm 0,0 UV-I 0 W/m 10,3 C 11,4 C 3,2 km/h (1 Bft) 92,86 %
24.09.2017 23:14 11,3 C 13,3 C 93 % 1020,6 hPa 0,0 l/m 0,5 km/h (0 Bft) O 84 0 min 0,000 mm 0,0 UV-I 0 W/m 10,2 C 11,3 C 1,6 km/h (1 Bft) 94,74 %
24.09.2017 23:16 11,3 C 13,3 C 93 % 1020,5 hPa 0,0 l/m 1,3 km/h (1 Bft) O 84 0 min 0,000 mm 0,0 UV-I 0 W/m 10,2 C 11,3 C 3,2 km/h (1 Bft) 96,00 %
24.09.2017 23:18 11,2 C 13,3 C 93 % 1020,6 hPa 0,0 l/m 2,3 km/h (1 Bft) O 84 0 min 0,000 mm 0,0 UV-I 0 W/m 10,1 C 11,2 C 3,2 km/h (1 Bft) 96,23 %
24.09.2017 23:20 11,1 C 13,3 C 93 % 1020,6 hPa 0,0 l/m 2,1 km/h (1 Bft) O 84 0 min 0,000 mm 0,0 UV-I 0 W/m 10,0 C 11,1 C 3,2 km/h (1 Bft) 94,29 %
24.09.2017 23:22 11,1 C 13,3 C 93 % 1020,6 hPa 0,0 l/m 1,0 km/h (0 Bft) O 84 0 min 0,000 mm 0,0 UV-I 0 W/m 10,0 C 11,1 C 3,2 km/h (1 Bft) 94,34 %
24.09.2017 23:24 11,1 C 13,3 C 93 % 1020,6 hPa 0,0 l/m 0,5 km/h (0 Bft) O 84 0 min 0,000 mm 0,0 UV-I 0 W/m 10,0 C 11,1 C 1,6 km/h (1 Bft) 93,62 %
24.09.2017 23:26 11,1 C 13,3 C 93 % 1020,5 hPa 0,0 l/m 0,1 km/h (0 Bft) O 84 0 min 0,000 mm 0,0 UV-I 0 W/m 10,0 C 11,1 C 1,6 km/h (1 Bft) 92,00 %
24.09.2017 23:28 11,0 C 13,3 C 93 % 1020,5 hPa 0,0 l/m 0,6 km/h (0 Bft) O 84 0 min 0,000 mm 0,0 UV-I 0 W/m 9,9 C 11,0 C 3,2 km/h (1 Bft) 97,87 %
24.09.2017 23:30 11,0 C 13,3 C 93 % 1020,5 hPa 0,0 l/m 1,7 km/h (1 Bft) O 84 0 min 0,000 mm 0,0 UV-I 0 W/m 9,9 C 11,0 C 3,2 km/h (1 Bft) 98,00 %
24.09.2017 23:32 10,9 C 13,3 C 94 % 1020,5 hPa 0,0 l/m 1,8 km/h (1 Bft) O 84 0 min 0,000 mm 0,0 UV-I 0 W/m 10,0 C 10,9 C 3,2 km/h (1 Bft) 100,00 %
24.09.2017 23:34 10,9 C 13,3 C 94 % 1020,5 hPa 0,0 l/m 1,9 km/h (1 Bft) O 84 0 min 0,000 mm 0,0 UV-I 0 W/m 10,0 C 10,9 C 3,2 km/h (1 Bft) 100,00 %
24.09.2017 23:36 10,9 C 13,3 C 94 % 1020,5 hPa 0,0 l/m 0,2 km/h (0 Bft) O 84 0 min 0,000 mm 0,0 UV-I 0 W/m 10,0 C 10,9 C 1,6 km/h (1 Bft) 98,00 %
24.09.2017 23:38 10,8 C 13,3 C 94 % 1020,5 hPa 0,0 l/m 0,5 km/h (0 Bft) O 84 0 min 0,000 mm 0,0 UV-I 0 W/m 9,9 C 10,8 C 1,6 km/h (1 Bft) 100,00 %
24.09.2017 23:40 10,9 C 13,3 C 94 % 1020,5 hPa 0,0 l/m 1,8 km/h (1 Bft) O 84 0 min 0,000 mm 0,0 UV-I 0 W/m 10,0 C 10,9 C 3,2 km/h (1 Bft) 100,00 %
24.09.2017 23:42 10,9 C 13,3 C 94 % 1020,5 hPa 0,0 l/m 1,5 km/h (1 Bft) O 84 0 min 0,000 mm 0,0 UV-I 0 W/m 10,0 C 10,9 C 1,6 km/h (1 Bft) 100,00 %
24.09.2017 23:44 10,9 C 13,3 C 94 % 1020,5 hPa 0,0 l/m 1,0 km/h (0 Bft) O 84 0 min 0,000 mm 0,0 UV-I 0 W/m 10,0 C 10,9 C 1,6 km/h (1 Bft) 100,00 %
24.09.2017 23:46 10,8 C 13,3 C 94 % 1020,5 hPa 0,0 l/m 0,8 km/h (0 Bft) O 84 0 min 0,000 mm 0,0 UV-I 0 W/m 9,9 C 10,8 C 3,2 km/h (1 Bft) 100,00 %
24.09.2017 23:48 10,8 C 13,3 C 94 % 1020,5 hPa 0,0 l/m 1,2 km/h (1 Bft) O 84 0 min 0,000 mm 0,0 UV-I 0 W/m 9,9 C 10,8 C 3,2 km/h (1 Bft) 100,00 %
24.09.2017 23:50 10,8 C 13,3 C 94 % 1020,5 hPa 0,0 l/m 0,2 km/h (0 Bft) O 84 0 min 0,000 mm 0,0 UV-I 0 W/m 9,9 C 10,8 C 1,6 km/h (1 Bft) 100,00 %
24.09.2017 23:52 10,7 C 13,3 C 94 % 1020,5 hPa 0,0 l/m 0,3 km/h (0 Bft) O 84 0 min 0,000 mm 0,0 UV-I 0 W/m 9,8 C 10,7 C 1,6 km/h (1 Bft) 100,00 %
24.09.2017 23:54 10,8 C 13,3 C 94 % 1020,5 hPa 0,0 l/m 0,0 km/h (0 Bft) O 84 0 min 0,000 mm 0,0 UV-I 0 W/m 9,9 C 10,8 C 0,0 km/h (0 Bft) 100,00 %
24.09.2017 23:56 10,7 C 13,3 C 94 % 1020,5 hPa 0,0 l/m 0,0 km/h (0 Bft) O 84 0 min 0,000 mm 0,0 UV-I 0 W/m 9,8 C 10,7 C 0,0 km/h (0 Bft) 100,00 %
24.09.2017 23:58 10,7 C 13,3 C 94 % 1020,5 hPa 0,0 l/m 0,0 km/h (0 Bft) O 84 0 min 0,000 mm 0,0 UV-I 0 W/m 9,8 C 10,7 C 0,0 km/h (0 Bft) 100,00 %
_ Min-Zeit 05:58 03:34 15:20 03:58 - 01:20 - - - - - - 05:58 05:58 01:20 19:14
Minimum _ 7,3 C 12,8 C 66 % 1018,8 hPa - 0,0 km/h (0 Bft) - - - - - - 6,6 C 7,3 C 0,0 km/h (0 Bft) 91,49 %
_ Max-Zeit 15:16 00:00 06:06 22:02 00:00 17:00 - - 13:53 14:00 13:16 13:32 16:38 15:16 16:56 00:00
Maximum _ 17,6 C 13,3 C 96 % 1020,7 hPa 0,0 l/m 13,2 km/h
NO (3 Bft)
- - 3 min 0,305 mm 3,0 UV-I 641 W/m 12,5 C 17,6 C 19,3 km/h
NO (3 Bft)
100,00 %
Durchschnitt _ 12,4 C 13,1 C 87 % 1019,7 hPa #0,0 l/m 2,1 km/h (1 Bft) O-NO - #3:04 h #1,600 mm 1,5 UV-I 229 W/m 10,1 C 12,3 C 4,0 km/h (1 Bft) 97,99 %